GFSSGP_con_sbcape_000.txt.gz
CAPE
0 0 0 0 0 0 0 0 0 0 2 57 80 44 17 21 81 159 284 342 631 717 742 839 1055 1349 1444 1470 1412 1370 1396 1288 1066 1014 971 917 795 626 658 822 1004 822 699 546 518 544 523 685 874
0 0 0 0 0 0 0 0 0 0 0 4 26 63 130 311 380 421 373 522 678 747 759 825 1165 1369 1477 1485 1530 1487 1465 1308 1206 1131 1024 880 667 608 636 599 815 446 325 303 343 462 480 503 632
0 0 0 0 0 0 0 0 0 0 0 0 20 4 16 208 372 408 435 704 825 851 886 1024 1176 1324 1462 1501 1558 1599 1645 1603 1481 1154 874 747 593 549 391 316 190 113 109 89 77 86 125 264 377
0 0 0 0 0 0 0 0 7 5 0 0 0 1 2 71 253 862 1009 1084 990 1175 1016 1086 1324 1405 1497 1546 1472 1476 1426 1358 1152 975 830 660 517 343 203 109 42 20 11 16 8 0 0 19 70
0 0 0 0 0 0 0 0 0 0 50 4 0 4 25 272 1059 1173 1172 1050 913 995 1291 1301 1360 1468 1523 1564 1472 1338 1304 1227 1175 1195 892 538 375 231 127 64 15 0 0 0 0 0 0 0 0
0 0 0 0 0 0 0 0 0 70 1 0 0 58 12 45 1061 1046 1148 1137 1049 919 1239 1527 1489 1511 1524 1434 1212 1087 1056 1123 1184 1116 865 512 341 234 119 38 2 0 0 0 0 0 0 0 0
0 0 0 0 0 0 0 0 0 20 49 61 25 22 0 21 441 724 982 1018 1127 1159 1208 1134 1143 1117 1025 951 856 876 985 972 1007 1013 847 669 436 397 153 20 0 0 0 0 0 0 0 0 0
0 0 0 0 0 0 0 0 0 0 6 5 80 29 0 0 40 279 687 711 827 791 743 621 631 575 581 649 714 695 648 615 676 748 598 423 311 268 257 159 46 37 0 0 0 0 0 0 0
0 0 0 0 0 0 0 0 0 0 0 0 1 63 0 0 0 0 0 137 293 402 300 248 269 254 326 391 514 646 617 486 439 515 493 332 216 72 46 145 35 207 88 63 84 80 25 0 0
0 0 0 0 0 0 0 0 0 0 35 49 88 22 0 0 0 0 0 30 93 213 176 45 36 42 118 330 407 219 327 251 244 302 293 270 274 223 77 112 262 268 202 245 273 230 155 68 0
0 0 0 0 0 0 0 0 0 0 20 147 111 2 0 0 0 0 0 0 63 113 242 69 152 41 0 68 21 49 187 181 248 340 314 245 324 59 274 37 52 84 74 92 106 69 29 2 0
0 0 0 0 0 0 0 0 0 0 0 107 105 0 0 0 0 0 0 0 0 145 21 0 31 54 0 0 2 32 94 194 339 327 121 19 10 0 0 3 34 0 0 25 42 39 16 0 0
0 0 0 0 0 0 0 0 0 0 0 149 98 68 13 0 0 0 0 0 0 127 59 0 0 0 0 0 0 0 11 147 260 206 81 0 6 0 0 0 0 0 0 0 0 0 0 0 0
0 0 0 0 0 0 0 0 0 0 0 138 156 123 103 97 0 0 0 0 0 260 95 144 203 150 5 2 0 0 0 0 34 56 12 3 0 0 0 0 0 0 0 0 0 0 0 0 0
0 0 0 0 0 0 0 0 0 0 0 107 241 206 133 96 32 0 0 0 0 324 242 527 602 106 56 1 27 3 0 0 0 0 0 0 0 0 0 0 0 0 0 0 0 0 0 0 0
0 0 0 0 0 0 0 0 0 0 0 0 0 32 8 18 20 3 0 0 1 272 416 573 166 391 29 13 0 0 0 0 0 0 0 0 0 0 0 0 0 0 0 0 0 0 0 0 0
0 0 0 0 0 0 0 0 0 0 0 0 0 0 0 0 0 0 0 0 368 346 480 245 104 260 75 0 0 0 0 0 0 0 0 0 0 0 0 0 0 0 0 0 0 0 0 0 0
0 0 0 0 0 0 0 0 0 0 0 0 0 0 0 0 0 0 0 0 0 8 2 6 14 29 0 0 0 0 0 0 0 0 0 0 0 0 0 0 0 0 0 0 0 0 0 0 0
0 0 0 0 0 0 0 0 0 0 0 0 0 0 0 0 0 0 0 0 0 0 0 0 0 0 0 0 0 0 0 0 0 0 0 0 0 0 0 0 0 0 0 0 0 0 0 0 0
0 0 0 0 0 0 0 0 0 0 0 0 0 0 0 0 0 0 0 0 0 0 0 0 0 0 0 0 0 0 0 0 0 0 0 0 0 0 0 0 0 0 0 0 0 0 0 0 0
0 0 0 0 0 0 0 0 0 0 0 0 0 0 0 0 0 0 0 0 0 0 0 0 0 0 0 0 0 0 0 0 0 0 0 0 0 0 0 0 0 0 0 0 0 0 0 0 0
0 0 0 0 0 0 0 0 0 0 0 0 0 0 0 0 0 0 0 0 0 0 0 0 0 0 0 0 0 0 0 0 0 0 0 0 0 0 0 0 0 0 0 0 0 0 0 0 0
0 0 0 0 0 0 0 0 0 0 0 0 0 0 0 0 0 0 0 0 0 0 0 0 0 0 0 0 0 0 0 0 0 0 0 0 0 0 0 0 0 0 0 0 0 0 0 0 0
0 0 0 0 0 0 0 0 0 0 0 0 0 0 0 0 0 0 0 0 0 0 0 0 0 0 0 0 0 0 0 0 0 0 0 0 0 0 0 0 0 0 0 0 0 0 0 0 0
0 0 10 10 10 9 0 0 0 0 0 0 0 0 0 0 0 0 0 0 0 0 0 0 0 0 0 0 0 0 0 0 0 0 0 0 0 0 0 0 0 0 0 0 0 0 0 0 0
0 0 0 2 0 0 0 0 0 0 0 0 0 0 0 0 0 0 0 0 0 0 0 0 0 0 0 0 0 0 0 0 0 0 0 0 0 0 0 0 0 0 0 0 0 0 0 0 0
0 0 0 0 0 0 0 0 0 0 0 0 0 0 0 0 0 0 0 0 0 0 0 0 0 0 0 0 0 0 0 0 0 0 0 0 0 0 0 0 0 0 0 0 0 0 0 0 0
0 0 0 0 0 0 0 0 0 0 0 0 0 0 0 0 0 0 0 0 0 0 0 0 0 0 0 0 0 0 0 0 0 0 0 0 0 0 0 0 0 0 0 0 0 0 0 0 0
0 0 0 0 0 0 0 0 0 0 0 0 0 0 0 0 0 0 0 0 0 0 0 0 0 0 0 0 0 0 0 0 0 0 0 0 0 0 0 0 0 0 0 0 0 0 0 0 0
0 0 0 0 0 0 0 0 0 0 0 0 0 0 0 0 0 0 0 0 0 0 0 0 0 0 0 0 0 0 0 0 0 0 0 0 0 0 0 0 0 0 0 0 0 0 0 0 0

GFSSGP_con_sbcape_003.txt.gz
CAPE
0 0 0 0 0 0 0 0 3 1 12 0 2 28 112 150 121 110 222 309 662 664 773 952 1154 1217 1240 1301 1262 1259 1198 869 819 820 811 742 627 595 634 625 489 260 162 125 139 159 182 175 258
0 0 0 0 0 0 0 0 50 76 30 0 1 64 252 432 450 515 386 718 678 707 759 1015 1248 1368 1390 1348 1377 1363 1185 996 940 909 888 705 596 547 466 415 389 182 138 67 48 39 46 75 159
0 0 0 0 0 0 0 5 25 33 6 0 1 0 41 518 532 411 461 786 807 694 811 1217 1267 1404 1498 1502 1505 1420 1430 1377 1188 1044 819 642 553 400 250 166 97 53 24 14 7 0 1 2 16
0 0 0 0 0 0 0 0 3 3 26 32 0 3 0 235 436 477 683 878 819 791 919 1032 1252 1424 1550 1589 1551 1488 1449 1199 1026 993 693 600 446 272 118 67 15 0 0 0 0 0 0 0 0
0 0 0 0 0 0 0 0 12 57 39 25 0 21 70 943 651 873 1098 926 1020 975 1076 1090 1267 1365 1440 1496 1474 1390 1200 955 998 945 702 541 394 243 100 23 0 0 0 0 0 0 0 0 0
0 0 0 0 0 0 0 0 78 53 22 58 150 155 30 924 1130 1087 981 818 909 1209 1437 1256 1307 1251 1302 1349 1183 1088 1042 1071 1108 996 694 498 365 248 125 18 0 0 0 0 0 0 0 0 0
0 0 0 0 0 0 0 0 104 25 64 89 82 36 54 868 868 1082 913 736 835 959 1058 1317 1296 1344 1235 1039 889 819 821 913 960 906 797 638 474 348 152 19 0 0 0 0 0 0 0 0 0
0 0 0 0 0 0 0 0 0 156 137 34 3 31 465 121 605 902 778 767 891 918 841 707 842 779 695 675 689 656 690 688 782 790 612 393 263 286 227 138 73 74 15 25 44 23 1 0 0
0 0 0 0 0 0 0 0 0 0 87 9 0 2 312 160 415 583 539 490 508 587 489 448 463 421 336 331 480 632 641 548 567 566 471 287 119 56 96 192 167 231 173 133 186 171 146 69 33
0 0 0 0 0 0 0 0 2 55 50 41 0 0 49 32 375 381 402 465 433 386 281 178 198 160 141 379 343 183 244 190 179 211 194 193 190 133 174 120 283 427 375 395 403 400 310 269 11
0 0 0 0 0 0 0 0 0 29 88 54 0 0 11 99 123 89 37 134 134 127 162 50 23 31 68 140 84 24 79 62 73 188 147 170 221 146 104 97 18 41 134 88 117 97 70 34 8
0 0 0 0 0 0 0 0 0 0 118 61 0 0 0 0 0 0 0 5 11 99 99 35 0 0 0 0 0 0 23 77 131 250 284 75 30 5 0 0 0 0 0 0 0 0 11 14 0
0 0 0 0 0 0 0 0 0 0 1 79 0 0 0 0 0 0 0 0 1 170 113 76 62 0 0 0 0 1 39 202 300 188 119 2 0 0 0 0 0 0 0 0 0 0 0 0 0
0 0 0 0 0 0 0 0 0 0 70 41 0 0 0 0 0 0 0 0 5 200 83 0 88 4 0 0 0 0 1 94 199 131 5 0 0 0 0 0 0 0 0 0 0 0 0 0 0
0 0 0 0 0 0 0 0 0 0 106 104 23 0 0 0 0 0 0 0 0 63 62 9 1 0 0 0 0 0 0 0 6 0 0 0 0 0 0 0 0 0 0 0 0 0 0 0 0
0 0 0 0 0 0 0 0 0 0 191 169 90 23 3 0 0 0 0 0 0 16 178 346 305 1 0 0 0 0 0 0 0 0 0 0 0 0 0 0 0 0 0 0 0 0 0 0 0
0 0 0 0 0 0 0 0 0 0 9 0 0 0 0 0 0 0 0 0 0 7 250 190 257 231 54 0 0 0 0 0 0 0 0 0 0 0 0 0 0 0 0 0 0 0 0 0 0
0 0 0 0 0 0 0 0 0 0 0 0 0 0 0 0 0 0 0 0 0 0 0 0 0 0 0 0 0 0 0 0 0 0 0 0 0 0 0 0 0 0 0 0 0 0 0 0 0
0 0 0 0 0 0 0 0 0 0 0 0 0 0 0 0 0 0 0 0 0 0 0 0 0 0 0 0 0 0 0 0 0 0 0 0 0 0 0 0 0 0 0 0 0 0 0 0 0
0 0 0 0 0 0 0 0 0 0 0 0 0 0 0 0 0 0 0 0 0 0 0 0 0 0 0 0 0 0 0 0 0 0 0 0 0 0 0 0 0 0 0 0 0 0 0 0 0
0 0 0 0 0 0 0 0 0 0 0 0 0 0 0 0 0 0 0 0 0 0 0 0 0 0 0 0 0 0 0 0 0 0 0 0 0 0 0 0 0 0 0 0 0 0 0 0 0
0 0 0 0 0 0 0 0 0 0 0 0 0 0 0 0 0 0 0 0 0 0 0 0 0 0 0 0 0 0 0 0 0 0 0 0 0 0 0 0 0 0 0 0 0 0 0 0 0
0 0 0 0 0 0 0 0 0 0 0 0 0 0 0 0 0 0 0 0 0 0 0 0 0 0 0 0 0 0 0 0 0 0 0 0 0 0 0 0 0 0 0 0 0 0 0 0 0
0 0 0 0 0 0 0 0 0 0 0 0 0 0 0 0 0 0 0 0 0 0 0 0 0 0 0 0 0 0 0 0 0 0 0 0 0 0 0 0 0 0 0 0 0 0 0 0 0
0 0 1 12 5 3 0 0 0 0 0 0 0 0 0 0 0 0 0 0 0 0 0 0 0 0 0 0 0 0 0 0 0 0 0 0 0 0 0 0 0 0 0 0 0 0 0 0 0
0 0 2 12 0 0 0 0 0 0 0 0 0 0 0 0 0 0 0 0 0 0 0 0 0 0 0 0 0 0 0 0 0 0 0 0 0 0 0 0 0 0 0 0 0 0 0 0 0
0 0 0 0 0 0 0 0 0 0 0 0 0 0 0 0 0 0 0 0 0 0 0 0 0 0 0 0 0 0 0 0 0 0 0 0 0 0 0 0 0 0 0 0 0 0 0 0 0
0 0 0 0 0 0 0 0 0 0 0 0 0 0 0 0 0 0 0 0 0 0 0 0 0 0 0 0 0 0 0 0 0 0 0 0 0 0 0 0 0 0 0 0 0 0 0 0 0
0 0 0 0 0 0 0 0 0 0 0 0 0 0 0 0 0 0 0 0 0 0 0 0 0 0 0 0 0 0 0 0 0 0 0 0 0 0 0 0 0 0 0 0 0 0 0 0 0
0 0 0 0 0 0 0 0 0 0 0 0 0 0 0 0 0 0 0 0 0 0 0 0 0 0 0 0 0 0 0 0 0 0 0 0 0 0 0 0 0 0 0 0 0 0 0 0 0

GFSSGP_con_sbcape_006.txt.gz
CAPE
0 0 0 0 0 0 0 0 0 1 32 51 90 117 157 258 159 93 278 446 628 692 819 822 969 1174 1181 1071 1010 1142 1041 779 749 761 717 545 457 419 357 289 319 154 49 34 24 36 60 88 141
0 0 0 0 0 0 0 0 94 99 66 27 22 23 163 160 499 309 447 826 668 793 832 881 964 1070 1259 1158 1194 1165 1011 837 821 825 676 516 424 280 151 149 239 33 14 9 3 0 0 0 1
0 0 0 0 0 0 0 7 59 65 18 9 1 0 0 303 543 347 628 744 723 713 827 1028 1089 1172 1278 1289 1285 1206 1219 1140 1025 879 618 506 356 191 57 43 22 0 0 0 0 0 0 0 0
0 0 0 0 0 0 0 16 0 11 0 3 11 31 7 91 408 473 890 810 675 627 725 899 1148 1168 1327 1341 1392 1372 1277 1126 1047 895 584 462 272 127 22 5 0 0 0 0 0 0 0 0 0
0 0 0 0 0 0 0 1 0 16 16 1 3 31 22 687 563 836 866 790 787 730 770 938 1154 1255 1368 1490 1451 1346 1115 916 956 866 653 433 277 127 10 0 0 0 0 0 0 0 0 0 0
0 0 0 0 0 0 0 25 106 68 23 45 112 41 60 855 804 917 923 835 829 942 1073 1017 1147 1162 1204 1301 1252 1084 926 888 948 833 631 412 302 150 0 0 0 0 0 0 0 0 0 0 0
0 0 0 0 0 0 0 73 102 74 54 91 38 67 354 751 993 1072 936 880 927 1003 1200 1029 1032 1019 1051 1025 952 901 866 898 886 815 662 535 340 153 12 0 0 0 0 6 29 84 48 10 9
0 0 0 0 0 0 0 0 9 47 87 13 24 427 565 490 1051 1037 728 610 673 726 754 727 823 990 812 753 794 734 688 720 766 752 597 347 210 140 84 65 10 101 56 89 176 163 165 128 86
0 0 0 0 0 0 0 0 0 8 42 27 2 155 436 820 789 633 649 667 756 812 769 746 705 677 518 408 541 658 715 658 642 640 507 269 9 0 12 76 190 186 189 194 238 305 269 193 73
0 0 0 0 0 0 0 7 33 95 70 12 5 227 645 755 590 503 500 537 526 648 541 432 386 363 228 408 358 279 299 289 275 314 234 95 37 24 98 85 168 295 335 432 421 426 415 226 0
0 0 0 0 0 0 0 0 0 81 96 12 212 367 391 696 644 523 473 455 558 595 476 231 151 72 110 259 84 6 44 41 54 91 60 76 130 60 39 19 0 0 22 2 2 2 0 0 0
0 0 0 0 0 0 0 0 78 0 42 43 179 344 251 421 341 327 230 205 173 210 261 164 19 6 0 0 0 0 14 14 47 126 148 99 43 4 0 0 0 0 0 0 0 0 0 0 0
0 0 0 0 0 0 0 0 19 0 20 0 44 195 171 228 125 20 2 9 0 81 63 21 0 0 0 0 0 0 13 71 101 150 109 0 0 0 0 0 0 0 0 0 0 0 0 0 0
0 0 0 0 0 0 0 0 0 0 1 0 9 90 17 108 0 0 0 0 0 66 52 7 2 0 0 0 0 0 0 24 126 54 1 0 0 0 0 0 0 0 0 0 0 0 0 0 0
0 0 0 0 0 0 0 0 0 0 14 0 0 0 0 0 0 0 0 0 0 4 0 0 0 0 0 0 0 0 0 0 0 0 0 0 0 0 0 0 0 0 0 0 0 0 0 0 0
0 0 0 0 0 0 0 0 0 1 99 12 0 0 0 0 0 0 0 0 0 0 10 111 23 13 0 0 0 0 0 0 0 0 0 0 0 0 0 0 0 0 0 0 0 0 0 0 0
0 0 0 0 0 0 0 0 0 0 56 0 0 0 0 0 0 0 0 0 0 68 169 96 28 1 0 0 0 0 0 0 0 0 0 0 0 0 0 0 0 0 0 0 0 0 0 0 0
0 0 0 0 0 0 0 0 0 0 0 0 0 0 0 0 0 0 0 0 0 0 0 0 0 0 0 0 0 0 0 0 0 0 0 0 0 0 0 0 0 0 0 0 0 0 0 0 0
0 0 0 0 0 0 0 0 0 0 0 0 0 0 0 0 0 0 0 0 0 0 0 0 0 0 0 0 0 0 0 0 0 0 0 0 0 0 0 0 0 0 0 0 0 0 0 0 0
0 0 0 0 0 0 0 0 0 0 0 0 0 0 0 0 0 0 0 0 0 0 0 0 0 0 0 0 0 0 0 0 0 0 0 0 0 0 0 0 0 0 0 0 0 0 0 0 0
0 0 0 0 0 0 0 0 0 0 0 0 0 0 0 0 0 0 0 0 0 0 0 0 0 0 0 0 0 0 0 0 0 0 0 0 0 0 0 0 0 0 0 0 0 0 0 0 0
0 0 0 0 0 0 0 0 0 0 0 0 0 0 0 0 0 0 0 0 0 0 0 0 0 0 0 0 0 0 0 0 0 0 0 0 0 0 0 0 0 0 0 0 0 0 0 0 0
0 0 0 0 0 0 0 0 0 0 0 0 0 0 0 0 0 0 0 0 0 0 0 0 0 0 0 0 0 0 0 0 0 0 0 0 0 0 0 0 0 0 0 0 0 0 0 0 0
0 0 0 0 0 0 0 0 0 0 0 0 0 0 0 0 0 0 0 0 0 0 0 0 0 0 0 0 0 0 0 0 0 0 0 0 0 0 0 0 0 0 0 0 0 0 0 0 0
0 0 0 0 0 0 0 0 0 0 0 0 0 0 0 0 0 0 0 0 0 0 0 0 0 0 0 0 0 0 0 0 0 0 0 0 0 0 0 0 0 0 0 0 0 0 0 0 0
0 0 0 0 0 0 0 0 0 0 0 0 0 0 0 0 0 0 0 0 0 0 0 0 0 0 0 0 0 0 0 0 0 0 0 0 0 0 0 0 0 0 0 0 0 0 0 0 0
0 0 0 0 0 0 0 0 0 0 0 0 0 0 0 0 0 0 0 0 0 0 0 0 0 0 0 0 0 0 0 0 0 0 0 0 0 0 0 0 0 0 0 0 0 0 0 0 0
0 0 0 0 0 0 0 0 0 0 0 0 0 0 0 0 0 0 0 0 0 0 0 0 0 0 0 0 0 0 0 0 0 0 0 0 0 0 0 0 0 0 0 0 0 0 0 0 0
0 0 0 0 0 0 0 0 0 0 0 0 0 0 0 0 0 0 0 0 0 0 0 0 0 0 0 0 0 0 0 0 0 0 0 0 0 0 0 0 0 0 0 0 0 0 0 0 0
0 0 0 0 0 0 0 0 0 0 0 0 0 0 0 0 0 0 0 0 0 0 0 0 0 0 0 0 0 0 0 0 0 0 0 0 0 0 0 0 0 0 0 0 0 0 0 0 0

GFSSGP_con_sbcape_009.txt.gz
CAPE
0 0 0 0 0 0 0 0 0 31 80 67 153 183 186 182 130 185 370 501 753 1007 1014 819 677 898 948 925 1014 1058 1045 749 679 657 525 412 379 297 204 160 355 161 15 3 0 0 0 0 0
0 0 0 0 0 0 0 0 112 136 101 7 5 30 87 68 153 442 603 835 944 1100 1065 780 712 982 1055 1070 1188 1139 1037 785 776 682 489 396 259 137 127 116 226 30 0 0 0 0 0 0 0
0 0 0 0 0 0 0 51 113 67 26 0 0 3 65 69 193 562 782 1038 1182 1198 1070 837 834 992 1191 1281 1252 1200 1138 1097 1039 731 480 359 201 41 40 22 73 0 0 0 0 0 0 0 0
0 0 0 0 0 0 0 140 161 55 15 7 4 35 93 305 632 483 1177 1222 1170 1058 925 735 823 1054 1337 1402 1378 1309 1195 1118 1023 811 524 342 161 40 0 0 0 0 0 0 0 0 0 0 0
0 0 0 0 0 0 0 159 149 114 7 17 0 22 177 756 938 1183 1193 1177 1123 1075 1088 1032 956 983 1316 1529 1539 1307 1129 988 955 830 669 358 191 36 0 0 0 0 0 0 0 0 0 0 0
0 0 0 0 0 0 1 88 87 83 78 31 94 148 390 1105 1295 1247 1165 1163 1012 1124 1231 1308 1031 1020 1339 1463 1308 1019 888 887 841 784 602 353 222 49 0 0 0 0 0 1 0 0 0 0 0
0 0 0 0 0 0 77 120 62 73 112 107 71 312 802 1080 1200 1230 1094 1224 1275 1236 1236 1401 1462 1372 1120 1060 982 878 778 823 776 709 588 391 221 88 38 35 46 14 11 124 114 62 83 28 65
0 0 0 0 26 17 0 63 82 52 81 39 263 628 888 682 1397 1271 1218 1277 1190 1420 1324 1521 1470 1323 1252 1193 910 838 743 706 689 594 452 206 146 70 112 39 50 157 175 161 184 250 242 182 103
0 0 0 0 18 3 3 69 0 45 124 21 5 689 885 1241 1434 1139 950 936 1085 1062 1155 1028 870 848 1133 1236 1000 758 686 634 605 506 372 159 153 177 162 101 134 274 200 292 380 363 322 249 64
0 0 0 0 0 1 0 0 80 113 122 23 526 1123 1365 1127 1139 973 951 940 1074 1096 854 837 780 768 875 860 835 734 559 428 420 395 494 415 410 387 292 259 125 131 148 293 213 199 213 133 133
0 0 0 0 0 33 5 0 26 179 172 77 865 863 823 1010 853 735 736 857 884 869 725 696 708 690 981 748 611 485 385 315 327 436 445 562 535 673 619 481 311 258 38 32 2 22 64 87 23
0 0 0 0 0 0 2 2 169 124 48 81 989 1386 1086 928 738 807 788 727 734 830 858 925 893 731 538 405 367 170 177 208 343 488 631 707 705 553 177 108 2 0 0 0 0 0 0 0 0
0 0 0 0 0 0 0 31 166 0 38 358 1058 1289 1501 1495 1199 766 506 443 500 554 683 692 398 317 212 122 56 34 102 213 396 598 622 670 433 189 28 3 0 0 0 0 0 0 0 0 0
0 0 0 0 0 0 0 0 0 0 14 541 1038 1199 1034 831 521 245 127 126 259 365 535 364 163 36 12 8 54 99 73 29 40 61 0 8 37 56 4 0 0 0 0 0 0 0 0 0 0
0 0 0 0 0 0 0 0 0 0 3 263 703 331 253 120 71 155 8 2 40 253 322 267 31 9 13 25 35 2 9 0 0 0 0 0 0 0 0 0 0 0 0 0 0 0 0 0 0
0 0 0 0 0 0 0 0 0 0 17 22 40 41 18 0 0 0 0 0 0 151 341 308 132 87 51 40 1 0 0 0 0 0 0 0 0 0 0 0 0 0 0 0 0 0 0 0 0
0 0 0 0 0 0 0 0 0 0 6 0 0 0 0 0 0 0 0 0 28 441 470 437 401 136 5 1 0 0 0 0 0 0 0 0 0 0 0 0 0 0 0 0 0 0 0 0 0
0 0 0 0 0 0 0 0 0 0 0 0 0 0 0 0 0 0 0 0 167 242 170 63 46 12 2 0 0 0 0 0 0 0 0 0 0 0 0 0 0 0 0 0 0 0 0 0 0
0 0 0 0 0 0 0 0 0 0 0 0 0 0 0 0 0 0 0 0 0 5 1 0 0 0 0 0 0 0 0 0 0 0 0 0 0 0 0 0 0 0 0 0 0 0 0 0 0
0 0 0 0 0 0 0 0 0 0 0 0 0 0 0 0 0 0 0 0 3 5 0 0 0 0 0 0 0 0 0 0 0 0 0 0 0 0 0 0 0 0 0 0 0 0 0 0 0
0 0 0 0 0 0 0 0 0 0 0 0 0 0 0 0 0 0 0 0 0 0 0 0 0 0 0 0 0 0 0 0 0 0 0 0 0 0 0 0 0 0 0 0 0 0 0 0 0
0 0 0 0 0 6 0 2 0 0 0 0 0 0 0 0 0 0 0 0 0 0 0 0 0 0 0 0 0 0 0 0 0 0 0 0 0 0 0 0 0 0 0 0 0 0 0 0 0
0 0 0 0 0 0 0 0 0 0 0 0 0 0 0 0 0 0 0 0 0 0 0 0 0 0 0 0 0 0 0 0 0 0 0 0 0 0 0 0 0 0 0 0 0 0 0 0 0
0 0 0 0 0 0 0 0 0 0 0 0 0 0 0 0 0 0 0 0 0 0 0 0 0 0 0 0 0 0 0 0 0 0 0 0 0 0 0 0 0 0 0 0 0 0 0 0 0
0 0 3 2 0 0 0 0 0 0 0 0 0 0 0 0 0 0 0 0 0 0 0 0 0 0 0 0 0 0 0 0 0 0 0 0 0 0 0 0 0 0 0 0 0 0 0 0 0
0 0 17 0 0 0 0 0 0 0 0 0 0 0 0 0 0 0 0 0 0 0 0 0 0 0 0 0 0 0 0 0 0 0 0 0 0 0 0 0 0 0 0 0 0 0 0 0 0
0 0 0 0 0 0 0 0 0 0 0 0 0 0 0 0 0 0 0 0 0 0 0 0 0 0 0 0 0 0 0 0 0 0 0 0 0 0 0 0 0 0 0 0 0 0 4 4 16
0 0 0 0 0 0 0 0 0 0 0 0 0 0 0 0 0 0 0 0 0 0 0 0 0 0 0 0 0 0 0 0 0 0 0 0 0 0 0 0 0 0 4 0 0 2 12 7 22
0 0 0 0 0 0 0 0 0 0 0 0 0 0 0 0 0 0 0 0 0 0 0 0 0 0 0 0 0 0 0 0 0 0 0 0 0 0 0 4 2 20 7 2 5 5 0 0 15
0 0 0 0 0 0 0 0 0 0 0 0 0 0 0 0 0 0 0 0 0 0 0 0 0 0 0 0 0 0 0 0 0 0 0 0 0 0 0 0 2 13 10 12 0 0 0 0 0

GFSSGP_con_sbcape_012.txt.gz
CAPE
0 0 0 0 0 0 0 0 12 516 453 442 469 413 247 216 485 335 578 677 885 1028 863 538 784 921 913 944 1051 1076 1094 822 689 555 422 323 226 134 147 108 194 11 0 0 0 0 0 0 0
0 0 0 0 0 0 1 0 4 558 180 14 4 42 76 22 329 705 678 938 1001 1060 951 736 705 943 1026 1155 1181 1198 1071 847 736 514 368 231 137 103 74 10 115 2 0 0 0 0 0 0 0
0 0 0 0 0 0 0 0 432 295 87 16 0 10 22 8 143 429 752 1062 1199 1218 936 1028 791 811 968 1105 1063 1254 1241 1178 855 607 345 219 69 43 11 0 0 0 0 0 0 0 0 0 0
0 0 0 0 0 0 1 319 409 296 146 82 0 0 4 1 208 491 966 1002 1039 1067 1190 647 683 774 949 1104 1175 1423 1308 1104 910 760 405 217 80 2 0 0 0 0 0 0 0 0 0 0 0
0 0 0 0 0 0 0 500 469 321 119 110 68 22 43 334 690 902 979 822 634 1154 1332 969 735 666 995 1241 1540 1399 1199 1024 906 761 478 258 41 0 0 0 0 0 0 0 0 0 0 0 0
0 0 0 1 3 0 0 422 638 180 30 135 183 230 330 1222 1179 1162 1149 1232 964 1135 1219 1139 691 835 983 1403 1368 1059 954 958 909 671 444 248 39 1 0 0 0 0 0 0 0 0 1 0 0
0 0 0 0 28 73 72 531 384 13 170 174 385 511 1165 1277 1308 1253 1272 1143 1253 1408 1500 1262 1083 830 1093 1146 933 791 819 835 770 664 501 249 98 69 52 47 34 3 1 26 49 48 92 92 66
0 0 0 30 151 485 495 81 4 7 158 485 719 691 1298 1456 1404 1390 1333 1465 1564 1456 1389 1348 1196 1321 1287 1269 843 750 723 696 670 523 355 190 105 104 104 25 109 116 104 98 131 171 195 175 180
0 0 2 142 355 173 136 41 54 73 251 550 312 906 1225 1513 1519 1526 1312 1428 1459 1355 1340 1341 1302 1244 1133 1017 1078 720 702 625 516 436 224 118 151 173 144 89 166 264 268 284 345 325 310 199 212
0 0 3 98 265 93 12 15 100 230 484 274 1167 1460 1771 1844 1801 1595 1575 1351 1306 1336 1187 1217 1105 1030 1154 775 737 580 284 213 251 466 500 381 663 617 413 238 176 119 96 166 19 8 66 70 0
0 0 0 149 64 12 1 33 74 367 596 421 1203 1700 1576 1633 1513 1373 1030 1501 1291 1080 976 1030 1015 999 1067 699 485 220 185 262 558 785 859 821 999 939 665 311 191 195 0 63 1 1 0 1 0
0 0 0 47 133 120 47 49 370 450 182 358 1426 1839 1605 1480 1431 1408 1090 631 694 935 944 876 894 1069 822 482 194 225 282 471 699 931 1080 1034 963 965 565 276 170 176 80 22 0 0 0 0 0
0 0 0 0 0 74 57 265 366 63 479 1151 1463 1668 1690 1323 1064 636 511 529 555 525 748 932 866 749 684 388 316 404 621 852 984 1047 903 666 661 706 624 311 119 12 0 0 0 0 0 0 0
0 0 0 0 0 0 79 90 126 31 693 1137 1505 1453 1583 1359 897 568 414 367 411 466 862 961 720 597 431 356 504 638 314 132 205 252 117 35 12 114 411 69 0 0 0 0 0 0 0 0 0
0 0 0 0 0 0 4 0 0 24 386 1127 1131 1317 1427 1184 830 394 292 228 244 582 948 937 743 512 554 518 61 6 2 7 36 78 77 0 0 0 0 0 0 0 0 0 0 0 0 0 0
0 0 0 0 0 0 0 0 0 85 345 1024 1086 1082 924 516 379 269 299 259 193 491 984 976 712 640 603 31 0 9 21 4 0 0 0 0 0 0 0 0 0 0 0 0 0 0 0 0 0
0 0 0 0 0 0 0 0 0 222 384 516 761 821 676 383 299 362 384 291 312 678 1153 1105 947 895 551 0 1 0 2 0 0 0 0 0 0 0 0 0 0 0 0 0 0 0 0 0 0
0 0 0 0 0 0 0 10 0 282 421 426 480 539 522 458 300 295 450 611 825 948 1154 1247 809 600 517 200 0 0 0 0 0 0 0 0 0 0 0 0 0 0 0 0 0 0 0 0 0
0 0 0 0 4 64 36 27 13 128 431 526 496 502 484 447 231 447 622 807 948 1028 1066 1157 829 704 581 196 17 0 0 0 0 0 0 0 0 0 0 0 0 0 0 0 0 0 0 0 0
0 0 21 0 0 107 114 147 29 12 198 431 551 585 560 366 409 490 811 997 1113 1129 1077 911 767 624 381 66 0 4 8 0 0 0 0 0 0 0 0 0 0 0 0 0 0 0 0 0 11
20 52 87 56 18 73 150 183 142 34 13 17 166 327 362 434 511 720 779 760 667 630 575 270 62 4 0 0 0 0 0 0 0 0 0 0 0 0 0 0 0 0 0 0 1 0 1 6 5
134 7 23 61 62 89 65 176 239 164 143 163 144 281 325 445 394 120 23 63 4 0 0 0 0 0 0 0 0 0 0 0 0 0 0 0 0 0 0 0 0 0 0 0 3 1 0 0 0
117 11 114 67 139 121 73 158 316 182 211 260 222 241 162 22 0 0 0 0 0 0 0 0 0 0 0 0 0 0 0 0 0 0 0 0 0 0 0 0 0 0 0 1 1 0 0 2 6
3 52 51 56 107 144 108 116 177 302 269 261 205 8 1 0 0 0 0 0 0 0 0 0 0 0 0 0 0 0 0 0 0 0 0 0 0 0 0 0 0 6 7 10 2 0 2 1 0
65 127 157 100 150 164 14 47 99 91 50 272 205 0 0 0 0 0 0 0 0 0 0 0 0 0 0 0 0 0 0 0 0 0 0 0 0 0 0 0 0 5 17 5 11 4 11 6 3
126 130 83 20 122 54 1 25 32 0 0 109 110 0 0 0 0 0 0 0 0 0 0 0 0 0 0 0 0 0 0 0 0 0 0 0 0 0 0 0 0 11 26 8 1 42 32 18 19
0 30 23 53 1 47 15 41 6 0 0 0 20 0 0 0 0 0 0 0 0 0 0 0 0 0 0 0 0 0 0 0 0 0 0 0 0 0 0 6 20 29 21 27 49 44 29 24 14
0 0 8 13 2 0 0 0 0 0 0 0 1 0 0 0 0 0 0 0 0 0 0 0 0 0 0 0 0 0 0 0 0 0 0 0 0 0 0 11 38 54 32 40 38 44 29 16 23
0 0 0 0 0 0 0 0 0 0 0 0 0 0 0 0 0 0 0 0 0 0 0 0 0 0 0 0 0 0 0 0 0 0 0 0 0 0 0 3 30 38 47 30 59 71 20 22 32
0 0 0 0 0 0 0 0 0 0 0 0 0 0 0 0 0 0 0 0 0 0 0 0 0 0 0 0 0 0 0 0 0 0 0 0 0 0 0 2 21 43 54 61 58 47 18 25 33

GFSSGP_con_sbcape_018.txt.gz
CAPE
0 0 0 0 0 0 0 0 0 383 839 570 448 439 668 797 952 579 719 710 207 117 192 335 690 752 809 966 1127 1055 989 779 504 288 305 223 126 93 165 198 86 12 0 0 0 0 0 0 0
0 0 0 0 0 0 0 5 312 888 728 399 401 320 388 730 894 704 908 785 428 112 122 316 711 778 945 1139 1185 1069 907 587 440 297 175 206 59 8 23 104 62 34 0 0 0 0 0 0 0
0 0 0 0 0 0 0 21 305 705 439 309 100 115 7 457 834 659 967 901 678 183 199 491 604 540 763 874 710 961 847 610 454 326 155 25 0 0 0 158 125 24 0 0 0 0 0 0 44
0 0 0 0 0 0 0 189 715 481 111 212 86 5 0 22 484 777 882 847 794 575 381 406 386 317 633 751 1057 930 778 595 452 340 233 0 0 0 9 182 136 0 0 0 0 0 11 125 106
0 0 0 0 0 0 1 435 531 153 4 80 57 0 0 43 382 902 675 882 742 139 160 281 260 424 678 1053 1104 888 778 596 486 371 172 39 0 0 56 183 152 29 21 5 0 32 119 148 124
0 0 0 0 0 1 102 354 254 35 10 145 7 0 90 138 436 626 716 710 489 284 361 198 223 519 739 929 845 720 638 574 493 353 154 110 142 146 198 202 212 209 212 220 165 219 219 233 152
0 0 0 0 0 5 549 416 201 79 216 46 29 26 106 373 924 116 19 99 41 300 278 225 403 635 582 536 476 496 525 513 481 348 213 225 225 213 250 290 280 284 290 312 332 366 357 357 313
0 0 0 0 0 321 237 59 25 4 4 24 0 0 472 747 397 0 1 0 5 103 142 278 290 870 614 446 374 377 422 393 361 234 112 101 125 116 141 238 328 293 228 249 279 276 282 362 317
0 0 0 2 123 17 11 66 44 178 78 0 45 334 1012 1261 648 10 3 16 105 9 254 566 782 751 713 485 416 432 461 374 328 122 61 4 52 69 99 167 193 161 100 125 200 86 94 177 175
0 0 0 277 256 6 0 28 23 33 275 375 39 23 1229 1238 955 759 590 146 113 86 511 621 714 789 704 375 353 164 99 38 220 193 35 336 466 132 18 158 194 274 176 163 224 192 189 174 4
0 0 1 129 61 27 52 67 4 0 19 178 471 965 1096 945 1046 687 608 576 574 667 687 809 908 760 416 316 376 60 234 471 649 636 745 748 714 705 412 598 167 277 216 219 111 130 94 50 30
0 0 0 3 109 116 170 35 2 0 0 0 82 770 1172 1091 1001 897 586 816 881 930 897 859 807 1160 377 310 250 338 515 709 808 870 621 936 926 877 596 403 245 203 79 132 71 36 4 0 0
0 0 0 104 4 54 54 22 33 0 0 0 2 227 909 934 411 205 190 318 634 762 871 780 1004 713 540 428 760 660 496 359 500 483 572 531 517 368 143 77 37 120 2 6 0 0 0 0 0
0 0 0 12 45 92 25 13 35 0 1 4 321 477 542 398 124 188 156 266 260 567 553 591 581 563 618 856 600 272 86 32 58 163 385 415 516 270 36 43 2 0 0 0 0 0 0 0 0
0 0 0 3 0 109 26 105 56 43 65 474 229 291 189 168 127 126 244 235 234 511 574 653 612 558 666 669 346 35 3 14 8 38 49 45 57 6 0 0 0 0 0 0 0 0 0 0 0
0 0 0 0 3 33 64 10 31 213 143 169 175 157 153 134 101 152 215 258 329 569 591 642 508 595 839 408 130 104 47 22 0 0 0 0 0 0 0 0 0 0 0 0 0 0 0 0 0
0 0 0 0 0 27 9 0 14 153 96 130 310 206 361 266 176 212 196 194 456 941 932 714 914 895 539 292 201 248 201 54 0 0 0 0 0 0 0 0 0 0 0 0 0 0 0 0 0
0 0 0 1 0 6 0 1 21 70 84 322 351 418 502 453 421 455 379 360 282 1264 1311 1007 1100 811 480 314 339 474 281 31 0 0 0 0 0 0 0 0 0 0 0 0 0 0 0 0 0
0 0 4 3 0 0 4 1 20 54 160 312 425 522 521 532 566 730 878 878 737 1504 1464 1133 683 521 517 436 427 350 19 0 0 0 0 0 0 0 0 0 0 0 0 0 0 0 0 0 0
0 4 2 0 0 0 1 22 0 45 79 222 307 477 598 622 774 848 1075 1290 1442 1590 1512 992 747 508 706 774 250 4 1 0 0 0 0 0 0 0 0 0 0 0 0 0 0 0 0 0 0
0 23 14 7 0 0 28 16 0 6 98 145 206 302 416 678 779 980 1194 1421 1643 1089 1279 809 819 824 976 222 11 9 0 0 0 0 0 0 0 0 0 0 0 0 0 0 0 0 0 0 0
7 22 9 4 34 27 28 49 91 7 13 63 223 310 376 608 788 1023 1267 1373 1179 942 1149 1045 929 593 38 11 0 0 0 0 0 0 0 0 0 0 0 0 0 0 0 0 0 0 0 0 0
15 6 27 46 29 78 0 53 48 89 56 110 298 465 551 762 847 1042 1278 1304 1184 1081 850 327 14 0 0 0 0 0 0 0 0 0 0 0 0 0 0 0 0 0 0 0 0 0 1 0 1
78 85 115 4 52 133 22 2 111 9 11 145 181 331 506 607 866 945 830 577 286 166 25 0 0 0 0 0 0 0 0 0 0 0 0 0 0 0 0 0 0 0 0 0 0 0 0 0 0
2 1 68 62 75 258 118 53 222 48 52 236 235 336 537 773 674 402 126 14 10 0 0 0 0 0 0 0 0 0 0 0 0 0 0 0 0 0 0 0 0 0 0 0 0 0 0 0 0
129 0 178 0 0 166 18 68 68 221 181 66 326 454 581 506 254 39 0 0 0 0 0 0 0 0 0 0 0 0 0 0 0 0 0 0 0 0 0 0 0 0 0 0 0 0 2 4 4
0 92 63 21 44 250 3 0 107 84 47 5 452 443 429 295 43 0 0 0 0 0 0 0 0 0 0 0 0 0 0 0 0 0 0 0 0 0 0 0 0 0 0 4 8 0 11 29 16
5 0 148 64 9 3 3 1 128 105 33 18 280 422 353 240 11 0 0 0 0 0 0 0 0 0 0 0 0 0 0 0 0 0 0 0 0 0 0 0 0 0 0 16 27 18 27 8 12
29 1 0 0 410 464 210 6 1 0 0 33 94 479 319 165 4 0 0 0 0 0 0 0 0 0 0 0 0 0 0 0 0 0 0 0 0 0 0 0 0 0 0 3 1 0 8 14 21
1 115 0 607 31 415 320 5 0 0 0 0 9 185 285 141 16 0 0 0 0 0 0 0 0 0 0 0 0 0 0 0 0 0 0 0 0 0 0 0 0 1 4 11 7 15 23 38 22

GFSSGP_con_sbcape_021.txt.gz
CAPE
0 0 0 0 0 0 0 0 87 660 521 402 444 851 902 979 1043 479 491 189 181 348 563 590 680 775 899 1035 1061 890 754 413 293 264 283 176 67 0 51 81 41 3 0 0 0 0 0 0 0
0 0 0 0 0 0 0 0 746 743 545 242 99 378 625 937 935 835 504 213 79 286 291 439 735 778 1023 1001 936 728 490 322 309 231 142 154 0 0 17 156 98 39 0 0 0 0 0 0 0
0 0 0 0 0 0 0 13 709 456 115 123 43 1 249 887 873 849 351 142 74 187 345 578 611 696 961 950 842 620 479 365 288 197 131 23 4 30 41 158 102 23 0 0 0 0 0 0 61
0 0 0 0 0 0 0 162 538 336 101 90 36 0 0 213 764 980 444 76 106 344 442 261 313 432 796 965 825 639 432 321 235 155 133 26 41 56 80 185 135 0 0 0 0 0 0 99 97
0 0 0 0 0 0 52 411 348 54 19 155 49 0 2 373 804 663 455 274 377 264 174 114 194 320 672 951 790 577 417 324 212 165 157 147 76 37 116 269 178 27 29 16 21 35 150 176 137
0 0 0 0 0 92 435 131 57 50 94 205 144 108 121 559 521 461 317 191 24 33 34 128 414 198 684 689 560 424 371 305 179 211 203 202 263 289 305 331 335 227 206 233 202 174 108 164 212
0 0 0 0 0 131 416 329 187 104 240 234 108 2 69 55 80 128 150 25 3 0 1 116 212 446 462 374 341 308 334 270 178 196 223 215 224 289 359 364 358 315 240 176 146 85 46 105 159
0 0 0 0 0 108 198 193 196 66 49 7 0 0 93 170 1 2 0 1 7 7 0 23 285 222 289 204 231 192 181 149 113 125 115 97 173 260 298 277 292 197 68 23 24 22 50 71 66
0 0 0 0 297 76 19 205 346 5 0 0 1 298 134 9 0 2 1 2 25 0 1 1 224 246 234 121 151 165 222 132 68 61 37 21 0 1 71 52 138 79 0 0 19 45 40 61 5
0 0 0 166 291 77 3 14 18 9 13 0 0 60 91 28 2 6 3 28 66 0 7 101 224 338 215 129 70 56 106 32 0 0 0 0 0 0 0 23 102 45 27 25 38 86 114 74 0
0 0 84 133 30 14 0 44 0 0 68 2 2 104 199 82 0 0 24 43 30 78 182 284 379 462 227 87 15 15 3 13 115 90 62 101 119 31 37 15 23 18 20 2 26 3 0 0 0
0 0 42 85 53 25 60 21 0 0 66 0 0 170 358 237 62 2 5 36 27 243 356 490 569 440 122 177 25 17 188 284 397 162 138 140 36 0 0 0 0 0 0 0 0 0 0 0 0
0 0 89 19 26 4 31 9 0 0 0 5 77 101 597 528 384 103 112 175 531 588 538 469 505 67 15 110 247 213 174 96 18 62 37 7 8 4 0 0 0 0 0 0 0 0 0 0 0
0 0 136 86 2 0 0 1 1 0 0 28 87 498 655 76 46 637 525 526 501 473 498 492 365 42 246 148 27 0 0 0 0 8 2 9 2 0 0 0 0 0 0 0 0 0 0 0 0
0 0 0 11 26 38 0 0 0 3 5 174 335 578 552 25 3 69 411 409 395 425 416 364 70 226 204 0 0 0 0 0 0 0 0 0 0 0 0 0 0 0 0 0 0 0 0 0 0
0 0 0 0 1 1 0 23 0 1 11 239 114 143 131 23 0 24 15 283 168 220 253 214 223 300 60 0 0 0 0 0 0 0 0 0 0 0 0 0 0 0 0 0 0 0 0 0 0
0 0 0 0 1 0 0 0 88 14 69 105 6 6 0 0 3 11 0 117 229 217 252 182 220 239 14 0 0 0 0 0 0 0 0 0 0 0 0 0 0 0 0 0 0 0 0 0 0
0 0 0 0 0 0 1 0 50 63 58 143 69 44 29 1 9 0 0 1 267 238 242 218 300 65 12 0 2 10 0 0 0 0 0 0 0 0 0 0 0 0 0 0 0 0 0 0 0
0 0 0 0 0 0 0 0 1 0 0 0 18 61 89 154 117 65 52 0 525 385 305 409 188 68 17 0 23 13 0 0 0 0 0 0 0 0 0 0 0 0 0 0 0 0 0 0 0
0 0 0 0 0 0 0 0 0 24 4 0 21 74 259 108 257 330 393 391 901 643 413 384 319 188 93 25 103 0 0 0 0 0 0 0 0 0 0 0 0 0 0 0 0 0 0 0 0
8 2 0 0 0 0 0 0 0 0 5 84 24 0 0 177 431 535 677 583 791 588 465 317 224 232 185 149 0 0 0 0 0 0 0 0 0 0 0 0 0 0 0 0 0 0 0 0 0
0 0 0 1 0 0 0 7 10 17 8 13 37 61 185 433 477 631 807 684 715 462 287 354 296 283 368 14 0 0 0 0 0 0 0 0 0 0 0 0 0 0 0 0 0 0 0 0 0
4 0 0 7 0 0 0 4 8 0 0 2 0 13 8 360 445 584 759 778 648 602 442 308 323 97 0 0 0 0 0 0 0 0 0 0 0 0 0 0 0 0 0 0 0 0 0 0 0
36 16 14 1 0 2 17 0 2 2 0 0 1 136 213 210 353 497 711 759 677 251 58 0 0 0 0 0 0 0 0 0 0 0 0 0 0 0 0 0 0 0 0 0 0 0 0 0 0
8 0 0 0 0 1 13 0 0 0 0 0 14 59 75 344 375 308 146 2 0 0 0 0 0 0 0 0 0 0 0 0 0 0 0 0 0 0 0 0 0 0 0 0 0 0 0 0 0
0 0 0 1 0 1 4 9 17 0 2 0 44 0 124 260 130 7 0 0 0 0 0 0 0 0 0 0 0 0 0 0 0 0 0 0 0 0 0 0 0 0 0 0 0 0 0 0 0
7 18 6 1 0 1 35 18 1 0 0 26 0 0 250 172 0 0 0 0 0 0 0 0 0 0 0 0 0 0 0 0 0 0 0 0 0 0 0 0 0 0 0 0 0 0 0 0 0
23 0 45 3 0 4 0 0 10 8 3 3 0 9 136 4 0 0 0 0 0 0 0 0 0 0 0 0 0 0 0 0 0 0 0 0 0 0 0 0 0 0 0 0 0 0 0 0 0
0 0 0 0 0 0 8 0 0 0 0 0 1 66 85 3 0 0 0 0 0 0 0 0 0 0 0 0 0 0 0 0 0 0 0 0 0 0 0 0 0 0 0 0 0 0 0 0 0
0 14 20 0 0 0 0 0 0 0 0 0 0 65 26 0 0 0 0 0 0 0 0 0 0 0 0 0 0 0 0 0 0 0 0 0 0 0 0 0 0 0 0 0 0 0 0 0 0

GFSSGP_con_sbcape_024.txt.gz
CAPE
0 0 0 0 0 0 0 0 0 69 492 440 852 953 967 925 957 262 439 326 547 627 735 615 621 763 972 998 895 648 472 326 167 136 133 90 19 18 87 46 58 59 0 0 0 0 0 0 0
0 0 0 0 0 0 0 0 168 533 360 68 56 659 904 1014 997 678 504 442 547 643 583 459 647 864 1031 942 761 479 283 195 203 132 11 46 10 24 79 143 131 148 13 0 0 0 0 0 14
0 0 0 0 0 0 0 0 557 266 148 115 37 7 626 1168 1023 893 384 369 353 425 382 505 699 920 1047 844 613 422 343 250 200 130 42 31 39 43 74 208 194 162 16 0 0 0 0 20 94
0 0 0 0 0 0 0 0 302 228 190 146 2 8 102 604 1018 466 266 266 280 260 323 481 758 906 900 777 548 445 280 183 148 107 195 115 83 94 162 272 276 33 19 4 0 0 3 85 136
0 0 0 0 0 144 327 126 233 131 119 228 4 29 351 587 436 330 275 187 275 250 207 260 505 582 714 683 564 411 302 182 138 139 218 232 183 144 259 323 267 133 42 23 0 10 151 112 199
0 0 0 0 0 485 488 214 107 188 140 185 155 254 540 388 512 460 261 192 191 164 119 162 320 253 405 563 481 363 240 166 144 170 249 283 294 307 343 366 346 307 226 157 78 48 78 101 155
0 0 0 0 0 0 534 225 192 190 151 169 36 27 356 318 375 99 2 2 20 9 39 9 29 96 226 328 301 282 184 148 158 193 215 238 243 283 351 345 341 252 142 28 0 17 39 48 68
0 0 0 0 0 16 95 154 38 94 169 0 0 0 81 144 78 5 4 0 0 8 28 39 116 127 124 170 185 185 129 125 167 176 176 155 222 290 273 225 216 114 9 0 0 28 0 0 85
0 0 0 0 267 88 33 195 212 0 0 0 5 416 28 13 0 1 9 5 4 4 1 119 74 154 132 69 87 135 119 108 108 120 94 29 2 1 16 7 57 13 0 0 1 26 39 44 0
0 0 0 26 139 18 0 0 0 2 0 0 11 69 19 0 0 5 8 5 4 4 2 33 122 107 75 48 53 43 42 9 0 0 3 0 0 0 3 27 19 6 10 40 33 95 0 0 0
0 0 27 117 80 2 0 0 0 32 123 1 139 12 17 13 6 7 54 10 0 4 0 0 113 107 34 18 4 6 4 0 0 0 0 2 1 1 0 0 0 0 0 0 0 0 0 0 0
0 0 52 101 76 29 34 1 0 0 89 0 300 65 19 9 6 14 32 38 2 17 3 36 179 127 20 0 0 0 0 73 33 30 37 7 1 0 0 0 0 0 0 0 0 0 0 0 0
0 2 40 50 62 47 49 2 0 1 0 2 312 126 10 18 29 0 0 0 14 64 151 199 233 249 5 7 2 13 128 12 0 0 0 0 0 0 0 0 0 0 0 0 0 0 0 0 0
0 58 13 16 35 18 3 0 0 0 1 23 266 266 27 16 26 0 0 20 90 269 320 334 382 13 2 55 0 0 0 0 0 0 0 0 0 0 0 0 0 0 0 0 0 0 0 0 0
0 30 91 40 22 8 0 19 22 0 0 40 113 420 443 124 51 8 60 197 535 462 442 400 2 56 44 0 0 0 0 0 0 0 0 0 0 0 0 0 0 0 0 0 0 0 0 0 0
0 0 9 52 37 23 0 15 5 2 103 167 340 391 91 499 208 233 272 532 465 416 361 202 189 4 0 0 0 0 0 0 0 0 0 0 0 0 0 0 0 0 0 0 0 0 0 0 0
0 0 0 7 12 15 0 1 0 13 121 243 78 117 38 415 541 610 526 481 372 348 355 64 136 0 0 0 0 0 0 0 0 0 0 0 0 0 0 0 0 0 0 0 0 0 0 0 0
0 0 0 0 0 2 0 0 26 70 185 106 31 1 0 29 99 517 613 507 317 247 305 50 142 0 0 0 0 0 0 0 0 0 0 0 0 0 0 0 0 0 0 0 0 0 0 0 0
0 0 0 0 0 0 0 20 94 94 139 83 25 60 3 0 0 76 547 354 200 162 159 178 45 0 0 0 0 0 0 0 0 0 0 0 0 0 0 0 0 0 0 0 0 0 0 0 0
0 0 0 0 0 0 0 33 81 60 40 35 47 64 53 5 0 0 59 307 283 243 203 226 118 1 0 0 1 0 0 0 0 0 0 0 0 0 0 0 0 0 0 0 0 0 0 0 0
0 0 0 0 0 0 0 0 48 7 0 0 39 48 74 34 17 43 73 336 300 240 281 167 88 17 0 0 0 0 0 0 0 0 0 0 0 0 0 0 0 0 0 0 0 0 0 0 0
0 0 0 0 0 0 0 0 0 0 0 0 7 56 41 29 113 170 249 476 371 289 183 206 145 67 2 0 0 0 0 0 0 0 0 0 0 0 0 0 0 0 0 0 0 0 0 0 0
0 0 0 1 0 0 0 0 0 0 0 0 39 39 0 0 190 292 581 646 515 234 208 144 60 45 93 0 0 0 0 0 0 0 0 0 0 0 0 0 0 0 0 0 0 0 0 0 0
0 0 0 0 0 0 0 0 0 0 0 0 0 52 0 0 222 402 593 672 417 345 271 15 80 1 0 0 0 0 0 0 0 0 0 0 0 0 0 0 0 0 0 0 0 0 0 0 0
8 0 0 0 0 0 0 0 0 0 0 0 0 0 0 49 232 583 524 586 418 232 72 5 0 0 0 0 0 0 0 0 0 0 0 0 0 0 0 0 0 0 0 0 0 0 0 0 0
0 0 0 0 0 1 0 0 0 0 0 0 0 0 4 65 378 522 208 2 0 0 0 0 0 0 0 0 0 0 0 0 0 0 0 0 0 0 0 0 0 0 0 0 0 0 0 0 0
0 0 0 0 0 0 0 0 0 0 0 0 0 10 189 116 126 20 0 0 0 0 0 0 0 0 0 0 0 0 0 0 0 0 0 0 0 0 0 0 0 0 0 0 0 0 0 0 0
0 0 23 6 3 2 0 0 0 0 1 0 0 0 147 0 0 0 0 0 0 0 0 0 0 0 0 0 0 0 0 0 0 0 0 0 0 0 0 0 0 0 0 0 0 0 0 0 0
0 0 0 0 0 0 1 0 0 0 0 0 0 0 13 1 0 0 0 0 0 0 0 0 0 0 0 0 0 0 0 0 0 0 0 0 0 0 0 0 0 0 0 0 0 0 0 0 0
0 0 0 0 0 0 0 0 0 0 0 0 0 0 0 0 0 0 0 0 0 0 0 0 0 0 0 0 0 0 0 0 0 0 0 0 0 0 0 0 0 0 0 0 0 0 0 0 0

GFSSGP_con_sbcape_027.txt.gz
CAPE
0 0 0 0 0 0 0 0 0 0 529 795 863 939 956 891 744 251 431 265 760 849 855 664 680 815 849 753 591 493 370 121 39 50 80 45 58 16 119 95 92 91 15 0 0 0 0 0 32
0 0 0 0 0 0 0 0 0 156 226 195 79 756 951 1014 915 793 668 693 846 915 678 486 700 805 852 671 530 387 208 92 70 45 47 51 58 35 146 178 159 155 74 0 0 0 0 0 16
0 0 0 0 0 0 0 0 562 312 161 56 7 100 778 1239 897 821 707 757 713 677 467 498 739 787 789 536 371 298 281 208 165 136 62 62 103 48 86 229 229 197 33 18 12 0 0 42 53
0 0 0 0 0 0 0 0 331 336 206 120 0 51 583 692 981 704 644 724 634 462 453 597 740 757 675 538 467 366 260 172 152 220 277 210 134 74 166 263 235 130 36 30 11 7 73 169 70
0 0 0 0 0 3 380 172 238 295 238 92 12 568 748 878 553 625 493 493 441 377 339 560 601 645 618 539 425 308 257 202 232 316 319 339 311 199 341 265 271 226 76 31 27 123 193 172 121
0 0 0 0 0 32 448 264 197 260 251 230 375 512 572 871 401 100 86 248 142 175 247 419 507 392 391 405 350 264 232 235 316 333 338 383 369 343 332 323 334 287 241 188 147 69 106 166 144
0 0 0 0 0 0 498 239 245 221 239 146 34 294 510 431 98 13 2 0 0 13 27 132 60 246 305 214 191 192 230 254 326 314 324 327 317 307 327 327 309 225 134 106 84 80 97 284 162
0 0 0 0 0 33 104 217 66 107 41 0 0 280 383 229 20 6 3 2 4 19 6 8 19 56 158 152 203 196 173 200 274 291 247 232 259 316 296 252 222 96 20 61 97 74 109 42 149
0 0 0 0 0 106 88 130 92 0 0 148 226 285 299 231 3 3 0 6 5 3 2 46 54 200 153 114 161 152 174 175 213 193 145 77 23 7 4 37 37 5 0 19 90 22 7 0 1
0 0 0 0 148 65 24 17 34 0 18 163 402 358 247 17 8 4 3 5 6 21 18 61 86 144 132 110 87 29 44 36 26 15 6 0 0 0 6 18 10 3 37 8 10 0 0 0 0
0 0 0 75 114 30 2 7 7 31 15 14 247 105 57 2 6 52 22 12 8 0 0 18 180 177 90 53 23 9 0 0 0 0 0 0 0 0 0 0 0 0 0 0 0 0 0 0 0
0 0 0 64 82 12 41 0 0 1 2 37 24 47 26 39 42 93 35 27 0 0 0 0 41 139 56 3 0 0 0 10 8 0 0 0 0 0 0 0 0 0 0 0 0 0 0 0 0
0 0 0 53 77 56 73 0 0 0 281 58 132 94 88 100 71 51 28 6 0 0 0 0 58 154 33 0 0 0 83 4 0 0 0 0 0 0 0 0 0 0 0 0 0 0 0 0 0
0 2 49 55 36 56 4 3 0 0 429 249 161 46 13 68 56 14 40 35 36 10 9 20 182 176 0 0 0 8 0 0 0 0 0 0 0 0 0 0 0 0 0 0 0 0 0 0 0
0 72 76 33 2 3 12 27 15 0 368 492 164 87 18 38 27 0 23 29 48 94 190 232 272 27 0 0 0 0 0 0 0 0 0 0 0 0 0 0 0 0 0 0 0 0 0 0 0
0 0 0 0 47 23 0 17 10 0 14 165 394 119 113 74 51 5 0 36 137 304 330 275 224 0 0 0 0 0 0 0 0 0 0 0 0 0 0 0 0 0 0 0 0 0 0 0 0
0 0 0 19 38 0 0 3 1 0 19 136 187 451 290 162 70 10 1 97 319 357 338 80 36 0 0 0 0 0 0 0 0 0 0 0 0 0 0 0 0 0 0 0 0 0 0 0 0
0 0 0 0 8 35 10 0 1 19 146 250 35 87 344 380 195 92 129 250 421 259 247 41 0 0 0 0 0 0 0 0 0 0 0 0 0 0 0 0 0 0 0 0 0 0 0 0 0
0 0 0 0 0 8 3 0 24 47 173 65 0 10 0 485 379 358 397 369 280 173 126 64 0 0 0 0 0 0 0 0 0 0 0 0 0 0 0 0 0 0 0 0 0 0 0 0 0
0 0 0 0 0 0 0 0 27 26 151 49 13 1 0 272 233 476 478 302 85 143 106 72 0 0 0 0 0 0 0 0 0 0 0 0 0 0 0 0 0 0 0 0 0 0 0 0 0
0 0 0 0 0 0 0 0 59 34 0 0 0 0 0 2 31 96 369 311 125 108 101 122 38 3 0 0 0 0 0 0 0 0 0 0 0 0 0 0 0 0 0 0 0 0 0 0 0
0 0 0 0 0 0 0 0 0 29 93 0 0 1 18 0 31 8 206 278 229 119 118 132 55 14 0 0 0 0 0 0 0 0 0 0 0 0 0 0 0 0 0 0 0 0 0 0 0
0 0 0 0 0 0 0 0 0 0 13 29 0 0 0 0 0 0 6 253 216 122 115 50 49 30 15 0 0 0 0 0 0 0 0 0 0 0 0 0 0 0 0 0 0 0 0 0 0
0 0 0 0 0 0 0 0 0 0 0 9 8 0 0 0 0 64 115 254 220 112 47 5 46 9 0 0 0 0 0 0 0 0 0 0 0 0 0 0 0 0 0 0 0 0 0 0 0
0 0 0 0 0 0 0 0 0 0 0 0 0 0 0 0 0 211 471 424 236 178 155 8 3 0 0 0 0 0 0 0 0 0 0 0 0 0 0 0 0 0 0 0 0 0 0 0 0
0 0 0 0 0 0 0 0 0 0 0 0 0 0 0 0 1 332 566 539 386 267 108 61 0 0 0 0 0 0 0 0 0 0 0 0 0 0 0 0 0 0 0 0 0 0 0 0 0
0 0 0 0 0 0 0 0 0 0 0 0 0 0 0 0 54 380 514 550 221 52 0 0 0 0 0 0 0 0 0 0 0 0 0 0 0 0 0 0 0 0 0 0 0 0 0 0 0
1 0 0 0 0 0 0 0 0 0 0 0 0 6 13 3 150 100 10 0 0 0 0 0 0 0 0 0 0 0 0 0 0 0 0 0 0 0 0 0 0 0 0 0 0 0 0 0 0
0 0 0 0 0 0 0 0 0 0 0 0 0 0 1 2 22 14 2 0 0 0 0 0 0 0 0 0 0 0 0 0 0 0 0 0 0 0 0 0 0 0 0 0 0 0 0 0 0
0 0 0 0 0 0 0 0 0 0 0 0 0 0 0 0 0 0 0 0 0 0 0 0 0 0 0 0 0 0 0 0 0 0 0 0 0 0 0 0 0 0 0 0 0 0 0 0 0

GFSSGP_con_sbcape_030.txt.gz
CAPE
0 0 0 0 0 0 0 0 0 0 747 835 1037 1008 795 777 500 281 465 493 812 901 789 736 797 768 612 516 439 362 300 215 109 83 91 115 101 141 144 146 120 132 94 5 5 68 141 273 351
0 0 0 0 0 0 0 0 0 194 243 263 122 914 1012 1070 907 762 556 879 859 891 746 680 829 778 626 517 444 331 253 249 169 138 109 135 153 139 245 202 161 174 167 0 0 0 0 21 275
0 0 0 0 0 0 0 0 421 354 182 154 96 211 894 1043 1003 828 849 946 979 865 561 598 780 746 662 514 383 308 291 228 200 166 115 109 103 148 176 255 219 278 211 3 4 0 4 33 94
0 0 0 0 0 0 0 0 123 294 216 71 43 363 897 660 886 896 1032 1009 948 737 479 717 606 681 580 526 474 423 312 222 201 218 232 235 223 133 304 280 284 329 242 12 16 0 18 122 90
0 0 0 0 0 0 87 337 279 374 238 182 173 706 655 808 721 883 830 671 687 603 594 513 577 565 619 667 546 408 294 263 345 350 328 356 363 369 415 350 365 337 255 182 71 145 87 57 122
0 0 0 0 0 0 378 446 341 347 330 348 594 563 715 565 452 201 113 60 73 115 249 353 539 385 440 527 400 301 307 406 412 420 421 464 461 418 416 405 380 324 234 204 229 290 200 39 96
0 0 0 0 0 0 368 344 357 314 255 69 155 518 619 377 57 1 2 3 3 1 11 15 158 187 303 294 286 274 316 399 439 428 433 425 379 347 355 351 320 270 215 231 200 241 254 39 18
0 0 0 0 0 0 118 283 226 176 68 38 87 638 494 165 3 1 1 3 1 2 6 4 6 46 130 180 237 243 301 325 363 389 289 243 274 323 285 253 260 193 241 247 209 150 217 17 0
0 0 0 0 0 2 137 197 41 149 436 489 523 375 369 48 3 2 4 9 6 5 8 16 11 121 161 177 220 231 304 271 263 244 207 70 35 19 0 43 51 53 58 155 59 1 0 0 0
0 0 0 0 0 116 87 83 86 228 387 471 564 662 403 14 6 5 6 6 10 8 6 24 6 41 81 186 52 34 84 47 32 33 9 0 0 0 0 14 38 61 15 0 0 0 0 0 0
0 0 0 0 8 71 22 29 36 47 41 375 271 618 131 75 16 6 9 4 3 2 2 1 6 8 79 72 15 9 2 0 0 0 0 0 0 0 0 0 0 0 0 0 0 0 0 0 0
0 0 0 1 121 45 39 0 0 0 19 283 420 336 1 17 79 36 22 15 10 6 0 0 32 100 111 25 0 0 0 0 0 0 0 0 0 0 0 0 0 0 0 0 0 0 0 0 0
0 0 0 24 75 122 26 2 19 156 145 258 189 16 64 62 55 99 72 3 2 0 0 0 3 114 19 0 0 0 0 0 0 0 0 0 0 0 0 0 0 0 0 0 0 0 0 0 0
0 0 12 57 87 124 42 20 54 304 232 211 153 77 69 74 69 48 4 0 0 0 0 0 10 180 5 0 0 0 0 0 0 0 0 0 0 0 0 0 0 0 0 0 0 0 0 0 0
0 41 44 23 15 11 15 12 57 403 304 207 133 69 69 79 56 15 2 0 0 0 0 0 71 149 0 0 0 0 0 0 0 0 0 0 0 0 0 0 0 0 0 0 0 0 0 0 0
0 0 0 5 9 0 0 10 12 471 409 249 165 115 73 70 83 1 0 0 1 8 59 116 206 48 0 0 0 0 0 0 0 0 0 0 0 0 0 0 0 0 0 0 0 0 0 0 0
0 0 0 5 14 0 0 0 0 143 418 372 251 172 109 86 83 22 0 0 4 79 187 232 183 0 0 0 0 0 0 0 0 0 0 0 0 0 0 0 0 0 0 0 0 0 0 0 0
0 0 0 0 10 21 0 0 0 2 103 281 325 329 263 163 134 69 0 0 72 200 218 131 20 0 0 0 0 0 0 0 0 0 0 0 0 0 0 0 0 0 0 0 0 0 0 0 0
0 0 0 0 0 14 16 0 0 0 42 188 143 213 392 391 284 96 6 94 252 204 183 82 0 0 0 0 0 0 0 0 0 0 0 0 0 0 0 0 0 0 0 0 0 0 0 0 0
0 0 0 0 0 0 0 0 0 0 54 160 92 95 168 248 371 183 88 156 248 252 194 60 9 0 0 0 0 0 0 0 0 0 0 0 0 0 0 0 0 0 0 0 0 0 0 0 0
0 0 0 0 0 0 0 0 1 4 0 19 24 38 51 35 323 328 308 232 203 204 116 38 0 0 0 0 0 0 0 0 0 0 0 0 0 0 0 0 0 0 0 0 0 0 0 0 0
0 0 0 0 0 0 0 0 0 5 59 3 0 0 12 0 128 218 345 299 165 136 54 39 0 0 0 0 0 0 0 0 0 0 0 0 0 0 0 0 0 0 0 0 0 0 0 0 0
0 0 0 0 0 0 0 0 0 0 79 104 61 0 0 0 0 27 80 316 204 14 7 17 17 0 0 0 0 0 0 0 0 0 0 0 0 0 0 0 0 0 0 0 0 0 0 0 0
0 0 0 0 0 0 0 0 0 0 8 136 91 8 0 0 0 0 0 54 104 5 0 6 18 10 0 0 0 0 0 0 0 0 0 0 0 0 0 0 0 0 0 0 0 0 0 0 0
0 0 0 0 0 0 0 0 0 0 0 0 5 0 0 0 0 0 0 11 69 10 0 0 9 3 0 0 0 0 0 0 0 0 0 0 0 0 0 0 0 0 0 0 0 0 0 0 0
0 0 0 0 0 0 0 0 0 0 0 0 0 0 0 0 0 0 28 12 63 22 0 8 2 17 0 0 0 0 0 0 0 0 0 0 0 0 0 0 0 0 0 0 0 0 0 0 0
0 0 0 0 0 0 0 0 0 0 0 0 0 0 0 0 0 0 125 141 86 28 1 49 0 0 0 0 0 0 0 0 0 0 0 0 0 0 0 0 0 0 0 0 0 0 0 0 0
0 0 0 0 0 0 0 0 0 0 0 0 0 0 0 0 0 0 124 233 154 94 78 12 0 0 0 0 0 0 0 0 0 0 0 0 0 0 0 0 0 0 0 0 0 0 0 0 0
0 0 0 0 0 0 0 0 0 0 0 0 0 0 0 0 0 3 91 137 18 1 0 0 0 0 0 0 0 0 0 0 0 0 0 0 0 0 0 0 0 0 0 0 0 0 0 0 0
0 0 0 0 0 0 0 0 0 0 0 0 0 0 0 0 0 0 0 0 0 0 0 0 0 0 0 0 0 0 0 0 0 0 0 0 0 0 0 0 0 0 0 0 0 0 0 0 0

GFSSGP_con_sbcape_033.txt.gz
CAPE
0 0 0 0 0 0 0 0 0 0 581 806 1180 1089 936 835 704 685 694 706 1064 892 615 734 766 744 700 643 557 443 390 348 285 213 176 148 139 179 178 180 186 258 306 262 309 333 267 165 313
0 0 0 0 0 0 0 0 113 450 502 530 536 1123 1146 1118 784 685 729 1013 1052 878 664 531 749 688 662 578 463 421 399 304 243 244 237 194 279 300 246 207 234 223 299 168 245 406 402 378 567
0 0 0 0 0 0 0 0 494 607 405 404 343 812 1192 827 1015 1103 1037 1214 1161 966 745 605 788 654 646 560 467 353 318 276 252 249 299 303 373 377 332 272 258 263 279 53 34 81 214 328 394
0 0 0 0 0 0 0 0 438 381 492 306 609 1012 1040 953 1176 1174 1239 1273 1173 1126 832 710 729 726 692 552 451 361 258 206 200 238 325 382 402 379 418 362 341 312 268 10 3 46 62 190 224
0 0 0 0 0 0 0 508 586 646 542 591 663 690 747 873 1027 1182 1192 1213 962 963 929 910 590 668 698 701 523 333 279 276 260 285 337 403 443 477 462 396 344 321 298 163 29 85 196 169 144
0 0 0 0 0 0 0 677 673 740 689 668 931 759 855 849 611 289 127 141 184 500 429 664 674 512 485 604 372 277 356 398 362 366 413 530 524 465 443 348 263 273 335 330 238 93 192 151 123
0 0 0 0 0 0 270 545 603 644 563 485 658 757 607 449 193 23 2 2 7 2 104 242 120 127 125 214 292 311 408 444 411 418 461 469 396 385 372 310 245 242 234 304 324 128 124 174 87
0 0 0 0 0 0 262 366 333 268 294 386 411 778 495 229 37 3 2 3 5 2 4 2 2 15 82 165 333 328 337 360 382 423 338 274 322 327 312 255 252 263 239 271 352 148 54 26 0
0 0 0 0 0 2 273 357 115 460 765 645 523 722 355 75 8 3 4 5 5 8 2 12 2 10 111 166 258 402 400 331 294 250 215 112 62 63 18 53 105 195 101 49 36 0 0 0 0
0 0 0 0 0 84 180 236 174 606 734 519 665 485 205 62 11 3 5 5 9 9 18 8 19 32 118 152 147 230 257 193 155 92 95 67 83 28 24 58 119 26 0 0 0 0 0 0 0
0 0 0 0 0 130 90 142 182 514 374 592 545 390 163 21 3 5 16 14 8 11 24 37 3 0 68 199 86 83 38 77 81 61 49 39 72 58 36 2 0 0 0 0 0 0 0 0 0
0 0 0 0 152 109 104 51 130 120 301 438 706 406 199 11 4 3 11 18 9 3 19 57 16 0 88 172 66 22 45 24 38 0 37 116 77 20 4 0 0 0 0 0 0 0 0 0 0
0 0 0 0 85 108 98 101 253 366 556 703 411 110 113 116 44 14 15 12 28 12 22 17 20 45 142 81 14 14 16 3 4 1 97 85 53 9 0 0 0 0 0 0 0 0 0 0 0
0 0 16 45 140 120 418 441 222 386 454 281 366 216 161 163 198 166 81 14 4 13 1 1 12 110 151 0 0 0 16 20 0 46 59 4 2 0 0 0 0 0 0 0 0 0 0 0 0
0 29 16 44 84 77 41 73 444 491 427 377 299 69 124 171 120 155 141 52 0 0 0 2 48 324 182 0 0 17 81 41 41 38 0 0 0 0 0 0 0 0 0 0 0 0 0 0 0
0 0 0 0 19 1 0 93 503 495 269 194 171 98 70 78 94 135 66 10 0 0 0 8 76 278 207 0 0 46 39 31 30 15 3 0 0 0 0 0 0 0 0 0 0 0 0 0 0
0 0 0 25 72 12 16 48 329 488 357 145 154 98 101 126 133 90 94 17 0 0 0 2 117 354 218 22 13 82 13 17 27 1 0 0 0 0 0 0 0 0 0 0 0 0 0 0 0
0 0 0 8 54 35 12 3 220 570 442 284 220 222 158 131 151 182 89 79 9 26 85 125 285 368 226 44 19 9 0 0 0 0 0 0 0 0 0 0 0 0 0 0 0 0 0 0 0
0 0 0 0 0 55 82 5 60 444 578 623 554 530 486 307 185 196 173 108 123 155 166 282 335 275 98 33 50 44 0 0 0 0 0 0 0 0 0 0 0 0 0 0 0 0 0 0 0
0 0 1 0 0 0 0 0 10 105 389 317 454 536 539 664 548 350 249 136 168 220 259 370 416 246 162 108 65 15 0 0 0 0 0 0 0 0 0 0 0 0 0 0 0 0 0 0 0
0 0 0 0 0 0 0 0 3 19 89 136 170 341 382 525 664 643 291 232 235 297 421 474 455 242 165 73 1 0 0 0 0 0 0 0 0 0 0 0 0 0 0 0 0 0 0 0 0
0 0 0 0 0 0 0 0 0 19 132 119 241 227 277 288 322 612 577 382 302 393 481 516 451 289 207 43 21 0 0 0 0 0 0 0 0 0 0 0 0 0 0 0 0 0 0 0 0
0 0 0 0 0 0 0 0 0 0 102 306 306 227 245 228 216 389 628 637 525 470 545 532 417 219 127 1 4 5 0 0 0 0 0 0 0 0 0 0 0 0 0 0 0 0 0 0 0
0 0 0 0 0 0 0 0 0 0 52 160 308 347 227 148 100 121 327 559 707 569 509 501 276 219 43 11 7 1 0 0 0 0 0 0 0 0 0 0 0 0 0 0 0 0 0 0 0
0 0 0 0 0 0 0 0 8 0 0 0 28 199 276 243 69 89 53 167 554 422 411 409 208 110 0 1 8 0 0 0 0 0 0 0 0 0 0 0 0 0 0 0 0 0 0 0 0
0 0 1 0 0 0 0 0 1 0 0 0 0 0 1 30 83 111 66 135 292 393 397 448 375 144 0 0 6 2 0 0 0 0 0 0 0 0 0 0 0 0 0 0 0 0 0 0 0
0 0 0 0 0 0 0 0 0 0 0 0 0 0 0 0 0 0 7 74 131 369 396 604 558 305 108 7 10 2 0 0 0 0 0 0 0 0 0 0 0 0 0 0 0 0 0 0 0
0 0 1 3 0 0 0 0 0 0 0 0 0 0 0 0 0 0 0 174 201 323 375 468 541 432 340 21 4 1 0 0 0 0 0 0 0 0 0 0 0 0 0 0 0 0 0 0 0
0 0 0 0 0 0 0 0 0 0 0 0 0 0 0 0 14 0 28 320 421 428 406 431 450 393 68 6 1 0 0 0 0 0 0 0 0 0 0 0 0 0 0 0 0 0 0 0 0
0 0 0 7 0 0 0 0 0 0 0 0 0 0 0 0 1 58 182 341 416 433 294 238 92 26 0 0 0 0 0 0 0 0 0 0 0 0 0 0 0 0 0 0 0 0 0 0 0

GFSSGP_con_sbcape_036.txt.gz
CAPE
1 0 0 0 0 0 0 0 0 158 171 1226 1672 1427 934 1344 881 844 1080 1285 1294 860 417 808 889 961 946 866 712 580 487 365 259 254 179 171 221 306 263 317 364 529 508 313 254 234 242 47 59
0 0 0 0 0 0 1 0 21 322 720 1034 1177 1630 1480 1362 1068 1040 1149 945 1308 983 497 248 902 906 867 693 593 511 447 334 290 267 243 323 381 382 403 401 514 713 870 629 315 348 284 172 245
0 0 0 0 0 0 4 0 88 482 808 1139 1098 1626 1197 825 898 952 1296 1362 1343 1115 639 552 914 862 822 651 551 429 361 285 309 308 452 498 482 491 491 427 384 464 700 477 453 483 410 299 312
0 0 0 0 0 0 0 24 825 843 862 904 1323 1311 990 930 1759 1417 1398 1536 1423 1119 873 746 754 772 746 683 536 414 289 278 264 394 549 568 590 560 547 471 416 364 360 164 278 289 223 259 172
0 0 0 0 0 0 0 100 900 904 1043 1051 1191 1243 1110 1205 1276 1576 1557 1512 1440 1241 1150 802 644 768 786 719 556 397 297 295 338 436 481 557 642 678 610 477 425 359 260 177 116 153 228 220 204
0 0 0 0 0 1 20 550 1056 1143 1140 1298 1378 1315 1074 669 500 437 907 1043 1290 1134 972 890 672 781 664 583 456 311 320 366 397 468 500 592 629 568 512 462 488 457 280 226 326 268 222 205 51
0 0 0 0 39 59 579 1005 1056 1131 1201 1240 1335 1347 1004 545 229 112 155 191 455 719 581 307 154 175 245 191 321 325 393 415 486 512 563 531 413 316 321 329 346 394 369 242 245 280 241 45 0
0 0 0 5 48 75 568 826 865 1038 1148 1146 1194 1241 981 448 148 117 111 6 26 70 165 2 0 0 0 112 313 340 379 445 469 475 387 291 281 294 302 294 339 415 475 282 148 196 96 0 0
0 0 6 27 58 59 430 780 801 874 1240 1210 1144 1396 828 239 134 68 5 5 4 7 1 4 1 0 0 21 324 381 435 452 374 307 250 85 20 14 37 142 317 248 271 133 4 0 0 0 0
0 0 0 0 0 4 357 769 828 1091 1260 1144 908 693 414 184 198 167 9 8 7 7 12 17 11 0 0 14 105 355 314 233 230 124 62 50 116 137 46 123 28 24 7 0 0 0 0 0 0
0 14 3 0 0 1 286 615 682 777 1022 1104 611 524 366 251 154 24 11 9 7 7 8 15 19 67 32 36 119 295 246 251 260 227 150 158 130 174 136 53 0 0 0 0 0 0 0 0 0
0 0 0 0 20 120 409 531 707 714 1028 996 683 367 250 186 116 6 11 8 8 13 14 10 20 25 46 94 157 177 156 132 171 133 156 202 140 216 134 26 5 0 0 0 0 0 0 0 0
0 3 0 12 2 367 327 414 589 948 1131 979 620 311 194 133 26 6 6 7 3 0 4 23 40 68 83 114 61 92 81 88 105 100 43 40 98 273 96 18 0 0 0 0 0 0 0 0 0
0 14 147 37 314 531 577 667 650 903 965 584 530 237 156 153 11 9 8 17 10 0 0 0 0 36 37 46 82 81 120 110 91 141 186 264 215 166 54 5 0 0 0 0 0 0 0 0 0
0 123 80 180 384 473 417 451 824 663 697 733 499 268 215 170 168 118 68 58 18 35 21 25 52 85 60 100 170 70 71 48 102 333 459 406 256 126 38 0 0 0 0 0 0 0 0 0 0
10 49 15 18 143 211 404 413 915 498 375 254 193 223 149 219 309 338 174 31 54 36 24 29 58 162 288 270 165 29 119 118 227 369 463 314 159 43 0 0 0 0 0 0 0 0 0 0 0
11 28 19 72 108 244 336 248 827 666 194 191 132 72 127 195 179 344 106 0 0 1 8 0 98 298 509 528 150 84 243 398 550 544 427 100 15 0 0 0 0 0 0 0 0 0 0 0 0
38 38 58 154 262 225 212 162 807 829 335 239 250 79 105 164 159 150 182 7 0 0 5 31 250 425 636 527 198 72 452 645 688 643 457 189 11 0 0 0 0 0 0 0 0 0 0 0 0
5 26 47 45 18 98 65 95 450 821 709 543 515 477 183 166 211 241 175 116 39 82 163 230 309 550 759 569 136 141 422 568 575 589 374 179 2 0 0 0 0 0 0 0 0 0 0 0 0
18 17 46 19 0 5 38 55 144 748 1026 959 852 835 838 611 260 384 467 240 168 189 245 326 455 661 771 609 190 358 566 550 457 212 61 0 0 0 0 0 0 0 0 0 0 0 0 0 0
22 23 14 8 0 0 8 46 127 238 599 863 808 753 742 756 858 745 680 748 452 267 321 367 561 841 990 719 358 342 524 235 65 3 0 0 0 0 0 0 0 0 0 0 0 0 0 0 0
15 0 0 3 0 32 0 74 64 136 276 419 606 606 762 699 698 831 1069 899 838 576 513 492 554 834 989 866 465 233 227 410 132 4 0 0 0 0 0 0 0 0 0 0 0 0 0 0 0
7 0 6 11 34 32 40 42 39 9 162 256 517 612 634 694 696 813 935 1191 934 756 650 796 785 908 1070 990 730 565 436 582 278 2 0 0 0 0 0 0 0 0 0 0 0 0 0 0 0
0 0 1 13 43 64 37 69 74 65 24 48 170 500 665 694 781 838 899 1051 1231 1082 903 935 962 993 1049 853 396 402 396 505 77 2 0 0 0 0 0 0 0 0 0 0 0 0 0 0 0
0 12 93 49 69 72 36 68 105 51 2 19 55 135 485 732 801 857 929 1073 1258 1391 1351 1233 1136 746 923 579 195 256 326 488 3 3 0 0 0 0 0 0 0 0 0 0 0 0 0 0 0
0 44 81 18 6 31 0 15 56 4 17 41 69 37 59 414 766 840 871 969 1154 1410 1647 1478 1367 670 147 38 251 441 314 370 11 10 0 0 0 0 0 0 0 0 0 0 0 0 0 0 0
1 17 18 96 36 29 23 11 21 0 7 18 63 68 93 90 123 425 757 863 937 1089 1519 1570 1373 999 682 110 0 99 148 133 80 5 0 0 0 0 0 0 0 0 0 0 0 0 0 0 0
9 8 49 105 60 29 29 18 57 1 0 0 0 1 124 240 104 102 193 369 734 857 1198 1367 1445 1407 1089 113 92 147 163 96 77 8 0 0 0 0 0 0 0 0 0 0 0 0 0 0 4
19 32 37 84 93 60 39 43 16 0 0 0 0 1 32 124 394 360 352 387 547 664 945 1100 1299 1407 1411 613 493 418 461 277 167 24 2 0 0 0 0 0 0 0 0 0 0 0 0 0 0
19 22 80 102 38 23 67 35 3 1 0 0 2 0 0 48 201 558 645 763 884 903 916 1028 1110 1178 1288 1301 1169 790 528 331 72 5 2 2 0 0 0 0 0 0 0 0 0 0 0 0 0

GFSSGP_con_sbcape_039.txt.gz
CAPE
0 0 0 0 0 0 0 22 61 59 17 233 537 636 113 913 463 321 1259 1617 1179 989 885 1360 1366 1479 1410 1294 1051 856 717 524 456 459 356 259 273 373 455 513 557 588 558 303 175 0 0 0 0
0 0 0 0 0 13 51 12 1 19 274 768 1449 1453 1340 1426 1322 1319 1562 1695 1052 957 918 1469 1220 1256 1213 1043 902 745 640 559 525 416 351 429 469 573 649 840 869 851 825 468 194 27 14 33 68
0 0 0 7 3 10 44 12 19 319 421 804 958 1605 1569 984 854 994 1392 1596 960 527 692 1230 1017 1063 1056 898 772 600 552 502 402 425 585 600 649 638 752 859 1035 1066 975 565 251 107 54 83 234
0 0 0 0 1 4 4 31 257 411 537 854 1016 1497 1110 466 266 110 1149 1862 1219 111 373 813 797 902 950 878 682 535 466 348 424 534 693 730 729 639 619 519 718 1035 958 559 318 115 75 201 210
0 0 0 39 23 7 0 5 371 561 696 1120 1257 721 1395 1255 1129 969 1551 1942 1320 39 453 887 763 809 963 894 655 485 483 415 579 629 693 694 694 736 644 437 456 533 594 448 209 116 148 241 153
0 0 13 46 20 0 13 261 498 987 1153 1301 1205 1099 1306 746 821 773 1679 1712 1218 1028 842 587 782 832 744 613 495 433 444 560 658 710 754 832 836 682 655 565 411 453 479 398 329 299 213 76 0
0 6 56 2 38 170 334 706 859 963 1044 1371 1550 1347 1398 740 362 502 596 821 1050 438 361 398 228 458 304 247 247 308 517 621 673 676 725 537 417 425 449 413 332 303 352 353 320 271 143 0 0
0 0 8 19 31 12 532 723 963 1108 1492 1463 1466 1279 1423 657 304 240 156 71 441 324 36 201 140 333 374 314 267 340 454 562 614 512 348 273 293 334 338 354 430 348 332 360 281 120 0 0 0
0 1 32 35 54 2 372 753 1117 1082 1274 1528 1647 1881 1224 427 347 366 128 58 2 43 19 1 2 0 19 52 275 374 560 475 325 286 256 119 46 63 119 283 412 355 199 228 159 24 0 0 0
0 35 15 6 27 2 93 564 913 1007 1334 1458 1003 847 641 467 450 354 130 4 7 6 6 3 0 0 0 40 222 260 379 275 215 154 124 86 201 240 174 157 185 117 17 0 0 0 0 0 0
2 8 2 22 0 5 58 522 789 883 877 1055 1245 720 527 449 375 99 11 8 6 7 4 9 0 0 0 1 93 124 210 323 298 267 356 377 297 308 248 75 18 1 0 0 0 0 0 0 0
0 4 1 7 0 19 372 618 772 996 1308 1462 1061 690 601 378 270 30 8 10 5 6 9 8 22 0 5 0 28 113 188 288 300 281 344 444 354 495 313 189 113 31 0 0 0 0 0 0 0
1 19 8 23 20 76 411 528 617 979 1173 934 669 448 278 266 19 19 12 9 4 6 5 11 16 0 2 19 85 118 157 208 266 312 313 326 395 550 319 193 92 37 9 0 0 0 0 0 0
1 1 65 39 112 425 471 574 727 1010 868 779 678 492 145 66 4 5 7 1 3 2 15 24 41 53 53 34 37 99 188 202 195 233 227 222 231 671 284 211 85 27 9 0 0 0 0 0 0
0 4 53 75 155 271 406 53 738 749 775 695 195 57 2 92 0 2 5 0 0 0 4 4 4 52 53 52 65 84 125 105 105 104 503 297 323 628 361 241 108 36 13 0 0 0 0 0 0
0 9 91 26 29 103 0 0 635 571 537 412 233 148 79 161 226 25 7 0 0 0 3 3 3 0 82 116 239 131 160 151 111 276 516 511 460 453 349 157 83 14 0 0 0 0 0 0 0
6 28 82 30 0 137 242 0 520 482 173 92 186 151 81 196 239 252 218 7 4 4 18 2 58 62 216 155 174 73 70 154 56 307 596 559 472 372 388 162 71 0 0 0 0 0 0 0 0
28 47 48 105 58 60 130 60 740 572 340 181 51 31 29 103 182 145 51 56 72 14 3 3 104 143 311 259 289 110 61 194 334 627 631 527 359 239 258 150 38 0 0 0 0 0 0 0 0
17 26 36 17 74 52 61 76 97 802 432 363 220 98 90 124 138 190 38 22 3 15 4 42 91 238 359 265 146 77 24 158 529 865 616 546 424 200 249 154 9 0 0 0 0 0 0 0 0
28 43 38 20 0 0 8 50 46 738 686 555 399 356 192 140 153 183 178 33 32 46 34 19 39 153 398 433 122 31 112 208 380 631 670 638 528 204 199 76 0 0 0 0 0 0 0 0 0
35 50 45 30 12 0 0 4 35 179 633 755 517 446 338 235 169 208 206 237 122 167 224 239 302 387 666 571 301 102 294 443 480 483 510 499 405 127 29 0 0 0 0 0 0 0 0 0 0
47 19 14 5 11 43 7 6 20 65 196 620 787 612 440 415 360 263 361 376 300 340 527 412 510 561 827 929 637 220 293 578 614 632 375 255 74 7 0 0 0 0 0 0 0 0 0 0 0
29 29 20 41 80 57 36 22 20 8 37 104 385 605 430 395 430 415 429 518 606 522 718 775 560 580 893 1152 1254 715 449 553 810 557 354 266 0 0 0 0 0 0 0 0 0 0 0 0 0
26 46 49 67 109 121 39 68 8 28 2 25 69 298 461 396 393 393 502 631 594 732 1015 1196 683 561 671 1250 1042 1009 701 741 840 663 298 70 4 1 0 0 0 0 0 0 0 0 0 0 0
15 76 100 121 134 139 75 43 35 14 42 6 12 154 430 477 438 416 419 553 870 1000 1166 1246 832 885 930 1201 1374 879 584 777 856 689 160 28 15 5 1 0 0 0 0 0 0 0 0 0 0
17 96 146 12 216 155 79 14 50 36 6 3 0 29 76 514 528 459 352 681 923 1200 1435 1273 1132 1201 1152 1192 1144 558 274 200 529 886 271 84 42 0 0 0 0 0 0 0 0 0 0 0 0
44 72 108 75 125 175 167 99 42 0 0 1 15 166 239 153 511 582 469 454 905 1174 1671 2145 1537 1438 1288 1316 605 514 542 477 755 486 289 124 0 0 0 0 0 0 0 0 0 0 0 0 0
4 75 121 115 99 142 146 165 144 29 6 0 0 12 192 250 232 307 539 662 754 1067 1353 2308 2060 1720 1509 847 895 505 499 721 690 553 266 0 0 0 0 0 0 0 0 0 0 0 0 0 1
0 76 88 121 148 150 228 188 100 90 24 0 9 1 5 72 383 402 343 411 655 963 1243 1532 1992 1929 1624 1374 1049 307 335 392 444 416 99 0 0 0 0 0 0 0 0 0 0 0 0 1 8
31 28 98 278 127 152 187 189 86 67 35 6 1 1 2 52 157 533 652 670 678 774 992 1314 1713 1875 1834 1738 958 536 773 611 483 351 58 0 1 1 0 0 0 0 0 0 0 0 0 0 0

GFSSGP_con_sbcape_042.txt.gz
CAPE
0 0 0 0 0 0 0 0 0 0 25 170 211 153 2 570 175 313 133 0 31 853 1692 1802 1552 1635 1531 1370 1138 980 846 756 718 589 373 314 543 576 583 559 556 758 367 4 0 0 0 0 0
0 0 0 0 0 0 0 0 19 69 356 175 10 256 92 689 380 995 1049 585 1028 1198 1844 1831 1582 1571 1508 1316 1110 935 827 789 692 491 411 578 696 779 859 808 718 719 482 50 0 0 0 0 28
0 0 0 0 0 0 5 0 0 167 168 184 132 99 966 183 73 729 723 1027 915 1045 1667 1588 1272 1161 1286 1163 980 788 739 637 533 509 658 814 857 1077 1099 1027 892 858 615 84 37 0 0 16 72
0 0 0 0 0 0 8 0 0 117 26 53 193 691 528 809 484 66 211 692 485 343 1365 821 910 1093 1054 1014 961 821 659 518 498 612 831 906 1044 1082 1191 1098 996 1000 723 112 53 0 3 127 35
0 0 0 0 5 8 27 17 0 179 76 31 60 80 68 701 803 855 367 1248 603 861 1050 885 664 827 1012 1107 978 791 644 602 700 778 822 806 826 773 829 948 980 973 681 250 78 45 103 107 15
0 0 0 4 11 116 132 1 184 115 170 1 7 0 0 522 604 492 772 1062 785 538 875 624 724 816 715 719 794 632 684 765 837 838 796 902 737 563 619 663 664 672 443 335 289 215 119 31 0
0 0 0 1 10 87 0 2 16 172 220 5 0 1 574 409 349 388 340 828 537 280 489 189 266 512 306 376 432 525 709 781 851 922 841 635 530 436 385 470 557 505 358 311 237 164 63 0 0
0 0 0 5 22 37 56 0 33 469 467 153 200 925 1208 259 299 186 51 155 397 66 24 16 15 27 155 271 383 475 516 562 549 440 357 277 320 360 317 286 380 376 346 284 211 86 0 0 0
0 0 0 5 22 11 20 180 12 0 533 1147 951 874 476 389 548 300 172 16 59 153 33 79 75 25 136 328 423 566 600 397 324 276 223 117 69 41 195 296 322 346 291 258 140 0 0 0 0
0 0 6 0 0 0 0 66 0 160 549 343 165 464 443 540 448 165 62 5 2 9 7 5 34 61 105 292 319 350 294 181 203 140 111 103 125 169 212 276 211 191 201 161 22 0 0 0 0
0 0 0 0 0 0 0 17 3 392 669 626 0 493 231 340 65 6 5 5 4 4 1 1 0 0 1 6 80 56 116 88 158 148 209 162 158 160 124 114 53 9 1 0 0 0 0 0 0
0 0 0 0 0 0 0 191 310 749 1070 978 719 455 388 278 33 5 5 6 5 3 8 3 0 0 0 0 9 70 79 157 146 226 272 238 287 200 92 117 98 25 0 0 0 0 0 0 0
0 0 0 3 0 0 16 168 242 1027 729 648 508 502 351 180 2 5 5 4 3 5 5 4 0 0 0 0 0 19 51 126 176 228 309 331 339 424 236 116 88 4 42 0 0 0 0 0 0
1 0 0 7 0 3 117 3 0 433 654 481 461 271 57 1 2 4 6 7 4 4 5 1 3 0 0 0 0 0 37 83 167 210 263 307 376 410 327 334 253 159 35 10 0 0 0 0 0
0 0 0 6 17 61 24 0 0 0 328 133 111 87 6 6 0 4 3 1 3 3 9 11 12 0 0 4 6 27 25 64 45 99 263 297 245 534 456 252 184 127 95 45 0 0 0 0 0
0 0 0 11 40 20 0 0 0 0 69 4 0 21 76 23 1 0 0 0 0 4 12 15 40 5 5 21 0 0 3 25 19 49 324 354 363 477 445 363 201 113 13 0 0 0 0 0 0
0 0 8 42 2 43 25 0 0 4 321 95 26 102 185 130 8 0 0 0 0 0 2 9 0 0 0 0 0 0 15 222 111 67 262 546 474 379 426 304 196 68 19 0 0 0 0 0 0
0 5 3 50 38 17 58 8 0 6 93 67 62 4 76 133 133 20 0 0 1 0 0 0 0 0 0 0 0 25 141 110 75 81 328 310 430 484 463 304 110 15 0 0 0 0 0 0 0
0 0 6 60 43 37 87 227 172 423 160 56 0 0 0 42 53 156 5 0 0 0 0 0 0 0 0 15 58 102 30 79 112 352 338 505 458 388 296 243 66 12 0 0 0 0 0 0 0
0 0 12 8 21 0 0 12 394 468 406 228 21 0 0 16 76 20 7 0 0 0 0 0 0 0 45 82 3 53 14 25 136 460 597 556 444 271 253 247 41 12 0 0 0 0 0 0 0
0 0 3 28 2 7 0 0 7 536 343 397 299 128 5 2 156 43 25 9 2 0 0 0 0 21 95 140 90 31 34 15 97 259 521 503 440 282 163 210 34 1 0 0 0 0 0 0 0
0 0 3 8 12 3 21 47 4 288 245 402 356 261 128 64 72 142 71 16 13 16 0 0 0 0 121 274 392 38 0 14 255 410 318 377 497 356 103 48 1 0 0 0 0 0 0 0 0
0 0 23 2 3 68 43 16 3 18 29 423 591 521 363 247 117 132 178 163 51 110 144 99 75 157 232 308 536 366 101 302 611 459 476 283 281 68 26 0 0 0 0 0 0 0 0 0 0
11 6 24 11 0 43 54 23 40 24 17 55 235 587 540 332 316 238 262 285 281 182 236 334 321 363 416 558 610 577 227 504 509 387 317 265 14 0 0 0 0 0 0 0 0 0 0 0 0
0 11 14 25 68 108 52 32 84 38 41 33 58 36 543 456 327 324 258 333 419 399 357 439 495 515 548 729 786 856 737 631 497 296 267 120 1 0 0 0 0 0 0 0 0 0 0 0 0
0 0 33 20 10 64 69 59 53 30 5 0 0 1 146 516 417 385 296 388 430 600 617 547 528 498 539 804 897 870 839 591 497 415 260 31 9 0 0 0 0 0 0 0 0 0 0 0 0
15 2 16 29 0 0 17 35 10 34 0 0 0 3 91 133 452 454 286 260 601 723 877 915 843 644 701 689 1091 907 770 683 558 305 309 48 22 0 0 0 0 0 0 0 0 0 0 0 0
0 5 105 70 60 60 23 21 59 23 0 0 0 7 146 164 146 339 203 408 343 893 1104 1216 1014 748 915 1040 1267 1010 811 328 187 359 380 155 16 0 0 0 0 0 0 0 0 0 0 0 0
0 0 24 102 125 125 82 82 0 0 6 23 0 1 30 94 249 301 284 284 464 574 855 1389 1387 1308 1178 1225 1145 909 701 459 536 660 513 292 0 0 0 0 0 0 0 0 0 0 0 0 0
0 2 13 131 61 169 374 38 76 61 5 53 35 28 6 3 52 400 537 468 443 549 942 1768 1848 1665 1311 1343 1183 953 441 277 356 408 350 0 0 0 0 0 0 0 0 0 0 0 0 0 0

GFSSGP_con_sbcape_045.txt.gz
CAPE
0 0 0 0 0 0 0 0 0 0 144 236 249 174 165 496 799 762 275 33 0 3 1 777 1508 1646 1627 1492 1193 988 944 888 688 585 712 859 765 743 905 736 178 181 103 0 0 0 0 0 0
0 0 0 0 0 0 0 0 0 317 340 176 257 258 229 491 224 673 662 63 14 0 3 736 1075 1666 1653 1309 1070 1014 1005 831 637 692 819 821 809 831 896 629 272 276 149 0 0 0 0 0 9
0 0 0 0 0 0 0 0 0 156 226 264 189 575 715 262 156 455 279 93 786 941 549 989 1246 1510 1413 1184 982 924 877 637 639 808 941 952 1014 1011 961 732 392 407 203 0 0 0 0 0 6
0 0 0 0 0 0 0 8 56 161 165 68 532 564 331 359 836 726 132 891 615 803 805 947 1028 1246 1258 1119 957 884 661 541 729 887 1003 1215 1257 1177 1074 858 587 523 183 0 0 0 0 8 0
0 0 0 0 0 0 14 0 28 316 215 104 74 0 238 523 686 727 743 749 730 391 167 592 520 712 844 911 974 804 666 722 870 945 1168 1326 1435 1327 1158 1002 673 451 222 18 0 0 0 0 0
0 0 0 0 0 42 4 1 11 88 333 91 45 22 8 352 213 328 637 897 485 560 518 582 488 383 615 681 626 740 756 873 878 906 953 1139 1206 1229 1224 1090 677 435 262 222 112 34 0 0 0
0 0 0 0 0 40 3 0 22 52 213 28 42 55 50 339 203 224 504 373 213 424 368 190 388 458 353 239 402 675 746 801 803 804 713 657 670 781 950 885 650 451 320 189 106 53 0 0 0
0 0 0 0 0 25 1 50 0 67 295 49 46 306 129 274 203 174 327 289 246 240 77 12 40 78 162 164 187 505 629 613 516 452 330 259 329 530 618 571 427 331 251 178 83 0 0 0 0
0 0 0 0 0 7 6 75 12 0 444 334 573 518 309 319 203 150 198 205 111 78 9 0 0 24 92 89 306 613 681 369 262 222 182 39 15 37 120 281 324 319 228 145 56 0 0 0 0
0 0 0 0 0 0 27 41 3 19 0 21 376 434 453 222 38 40 15 17 114 50 4 4 2 5 3 38 275 330 253 67 104 68 15 16 40 60 102 197 260 245 190 94 27 0 0 0 0
0 0 0 0 0 0 0 24 0 0 0 60 46 369 298 5 1 2 3 1 3 2 1 21 4 4 9 12 32 122 39 80 29 29 32 90 87 57 26 40 66 78 52 2 0 0 0 0 0
0 0 0 0 0 0 2 53 258 329 568 572 299 259 269 6 2 3 2 2 1 2 1 0 0 1 0 10 19 18 34 50 42 81 78 94 37 27 49 39 7 0 0 0 0 0 0 0 0
0 0 0 0 0 0 3 24 103 264 361 259 426 177 182 1 1 5 2 2 2 2 1 1 0 0 0 0 0 14 66 60 117 117 123 135 65 43 68 64 2 0 0 0 0 0 0 0 0
0 0 0 0 0 0 0 0 1 87 332 284 180 58 14 1 2 5 2 3 3 2 2 0 0 0 0 0 0 0 2 12 97 146 168 213 200 126 93 55 13 0 0 0 0 0 0 0 0
0 0 0 0 0 0 0 0 0 0 0 224 117 10 8 5 0 3 2 2 1 4 4 3 1 0 0 0 0 0 0 0 0 5 31 117 190 227 125 129 60 11 0 0 0 0 0 0 0
0 0 0 0 0 0 0 0 0 0 0 0 0 16 21 2 0 0 1 2 1 1 1 3 2 0 0 0 0 0 0 0 0 0 111 110 116 203 197 48 21 1 0 0 0 0 0 0 0
0 0 0 0 1 0 0 0 5 0 0 0 0 7 22 10 0 0 0 0 0 0 3 2 0 0 0 0 0 0 0 0 0 0 2 144 87 278 148 105 14 0 0 0 0 0 0 0 0
0 0 0 0 0 5 4 2 0 0 2 0 0 44 41 4 0 0 0 0 0 0 1 0 0 0 0 0 0 0 0 0 0 0 0 145 152 176 213 99 19 0 0 0 0 0 0 0 0
0 0 0 0 2 9 104 26 0 0 0 0 0 0 64 10 0 0 0 0 0 0 0 0 0 0 0 0 0 0 0 0 12 0 98 0 0 134 175 73 1 0 0 0 0 0 0 0 0
0 0 0 0 2 0 1 46 0 0 5 0 0 0 0 14 0 0 0 0 0 0 0 0 0 0 0 0 0 0 0 0 0 4 1 2 13 101 76 11 0 0 0 0 0 0 0 0 0
0 0 0 0 1 2 0 0 10 18 77 0 0 0 0 0 0 0 0 0 0 0 0 0 0 0 0 0 0 0 0 0 0 0 35 16 180 139 64 5 0 0 0 0 0 0 0 0 0
0 0 0 0 0 0 0 0 120 172 186 62 0 0 0 0 0 0 0 0 0 0 0 0 0 0 0 0 0 0 0 0 0 0 78 164 177 96 39 8 0 0 0 0 0 0 0 0 0
0 0 0 0 0 0 0 0 0 248 120 87 45 0 0 0 0 0 0 0 0 0 0 0 0 0 0 0 0 0 0 0 0 0 71 81 108 82 4 0 0 0 0 0 0 0 0 0 0
0 1 0 0 0 0 0 0 0 73 11 138 63 84 0 0 8 0 0 0 0 0 0 0 0 0 0 0 1 22 8 0 4 29 59 65 63 5 0 0 0 0 0 0 0 0 0 0 0
0 1 0 0 0 0 13 18 6 0 1 139 57 160 51 0 36 1 0 0 0 0 0 0 0 0 0 0 12 19 37 14 44 86 75 27 4 0 0 0 0 0 0 0 0 0 0 0 0
0 0 0 0 0 0 0 1 4 0 0 0 2 219 128 23 0 29 18 0 0 0 0 0 0 0 0 7 9 49 65 53 21 42 44 40 0 0 0 0 0 0 0 0 0 0 0 0 0
0 0 0 4 0 0 0 0 0 0 0 0 0 0 53 124 11 0 11 13 2 1 7 53 62 43 61 120 197 199 226 207 55 18 2 8 0 0 0 0 0 0 0 0 0 0 0 0 0
0 0 18 24 7 0 29 3 17 0 0 0 0 0 0 0 63 7 0 22 51 63 84 7 111 149 104 168 301 321 340 87 77 27 20 0 0 0 0 0 0 0 0 0 0 0 0 0 0
0 0 0 15 6 4 0 0 0 3 0 0 0 0 3 41 20 12 25 84 27 337 414 228 121 163 137 107 271 456 298 84 4 36 13 0 0 0 0 0 0 0 0 0 0 0 0 0 0
0 0 0 0 0 6 0 0 0 0 0 0 0 0 0 0 11 2 75 33 0 223 364 276 337 357 267 185 369 571 250 58 1 54 75 5 0 0 0 0 0 0 0 0 0 0 0 0 0

GFSSGP_con_sbcape_048.txt.gz
CAPE
0 0 0 0 0 0 0 0 0 0 0 104 116 258 364 473 836 979 234 113 88 843 1074 650 963 1225 1446 1308 1107 1032 890 746 1051 1023 1152 1261 917 616 475 334 152 8 0 0 0 0 1 6 17
0 0 0 0 0 0 0 0 0 2 141 167 390 500 467 318 272 989 492 126 36 102 791 999 906 890 1403 1276 1077 995 828 833 1101 1076 1211 1317 1101 632 535 350 139 24 0 0 0 0 0 0 4
0 0 0 0 0 0 0 0 0 24 132 230 731 757 617 380 376 465 261 169 64 4 139 181 5 305 965 1260 1119 821 652 791 958 939 1160 1345 1165 792 655 380 201 98 13 0 0 0 0 0 0
0 0 0 0 0 0 0 0 14 24 169 224 654 462 417 301 508 960 326 541 799 239 23 64 15 262 958 1175 1048 658 589 687 800 869 1139 1343 1233 891 741 478 334 189 0 0 0 0 0 3 5
0 0 0 0 0 0 0 0 4 311 258 152 33 0 265 187 686 641 775 762 818 461 153 80 90 229 618 1068 817 656 673 769 820 977 1097 1187 1267 976 782 554 352 172 8 0 0 0 14 0 8
0 0 0 0 0 0 0 0 18 168 236 79 15 0 6 427 356 338 421 659 410 285 508 554 421 339 412 517 481 607 715 903 1056 1125 1195 1252 1213 1014 803 569 369 257 168 45 0 0 19 5 0
0 0 0 0 0 0 0 0 51 83 32 26 20 81 27 391 238 182 399 448 499 441 481 419 144 367 20 58 143 627 733 930 975 1131 1189 1162 1077 985 768 603 418 250 120 53 0 0 0 18 0
0 0 0 0 0 0 18 34 0 24 37 122 520 644 102 248 214 209 399 288 314 134 240 24 68 97 8 8 40 299 597 576 494 563 578 669 812 793 623 392 318 189 127 63 0 0 0 0 0
0 0 0 0 0 0 33 50 0 27 249 229 336 329 341 305 248 226 165 130 220 69 15 15 4 4 22 13 79 153 422 365 263 213 113 92 128 189 77 170 212 184 85 65 0 0 0 0 0
0 0 0 0 0 15 40 1 0 0 0 67 153 276 278 113 139 126 82 17 82 37 2 7 1 1 3 16 33 172 284 140 41 3 0 0 3 36 86 126 143 107 77 64 12 0 0 0 0
0 0 0 0 0 2 7 0 6 2 248 64 0 121 28 26 44 65 3 1 5 15 6 1 5 1 0 0 1 66 57 17 0 0 5 9 2 22 28 19 25 38 60 23 1 0 0 0 0
0 0 0 0 0 1 7 24 233 48 143 134 8 198 70 21 36 4 1 1 0 0 5 3 0 3 3 0 0 29 11 0 0 0 5 1 0 2 4 0 0 0 0 0 0 0 0 0 0
0 0 0 0 0 10 44 167 169 258 319 132 94 202 27 1 0 0 2 2 1 1 1 2 1 8 5 0 0 6 0 0 1 8 0 0 0 2 3 0 0 0 0 0 0 0 0 0 0
0 0 0 0 0 0 1 5 3 114 79 60 17 19 0 0 1 3 2 2 2 2 2 0 1 2 0 0 0 0 0 0 10 23 4 0 3 8 3 0 0 0 0 0 0 0 0 0 0
0 0 0 0 0 0 0 0 0 193 148 104 41 41 1 0 1 2 0 1 1 1 3 1 0 0 0 0 0 0 0 0 26 43 38 15 15 23 15 12 0 0 0 0 0 0 0 0 0
0 0 0 0 0 0 0 0 0 72 22 85 0 4 0 0 0 1 1 2 1 2 2 6 1 0 0 0 0 0 0 0 0 0 26 56 86 97 59 19 15 1 0 0 0 0 0 0 0
0 0 0 0 0 0 0 0 0 0 22 2 0 0 1 0 0 0 1 1 2 0 1 2 5 0 0 0 0 0 0 0 0 0 0 42 50 131 109 25 10 0 0 0 0 0 0 0 0
0 0 0 0 0 0 0 0 0 0 0 0 0 0 0 0 0 0 0 0 0 0 0 1 0 0 0 0 0 0 0 0 0 0 0 0 48 64 48 40 12 0 0 0 0 0 0 0 0
0 0 0 0 0 26 0 0 0 0 0 0 0 0 0 0 0 0 0 0 0 0 1 0 0 0 0 0 0 0 0 0 0 0 0 3 14 69 71 7 0 0 0 0 0 0 0 0 0
0 0 0 0 0 10 2 5 0 0 0 0 0 0 0 0 0 0 0 0 0 0 0 0 0 0 0 0 0 0 0 0 0 0 0 0 0 8 63 29 1 0 0 0 0 0 0 0 0
0 0 0 0 0 0 0 0 0 0 0 0 0 0 0 0 0 0 0 0 0 0 0 0 0 0 0 0 0 0 0 0 0 0 0 0 0 0 16 12 0 0 0 0 0 0 0 0 0
0 0 0 0 0 0 0 0 0 0 0 0 0 0 0 0 0 0 0 0 0 0 0 0 0 0 0 0 0 0 0 0 0 0 0 0 1 11 13 2 0 0 0 0 0 0 0 0 0
0 0 0 0 0 0 0 0 0 0 39 35 0 0 0 0 0 0 0 0 0 0 0 0 0 0 0 0 0 0 0 0 0 0 0 1 9 20 27 0 0 0 0 0 0 0 0 0 0
0 0 0 0 0 0 0 0 0 46 58 146 62 0 0 0 2 0 0 0 0 0 0 0 0 0 0 0 0 0 0 0 0 0 0 0 41 40 15 0 0 0 0 0 0 0 0 0 0
0 0 0 0 0 0 0 0 0 0 25 68 87 37 0 0 0 9 0 0 0 0 0 0 0 0 0 0 0 0 0 0 0 0 0 0 12 1 0 0 0 0 0 0 0 0 0 0 0
0 0 0 0 0 0 0 0 0 0 0 0 15 100 19 0 0 0 0 0 0 0 0 0 0 0 0 0 0 0 0 14 1 0 0 0 0 0 0 0 0 0 0 0 0 0 0 0 0
0 0 0 0 0 0 0 0 0 0 0 0 0 0 28 4 0 12 0 0 0 0 0 0 0 0 0 0 0 3 17 23 40 5 0 0 0 0 0 0 0 0 0 0 0 0 0 0 0
0 0 1 0 0 0 0 0 0 0 0 0 0 0 2 0 0 17 0 0 0 0 0 0 0 0 0 0 0 0 1 8 14 1 0 0 0 0 0 0 0 0 0 0 0 0 0 0 0
0 0 0 2 0 0 0 0 0 0 0 0 0 0 0 3 5 0 20 12 0 0 0 0 0 0 0 0 0 0 11 17 2 0 0 0 0 0 0 0 0 0 0 0 0 0 0 0 0
0 0 0 0 1 0 0 0 0 0 0 0 0 0 0 0 0 2 0 27 23 4 0 0 4 13 21 23 57 58 114 45 0 0 3 0 0 0 0 0 0 0 0 0 0 0 0 0 0

GFSSGP_con_sbcape_054.txt.gz
CAPE
0 0 0 0 0 0 0 0 0 0 0 0 61 115 169 265 278 206 264 227 550 1414 1480 1391 1464 1459 1352 1315 1323 1350 1437 1340 1333 1207 1049 999 813 510 541 500 476 495 439 88 59 49 35 16 11
0 0 0 0 0 0 0 0 0 0 0 0 123 283 173 128 197 681 392 255 492 1522 1460 1314 1457 1477 1445 1395 1379 1461 1677 1436 1324 1190 1115 955 693 669 663 545 446 540 587 187 162 145 42 18 27
0 0 0 0 0 0 0 0 0 0 0 6 142 326 325 124 225 393 319 391 535 1349 976 1224 1361 1459 1471 1454 1468 1526 1598 1228 1207 1135 1091 877 687 701 729 479 483 566 386 131 93 84 57 13 24
0 0 0 0 0 0 0 0 0 0 0 1 83 54 116 152 534 790 737 451 522 504 821 949 1156 1373 1616 1518 1582 1559 1574 1144 994 957 994 773 612 758 630 424 444 479 124 9 43 105 0 0 0
0 0 0 0 0 0 0 0 0 5 0 0 0 0 140 180 397 584 641 455 533 424 762 926 1148 1186 1411 1510 1516 1443 1436 1178 929 826 753 632 516 538 546 455 384 157 24 5 5 13 0 0 0
0 0 0 0 0 0 0 0 0 0 33 24 0 0 0 280 268 298 457 586 439 311 150 605 1028 1037 831 868 869 884 1088 1074 823 677 751 564 432 402 486 272 66 22 83 300 279 51 0 0 0
0 0 0 0 0 0 0 0 0 1 2 2 0 9 0 176 50 253 378 520 543 366 164 75 194 294 290 158 27 314 654 792 785 693 681 528 457 290 250 101 8 1 52 231 87 0 0 0 0
0 0 0 0 0 0 0 0 0 0 0 10 20 361 33 65 286 502 609 669 656 600 195 32 2 6 1 2 1 33 452 609 600 655 649 465 409 285 86 0 0 0 0 14 55 0 0 0 0
0 0 0 0 0 0 0 0 0 0 33 131 240 163 172 375 272 312 241 335 352 243 1 1 2 1 2 0 1 58 162 213 427 629 480 308 182 65 0 0 0 0 0 0 0 4 0 0 0
0 0 0 0 0 0 0 0 0 0 0 41 56 43 124 76 65 282 151 141 151 139 2 1 0 1 0 2 12 19 13 153 298 428 303 192 90 1 0 0 0 0 0 0 4 28 18 0 0
0 0 0 0 0 0 0 0 0 0 0 0 10 11 28 17 40 105 61 85 29 35 8 6 2 1 0 2 0 0 0 50 224 268 240 117 60 65 0 0 0 0 0 0 0 0 0 0 0
0 0 0 0 0 0 0 0 0 0 3 25 0 14 17 17 14 25 12 8 12 2 1 7 3 4 1 0 0 0 0 1 27 152 217 132 54 24 0 0 0 0 0 0 0 0 0 0 0
0 0 0 0 0 0 0 0 0 0 26 0 35 67 25 1 2 4 1 0 1 3 3 5 6 5 0 0 0 0 0 0 36 61 147 123 39 9 0 0 0 0 0 0 0 0 0 0 0
0 0 0 0 0 0 0 0 0 0 18 2 25 71 38 0 0 1 1 1 1 0 3 2 1 2 0 0 0 0 0 0 17 59 40 44 8 0 0 0 0 0 0 0 0 0 0 0 0
0 0 0 0 0 0 0 0 0 0 23 28 1 14 3 1 0 0 1 0 0 0 0 5 4 0 0 0 0 0 0 0 4 33 7 2 0 0 0 0 0 0 0 0 0 0 0 0 0
0 0 0 0 0 0 0 0 0 0 54 22 0 0 0 0 0 1 0 0 0 0 1 0 7 2 0 0 0 4 6 1 6 16 0 0 0 0 0 0 0 0 0 0 0 0 0 0 0
0 0 0 0 0 0 0 0 0 0 3 0 0 0 0 0 0 0 0 0 0 0 1 0 1 4 8 3 0 0 0 5 7 0 0 7 4 0 0 0 0 0 0 0 0 0 0 0 0
0 0 0 0 0 0 0 0 0 3 0 5 0 0 0 0 0 0 0 0 0 0 0 1 2 1 1 0 0 0 0 0 0 0 8 23 30 15 14 2 0 0 0 0 0 0 0 0 0
0 0 0 0 0 0 0 0 0 0 0 0 0 0 0 0 0 0 0 0 0 0 3 1 2 3 0 0 0 0 0 0 0 1 28 50 64 73 49 37 17 0 0 0 0 0 0 0 0
0 0 0 0 0 0 0 0 0 0 0 0 0 0 0 0 0 0 0 0 0 1 1 2 2 1 0 0 0 0 0 0 0 0 6 10 24 68 76 39 33 0 0 0 0 0 0 0 0
0 0 0 0 0 0 0 0 0 0 0 0 0 0 0 0 0 0 0 0 0 0 0 2 0 0 0 0 0 0 0 0 0 0 0 0 1 1 39 34 15 0 0 0 0 0 0 0 0
0 0 0 0 0 0 0 0 0 0 0 0 0 0 0 0 0 0 0 0 0 0 0 0 0 0 0 0 0 0 0 0 0 0 0 0 0 0 1 20 13 0 0 0 0 0 0 0 0
0 0 0 0 0 0 0 0 0 0 0 0 0 0 0 0 0 0 0 0 0 0 0 0 0 0 0 0 0 0 0 0 0 0 0 0 0 0 0 0 0 0 0 0 0 0 0 0 0
0 0 0 0 0 0 0 0 0 0 0 0 0 0 0 0 0 0 0 0 0 0 0 0 0 0 0 0 0 0 0 0 0 0 0 0 0 0 0 0 0 0 0 0 0 0 0 0 0
0 0 0 0 0 0 0 0 0 0 0 0 0 0 0 0 0 0 0 0 0 0 0 0 0 0 0 0 0 0 0 0 0 0 0 0 0 0 0 0 0 0 0 0 0 0 0 0 0
0 0 0 0 0 0 0 0 0 0 0 0 0 0 0 0 0 0 0 0 0 0 0 0 0 0 0 0 0 0 0 0 0 0 0 0 0 0 0 0 0 0 0 0 0 0 0 0 0
0 0 0 0 0 0 0 0 0 0 0 0 0 0 0 0 0 0 0 0 0 0 0 0 0 0 0 0 0 0 0 0 0 0 0 0 0 0 0 0 0 0 0 0 1 0 0 0 0
0 0 0 0 0 0 0 0 0 0 0 0 0 0 0 0 0 0 0 0 0 0 0 0 0 0 0 0 0 0 0 0 0 0 0 0 0 0 0 0 0 0 1 5 2 0 0 0 0
0 0 0 0 0 0 0 0 0 0 0 0 0 0 0 0 0 0 0 0 0 0 0 0 0 0 0 0 0 0 0 0 0 0 0 0 0 0 0 0 0 0 0 0 0 0 0 0 0
0 0 0 0 0 0 0 0 0 0 0 0 0 0 0 0 0 0 0 0 0 0 0 0 0 0 0 0 0 0 0 0 0 0 0 0 0 0 0 0 0 0 0 0 0 0 0 0 0

GFSSGP_con_sbcape_057.txt.gz
CAPE
0 0 0 0 0 0 0 0 0 0 0 1 51 70 60 191 247 229 331 457 671 981 547 1053 1495 1426 1575 1734 1809 1718 1696 1632 1456 1409 1297 1060 838 710 563 443 378 341 230 24 23 23 27 35 23
0 0 0 0 0 0 0 0 0 0 0 0 40 202 151 106 245 761 414 362 528 1061 967 1259 1528 1526 1697 1676 1735 1724 1764 1615 1586 1429 1156 871 821 758 632 455 370 344 278 15 21 19 21 23 46
0 0 0 0 0 0 0 0 0 0 0 0 15 268 351 124 114 362 330 415 634 1572 1437 1402 1564 1538 1724 1719 1692 1650 1589 1503 1370 1228 1023 855 872 859 766 608 548 448 456 224 32 12 15 28 58
0 0 0 0 0 0 0 0 0 0 0 0 170 145 162 253 515 775 833 630 583 1294 1555 1489 1383 1364 1673 1771 1811 1640 1477 1274 1113 1065 887 944 954 947 776 604 609 643 605 176 14 6 8 21 4
0 0 0 0 0 0 0 0 0 0 0 0 0 0 60 94 422 564 766 538 830 599 1313 1587 1245 1313 1639 1773 1872 1550 1374 1152 1025 890 746 818 944 825 657 541 467 429 522 470 71 1 2 2 0
0 0 0 0 0 0 0 0 0 0 15 8 0 0 0 323 361 398 482 765 579 372 321 996 1264 1390 1313 1339 1749 1385 1219 1083 949 707 641 784 620 527 507 443 239 234 381 374 126 0 0 0 0
0 0 0 0 0 0 0 0 0 0 10 12 5 28 0 219 230 449 575 668 814 469 197 327 256 817 642 761 1145 1134 991 989 826 539 456 457 343 410 414 175 208 334 307 294 77 0 0 0 0
0 0 0 0 0 0 0 0 0 0 10 26 38 85 240 249 464 756 734 706 639 767 491 444 202 7 0 166 114 386 582 669 676 462 329 212 254 244 157 93 246 516 423 230 35 0 0 0 0
0 0 0 0 0 0 0 0 0 0 13 107 364 206 288 274 498 575 597 523 427 349 258 89 83 2 4 17 2 98 342 309 557 487 283 147 222 61 0 2 136 290 201 78 50 0 0 0 0
0 0 0 0 0 0 0 0 0 0 0 15 55 68 194 110 139 447 481 189 98 63 89 6 35 35 11 15 2 15 26 159 267 469 405 175 79 0 0 1 21 65 115 105 64 12 1 0 0
0 0 0 0 0 0 0 0 0 0 0 2 20 26 60 59 55 217 173 166 61 1 1 4 4 2 2 1 2 4 0 34 108 402 228 111 34 21 4 0 0 29 58 70 36 3 0 0 0
0 0 0 0 0 0 0 0 0 0 0 27 0 3 17 22 47 80 63 131 36 3 13 11 6 4 4 1 2 0 13 34 90 355 185 87 27 0 0 0 0 0 0 9 32 0 0 0 0
0 0 0 0 0 0 0 0 0 1 0 7 0 12 37 8 0 1 0 21 34 11 4 5 7 7 7 2 5 0 16 38 28 269 175 51 12 3 0 0 0 0 0 0 0 0 0 0 0
0 0 0 0 0 0 0 0 6 3 28 47 67 53 19 3 1 0 6 18 31 10 5 4 8 7 1 0 0 7 3 1 59 149 127 66 26 29 0 0 0 0 0 0 0 0 0 0 0
0 0 0 0 0 0 0 0 0 1 71 64 46 35 3 3 0 0 3 1 0 9 5 6 8 6 0 0 0 9 0 0 39 146 138 80 85 49 24 0 0 0 0 0 0 0 0 0 0
0 0 0 0 0 0 0 0 0 1 85 68 22 1 1 0 1 0 6 0 1 0 5 5 5 2 0 0 0 0 0 0 5 69 103 48 32 69 66 2 2 0 0 0 0 0 0 0 0
0 0 0 0 0 0 0 0 0 0 36 39 29 0 0 0 0 1 3 0 1 1 1 6 3 3 9 0 0 12 10 0 0 16 46 26 5 29 45 22 24 6 3 0 0 0 0 0 0
0 0 0 0 0 0 0 0 0 0 29 65 64 0 0 0 0 0 4 4 2 1 2 1 3 2 8 4 5 19 26 14 2 2 30 38 18 39 65 45 35 11 26 0 0 0 0 0 0
0 0 0 0 0 0 0 0 0 0 0 31 67 7 0 0 0 0 1 6 6 3 3 2 3 2 6 6 15 15 5 2 31 29 37 31 32 52 59 92 52 25 23 30 9 0 0 0 0
0 0 0 0 0 0 0 0 0 0 0 0 12 29 0 0 0 0 2 5 8 4 1 5 6 4 4 5 13 12 0 0 28 63 61 56 69 72 132 107 108 74 70 41 14 0 0 0 0
0 0 0 0 0 0 0 0 0 0 0 0 0 0 0 0 0 1 2 5 8 6 14 5 7 3 6 12 6 1 1 0 0 0 28 62 119 165 135 148 168 135 87 100 42 0 0 0 0
0 0 0 0 0 0 0 0 0 0 0 0 0 0 0 0 0 0 1 2 4 6 13 21 7 3 3 1 2 0 1 0 0 0 0 2 34 58 132 111 83 81 51 71 29 0 0 0 0
0 0 0 0 0 0 0 0 0 0 0 0 0 0 0 0 0 0 1 1 1 6 5 14 6 2 0 2 5 4 0 0 0 0 0 0 7 21 23 35 72 121 103 119 34 1 0 0 0
0 0 0 0 0 0 0 0 0 0 0 0 0 0 0 0 0 0 0 0 0 2 7 11 9 1 0 0 0 0 0 0 0 0 0 0 0 0 5 0 5 60 174 166 149 101 11 0 0
0 0 0 0 0 0 0 0 0 0 0 0 0 0 0 0 0 0 0 0 1 1 4 7 6 4 0 0 0 0 0 0 0 0 0 0 0 0 0 13 15 66 64 38 93 84 52 26 9
0 0 0 0 0 0 0 0 0 0 0 0 0 0 0 0 0 0 0 0 0 1 2 3 3 2 1 0 0 0 0 0 0 0 0 0 0 0 2 0 6 20 18 15 32 88 66 17 4
0 0 0 0 0 0 0 0 0 0 0 0 0 0 0 0 0 0 0 0 0 0 0 0 0 1 1 0 0 0 0 0 0 0 0 0 0 0 0 0 3 5 0 3 8 80 40 9 2
0 0 0 0 0 0 0 0 0 0 0 0 0 0 0 0 0 0 0 0 0 0 0 0 0 0 0 1 0 0 0 0 0 0 0 0 0 0 0 0 0 0 0 0 6 59 35 5 2
0 0 0 0 0 0 0 0 0 0 0 0 0 0 0 0 0 0 0 0 0 0 0 0 0 0 0 0 0 0 0 0 0 0 0 0 0 0 0 0 0 0 0 2 38 42 13 0 0
0 0 0 0 0 0 0 0 0 0 0 0 0 0 0 0 0 0 0 0 0 0 0 0 0 0 0 0 0 0 0 0 0 0 0 0 0 0 0 0 0 0 0 0 6 0 0 0 1

GFSSGP_con_sbcape_060.txt.gz
CAPE
0 0 0 0 0 0 0 0 0 0 0 0 38 61 95 161 104 166 763 923 1140 1306 1504 1164 1402 1842 2054 1918 1854 1819 1775 1699 1498 1557 1512 1529 1435 1322 1071 800 624 602 612 106 19 12 28 21 8
0 0 0 0 0 0 0 0 0 0 0 5 58 80 184 124 291 765 847 1042 883 1518 1615 1242 1498 1753 2097 2045 1955 1882 1921 1753 1611 1636 1511 1508 1269 1059 833 554 404 414 357 28 21 16 13 17 41
0 0 0 0 0 0 0 0 0 0 0 2 19 146 217 282 253 673 701 795 764 1559 1266 1240 1482 1514 2000 1993 1994 1898 1824 1663 1617 1500 1388 1302 1128 903 669 344 199 252 159 12 13 18 25 24 40
0 0 0 0 0 0 0 0 0 0 0 0 26 66 313 420 536 815 905 872 1349 1117 1234 1253 1484 1540 1951 2051 2071 1930 1703 1533 1481 1288 1342 1319 1175 904 643 301 337 492 273 9 14 20 21 23 17
0 0 0 0 0 0 0 0 0 0 0 15 25 0 33 395 465 536 884 934 1284 1021 1807 1361 1340 1237 1625 2100 2119 1909 1689 1509 1287 1231 1249 1231 1195 1041 617 458 432 519 206 62 12 15 15 16 1
0 0 0 0 0 0 0 0 0 0 0 51 51 29 19 348 395 613 743 961 1218 1360 1046 1473 1139 1044 1495 1717 1751 1624 1469 1377 1170 1179 1185 1220 1104 875 728 635 587 484 234 94 43 36 5 0 0
0 0 0 0 0 0 0 0 0 0 2 26 49 13 160 361 433 826 946 993 1172 1199 766 823 595 300 513 738 1197 893 1232 1190 1072 1073 1084 1008 817 704 594 551 612 488 176 114 47 5 0 0 0
0 0 0 0 0 0 0 0 0 0 0 94 82 22 38 646 612 896 922 781 1107 970 510 727 605 360 229 110 364 588 683 894 851 964 892 612 587 521 260 226 410 405 191 65 72 0 0 0 0
0 0 0 0 0 0 0 0 0 2 1 80 279 273 494 424 461 714 855 760 697 1071 830 831 428 314 171 146 171 639 792 665 616 861 640 463 513 268 96 83 299 326 89 54 72 0 0 0 0
0 0 0 0 0 0 0 0 0 0 0 22 93 384 494 421 374 557 588 734 404 480 230 396 149 201 97 60 19 91 314 408 524 589 747 423 533 233 8 187 285 181 96 98 59 0 0 0 0
0 0 0 0 0 0 0 0 0 0 0 0 1 75 442 472 385 197 352 434 287 387 118 166 196 72 119 97 60 7 35 62 100 167 421 473 372 130 87 285 305 220 47 11 0 0 0 0 0
0 0 0 0 0 0 0 0 0 0 0 16 7 93 413 373 127 100 133 219 173 134 234 21 151 28 68 87 10 27 25 83 82 65 166 282 133 151 137 168 159 125 62 53 6 1 8 0 0
0 0 0 0 0 0 0 0 0 0 2 20 51 120 329 165 17 5 28 11 76 85 14 7 11 21 8 1 0 1 3 44 74 42 154 252 191 139 53 82 106 125 171 155 51 34 21 0 0
0 0 0 0 0 0 0 0 0 0 0 94 102 159 202 140 23 0 6 6 29 67 45 8 9 15 11 8 7 7 10 19 63 60 223 247 175 133 54 40 1 11 90 122 40 22 19 0 0
0 0 0 0 0 0 0 0 0 0 40 72 147 190 184 128 1 0 5 11 5 46 33 8 10 9 15 12 9 17 8 34 34 67 230 211 156 145 90 27 20 5 17 13 8 8 9 3 1
0 0 0 0 0 0 0 0 0 0 28 49 107 125 167 142 0 0 2 1 13 22 5 13 8 8 17 13 10 12 3 17 84 118 181 155 136 117 89 40 29 8 0 0 5 3 9 3 0
0 0 0 0 0 0 0 0 0 0 0 0 55 131 127 66 5 0 0 6 2 4 18 9 9 5 6 2 1 9 0 1 53 101 140 135 101 106 82 50 97 50 0 0 0 0 0 0 0
0 0 0 0 0 0 0 0 0 0 3 19 29 115 206 123 13 0 0 3 8 18 3 13 9 7 8 1 6 30 0 1 23 43 171 121 90 108 76 58 118 84 28 22 10 0 0 0 0
0 0 0 0 0 0 0 0 0 0 0 17 74 129 186 193 31 0 0 3 11 8 13 3 6 3 9 8 16 35 22 0 11 25 69 131 108 142 138 119 132 108 99 94 76 32 17 0 0
0 0 0 0 0 0 0 0 0 0 0 0 55 131 204 251 62 0 0 1 4 13 23 3 4 8 5 12 0 6 48 45 13 7 40 108 150 132 134 150 119 106 147 156 130 94 71 29 0
0 0 0 0 0 0 0 0 0 0 0 0 14 53 127 248 162 9 0 0 3 6 3 26 35 9 4 2 14 27 41 1 18 18 14 56 153 198 118 139 174 167 153 196 207 169 160 133 38
0 0 0 0 0 0 0 0 0 0 0 0 0 46 69 168 147 37 1 0 0 1 11 22 34 35 17 11 12 22 3 8 0 18 42 87 124 162 157 131 192 251 236 203 269 268 242 266 235
0 0 0 0 0 0 0 0 0 0 0 0 0 0 43 77 142 72 18 0 0 0 7 11 21 16 10 15 12 8 2 0 0 6 45 98 79 114 146 167 231 286 285 261 293 244 217 245 264
0 0 0 0 0 0 0 0 0 0 0 0 0 0 0 22 87 99 31 0 0 0 1 8 7 14 12 11 12 12 11 0 0 5 5 8 36 83 106 142 246 279 208 119 54 156 296 306 238
0 0 0 0 1 0 0 0 0 0 0 0 0 0 0 10 70 110 69 18 10 0 0 1 6 6 15 12 14 17 20 7 0 0 0 0 41 37 41 77 197 135 89 70 50 181 382 414 312
0 0 0 0 2 0 0 0 0 0 0 0 0 0 0 1 62 125 105 56 36 0 0 0 2 5 16 23 13 16 28 18 0 0 0 0 0 16 1 0 84 89 49 75 198 162 141 186 235
0 0 0 0 0 1 13 0 0 0 0 0 0 0 0 0 66 135 149 112 61 7 0 0 0 0 12 12 15 14 26 24 21 1 0 0 7 0 0 0 7 80 80 97 104 176 96 244 288
2 0 0 0 3 15 6 2 0 0 0 0 0 0 0 0 35 129 204 163 118 35 0 0 0 0 0 8 17 17 19 18 25 37 23 8 23 17 2 0 13 23 34 46 60 127 137 237 335
0 0 0 8 4 13 14 15 0 0 0 0 0 0 0 0 76 195 213 195 169 111 31 1 0 0 0 1 5 7 8 11 26 21 30 22 25 9 8 7 9 15 26 33 84 70 61 151 264
5 13 10 15 10 5 26 14 0 0 0 0 0 0 15 0 4 105 258 268 156 156 97 40 7 0 0 0 0 2 5 7 9 11 7 36 30 39 18 20 24 17 30 78 84 132 27 154 276

GFSSGP_con_sbcape_066.txt.gz
CAPE
0 0 0 0 0 0 0 0 0 0 0 0 0 0 0 0 0 329 975 1196 1443 2004 1570 1384 1806 2158 1961 1888 1831 1791 1726 1636 1505 1566 1515 1407 1360 1291 1266 1255 1148 1140 1120 684 573 379 247 329 429
0 0 0 0 0 0 0 0 0 0 0 0 0 0 0 2 37 34 1284 1134 1183 1457 1766 1579 1606 2001 2055 1902 1803 1857 1872 1797 1627 1613 1666 1499 1477 1585 1343 1169 1048 1121 1112 625 504 334 137 166 233
0 0 0 0 0 0 0 0 0 0 0 0 0 0 0 8 67 92 1073 1041 1188 1399 1776 1683 1522 1742 2043 1871 1730 1861 1807 1672 1593 1630 1784 1572 1675 1573 1365 1096 999 1015 993 472 323 93 44 54 14
0 0 0 0 0 0 0 0 0 0 0 0 0 0 34 203 27 748 617 746 952 1340 1700 1050 1353 1632 2010 1965 1779 1684 1741 1520 1562 1660 1745 1874 1679 1552 1260 980 835 839 790 321 98 29 4 1 0
0 0 0 0 0 0 0 0 0 0 0 0 0 0 21 406 311 376 507 769 965 1463 2062 1299 1124 1451 1759 1703 1611 1119 938 1405 1342 1764 1755 1639 1519 1333 1080 913 714 526 368 326 93 7 0 0 0
0 0 0 0 0 0 1 0 0 0 0 0 1 2 14 603 143 810 727 686 1031 1183 1903 1894 1155 1279 1195 1110 659 401 588 900 1154 1667 1569 1473 1231 971 869 696 539 393 212 163 86 9 0 0 0
0 0 0 0 0 0 0 0 0 0 0 0 6 0 22 431 500 708 770 1254 1466 1444 1500 1721 1866 1130 241 228 122 10 3 76 828 1264 1226 1088 775 644 684 619 461 378 228 127 39 0 0 0 0
0 0 0 0 0 0 1 0 0 0 0 0 0 0 89 766 875 801 1001 1287 857 1325 1358 1108 1231 624 343 240 50 21 1 17 105 847 765 602 627 798 609 350 318 293 184 79 4 0 0 0 0
0 0 0 0 0 0 0 0 0 0 0 0 0 0 374 917 450 679 862 1060 1075 1243 1158 1134 928 512 434 174 110 35 9 0 15 663 463 412 521 557 306 143 193 197 67 53 16 0 0 0 0
0 0 0 0 0 0 0 0 0 0 0 0 0 7 520 202 287 359 360 1127 1126 798 1136 1147 625 312 132 106 118 141 20 2 8 367 322 367 485 398 277 153 111 78 7 4 10 0 0 0 0
0 0 0 0 0 0 0 0 0 0 0 0 0 0 65 490 370 415 448 268 1045 755 807 697 389 331 198 178 216 108 0 12 195 304 259 405 425 249 199 49 19 0 0 0 0 0 0 0 0
0 0 0 0 0 0 0 0 0 0 0 0 0 0 0 150 326 289 163 184 632 423 332 337 250 215 164 111 135 48 27 2 151 201 196 275 231 126 161 0 0 0 0 0 0 0 0 0 0
0 0 0 0 0 0 0 0 0 0 0 0 0 0 8 99 160 135 158 200 184 148 36 146 61 40 37 85 69 34 20 17 48 127 93 124 117 126 96 0 0 0 0 0 0 0 0 0 0
0 0 0 0 0 0 0 0 0 0 0 0 0 0 28 86 159 73 164 42 188 147 50 49 55 9 18 41 41 29 0 3 3 0 22 27 58 132 129 21 0 2 0 0 0 0 0 0 0
0 0 0 0 0 0 0 0 0 0 0 0 0 0 10 415 151 90 55 113 154 47 25 3 14 11 5 29 23 20 7 1 0 0 12 17 30 115 114 105 29 20 0 0 0 16 0 1 0
0 0 0 0 0 0 0 0 0 0 0 0 0 0 12 239 216 88 3 60 82 137 94 0 2 6 7 10 4 4 9 2 0 0 4 4 13 70 98 89 110 96 32 87 19 8 0 2 0
0 0 0 0 0 0 0 0 0 0 0 0 0 10 28 171 354 184 0 10 95 91 85 8 9 6 3 0 5 2 1 3 2 1 0 0 2 23 74 54 106 134 85 115 30 20 3 3 1
0 0 0 0 0 0 0 0 0 0 0 0 0 0 51 62 216 216 0 0 89 82 16 0 9 8 5 5 6 7 2 12 5 6 0 0 0 40 69 49 82 56 8 97 53 63 67 10 5
0 0 0 0 0 0 0 0 0 0 0 5 0 0 4 72 162 200 0 0 23 102 6 9 10 2 0 1 10 4 2 2 1 0 0 0 10 35 40 56 71 54 53 30 45 77 22 15 7
0 0 0 0 0 0 0 0 0 0 0 2 3 11 4 34 204 205 0 0 16 92 14 11 6 0 0 0 2 9 2 1 0 7 1 1 7 9 16 37 85 113 105 71 62 18 7 1 2
0 0 0 0 0 0 0 0 0 0 0 0 0 0 5 31 163 207 5 0 2 133 0 7 10 0 0 3 1 8 3 4 3 1 9 1 1 4 6 89 93 88 177 140 118 148 42 36 8
0 0 0 0 4 1 0 0 0 0 0 0 0 0 0 0 50 239 41 0 11 38 7 1 5 2 0 0 5 3 6 3 0 4 0 0 4 18 15 80 83 98 148 176 165 161 166 126 20
0 5 0 0 2 1 0 0 0 0 0 0 0 0 0 0 3 291 120 1 5 22 19 0 1 8 1 3 2 3 2 2 0 1 0 0 0 22 42 97 132 190 119 146 123 123 151 172 106
0 0 0 12 11 1 0 0 0 0 0 0 2 2 0 0 2 79 238 51 6 20 17 5 2 5 10 2 4 0 0 1 1 0 0 0 0 0 22 61 71 72 110 114 89 57 61 132 100
0 1 1 7 13 5 0 0 0 0 0 0 0 0 0 0 4 6 228 121 2 23 42 2 6 11 13 11 1 5 0 0 0 0 0 0 0 0 0 25 43 26 33 105 88 57 57 60 73
1 0 3 18 39 0 0 0 0 1 0 0 0 0 0 2 14 0 160 214 32 10 35 20 0 4 7 9 6 0 0 0 0 0 0 0 0 0 0 0 14 25 28 41 60 23 15 14 19
0 0 0 0 0 0 1 0 21 0 0 0 0 0 0 0 0 0 69 294 124 4 15 12 2 0 5 13 8 7 1 0 1 0 0 0 0 0 0 7 7 20 41 39 15 13 3 7 15
2 0 1 3 0 5 45 12 14 22 0 0 0 7 7 2 7 5 26 378 272 22 14 41 0 0 0 8 8 9 10 8 2 0 0 0 0 0 0 1 18 23 32 34 22 19 1 8 12
8 2 4 2 0 3 7 14 167 19 39 40 19 6 14 14 5 45 67 364 415 202 31 42 15 0 3 0 5 7 9 8 9 1 0 0 0 0 0 0 7 19 37 31 8 3 1 7 1
4 0 4 6 0 0 12 19 4 0 0 1 4 18 24 44 0 59 216 314 469 399 133 47 22 3 7 11 6 3 6 11 15 11 7 4 1 0 0 0 5 1 0 7 10 9 13 12 2

GFSSGP_con_sbcape_069.txt.gz
CAPE
0 0 0 0 0 0 0 0 0 0 0 0 0 0 0 0 41 438 747 1011 1588 1184 1451 1836 1839 1696 1765 1814 1781 1739 1536 1665 1757 1674 1499 1292 1257 1208 1030 1067 1325 1338 1282 874 184 225 319 477 705
0 0 0 0 0 0 0 0 0 0 0 0 0 0 0 0 547 1064 924 961 1197 1247 1285 1605 2024 1852 1834 1816 1794 1815 1767 1778 1831 1735 1567 1456 1469 1516 1500 1353 1249 1278 1160 841 479 338 256 520 498
0 0 0 0 0 0 0 0 0 0 0 0 0 0 0 31 10 791 817 917 1133 1078 1302 1371 1838 1971 1913 1845 1801 1793 1763 1657 1767 1675 1625 1614 1716 1733 1531 1293 1083 1209 1179 807 484 313 352 386 334
0 0 0 0 0 0 0 0 0 0 0 0 0 0 28 2 214 699 634 654 1042 1040 1412 1315 1522 2045 2027 1906 1835 1827 1735 1498 1609 1651 1678 1814 1846 1733 1408 1152 1155 1229 1196 597 353 251 236 51 35
0 0 0 0 0 0 0 0 0 0 0 0 0 0 60 220 280 252 503 557 636 993 1187 1097 1363 1905 1958 1718 1898 1586 1576 1478 1574 1633 1643 1632 1740 1574 1232 1006 1032 1077 954 661 283 158 26 0 17
0 0 0 0 0 0 0 0 0 0 0 0 0 0 100 60 108 383 332 415 634 1538 1214 1088 1026 1454 1512 1595 1436 1103 839 1007 1076 1159 1273 934 1361 1178 1021 852 848 806 503 274 187 52 23 14 2
0 0 0 0 0 0 0 0 0 0 0 0 0 0 68 42 371 297 338 617 854 1090 1052 1184 951 611 363 351 208 68 88 4 158 587 479 761 898 866 867 730 592 520 321 161 72 24 3 0 0
0 0 0 0 0 0 0 0 0 0 0 0 0 0 74 213 244 199 606 553 583 989 887 856 610 161 33 10 10 39 117 168 0 28 330 509 679 636 657 557 490 329 183 68 54 3 0 0 0
0 0 0 0 0 0 0 0 0 0 0 0 0 0 323 532 479 252 534 495 474 780 711 560 556 210 54 13 3 38 100 140 25 9 3 335 421 339 312 253 285 181 63 53 38 0 0 0 0
0 0 0 0 0 0 0 0 0 0 0 0 0 376 747 344 168 247 436 526 614 626 605 517 302 50 26 35 7 0 0 22 2 0 20 147 240 99 154 158 139 75 31 15 0 0 0 0 0
0 0 0 0 0 0 0 0 0 0 0 0 0 220 184 67 43 32 75 222 545 412 574 383 121 17 0 2 0 1 1 0 0 0 0 191 132 73 58 25 18 1 3 0 0 0 0 0 0
0 0 0 0 0 0 0 0 0 0 0 0 0 6 83 143 53 46 33 338 378 200 274 162 65 37 0 7 0 0 0 1 0 0 0 190 97 46 4 1 0 0 0 0 0 0 0 0 0
0 0 0 0 0 0 0 0 0 0 0 0 0 0 0 28 27 9 10 47 93 104 74 30 3 14 0 0 0 0 0 3 2 22 57 111 75 8 0 0 0 0 0 0 0 0 0 0 0
0 0 0 0 0 0 0 0 0 0 0 0 0 0 0 0 26 0 0 0 18 6 8 0 4 1 0 0 0 1 1 0 40 36 46 40 60 0 0 0 0 0 0 0 0 0 0 0 0
0 0 0 0 0 0 0 0 0 0 0 0 0 0 0 0 27 0 0 0 6 7 0 0 0 0 0 4 0 0 1 8 13 13 4 28 35 0 0 0 0 0 0 0 0 0 0 0 0
0 0 0 0 0 0 0 0 0 0 0 0 0 0 0 0 43 0 0 0 0 0 0 0 0 0 0 0 0 1 0 1 3 8 0 0 25 7 0 0 0 0 0 0 0 0 0 0 0
0 0 0 0 0 0 0 0 0 0 0 0 0 0 0 0 4 0 0 0 0 0 0 0 0 1 0 0 0 0 0 0 0 0 0 0 0 20 14 2 0 0 0 0 0 0 0 0 0
0 0 0 0 0 0 0 0 0 0 0 0 0 0 0 0 6 0 0 0 0 0 0 0 5 4 0 1 3 2 7 0 0 0 0 0 0 0 8 41 29 44 7 0 0 0 0 0 0
0 0 0 0 0 0 0 0 0 0 0 0 0 0 0 0 6 0 0 0 0 0 0 1 4 0 2 2 3 3 0 2 1 0 0 0 0 0 9 19 26 12 58 5 0 3 1 0 0
0 0 0 0 0 0 0 0 0 0 0 0 0 0 0 0 0 0 0 0 0 0 0 0 0 0 0 0 1 0 2 8 3 1 0 0 0 0 0 16 25 1 27 25 0 0 0 0 0
0 0 0 0 0 0 0 0 0 0 0 0 0 0 0 2 0 0 0 0 0 0 0 0 0 0 0 0 0 1 0 1 0 0 0 0 0 0 0 5 4 0 1 0 0 0 0 0 0
0 0 0 0 0 0 0 0 0 0 0 0 0 0 0 0 0 0 0 0 0 0 0 0 0 0 0 0 2 1 1 0 0 0 0 0 0 0 0 0 0 0 15 12 20 17 1 1 0
0 12 0 0 0 0 0 0 0 0 0 0 0 0 0 0 5 0 0 0 0 0 0 0 0 0 0 2 0 1 0 0 0 0 0 0 0 0 0 1 0 2 20 38 55 66 47 25 0
0 1 0 0 0 0 0 0 0 0 0 0 0 0 0 0 15 0 0 0 0 0 0 0 0 1 0 0 1 0 0 0 0 0 0 0 0 0 0 0 31 44 26 70 58 61 57 52 44
0 2 9 0 0 0 0 0 0 0 0 0 0 0 0 0 13 0 0 0 0 0 0 0 0 0 0 0 0 0 0 0 0 0 0 0 0 0 0 1 9 32 35 33 50 31 33 28 35
0 1 0 12 8 2 0 0 0 0 0 0 0 0 0 0 6 0 0 0 0 0 0 0 0 0 2 1 0 0 0 0 0 0 0 0 0 0 0 0 13 11 9 12 36 21 20 36 41
1 1 0 1 0 0 0 0 0 0 0 0 0 0 0 0 0 13 0 0 0 0 0 0 0 0 1 0 0 0 0 0 0 0 0 0 0 0 0 0 0 6 2 1 17 14 11 25 28
1 2 2 6 13 0 0 3 0 0 0 0 0 0 0 0 0 4 0 0 0 0 0 0 0 0 0 0 5 2 1 1 0 0 0 0 0 0 0 0 0 0 1 6 17 16 0 2 7
5 4 9 7 0 0 0 0 0 0 0 0 0 0 0 0 0 0 28 0 0 0 0 0 0 0 0 0 1 4 3 0 0 0 0 0 0 0 0 0 0 0 0 3 6 6 2 0 0
5 0 0 17 12 0 0 0 0 0 0 0 0 0 0 0 0 0 16 0 0 0 0 0 0 0 0 0 0 0 4 6 2 1 0 0 0 0 0 0 0 0 0 0 0 0 1 0 0

GFSSGP_con_sbcape_072.txt.gz
CAPE
0 0 0 0 0 0 0 0 0 0 0 0 0 0 0 0 18 3 398 1228 1219 1489 1695 1557 1591 1739 1768 1788 1687 1581 1818 1822 1700 1599 1475 1421 1307 1246 1067 941 1040 1274 1327 899 641 726 728 596 728
0 0 0 0 0 0 0 0 0 0 0 0 0 0 0 276 922 847 799 1382 1122 1341 1681 1704 1608 1728 1831 1816 1770 1629 1851 1828 1761 1595 1474 1448 1382 1255 1404 1273 1122 1248 1299 821 630 814 669 766 660
0 0 0 0 0 0 0 0 0 0 0 0 0 0 0 252 927 846 519 1288 1135 1130 1511 1836 1620 1688 1862 1831 1792 1630 1764 1820 1734 1558 1567 1561 1462 1686 1732 1491 1392 1291 975 771 524 683 660 677 479
0 0 0 0 0 0 0 0 0 0 0 0 0 2 0 0 696 663 638 845 1091 1103 1210 1610 1704 1715 1860 1866 1863 1699 1680 1623 1576 1527 1643 1776 1836 1868 1667 1395 1352 1363 1213 1026 816 760 762 461 299
0 0 0 0 0 0 0 0 0 0 0 0 0 0 0 279 438 521 454 817 575 887 1145 1210 1643 1747 1876 1976 1918 1696 1574 1556 1544 1554 1601 1770 1872 1802 1440 1306 1229 1164 1058 958 869 706 358 170 40
0 0 0 0 0 0 0 0 0 0 0 0 0 6 7 174 243 294 271 399 903 918 839 962 1411 1767 1921 1820 1498 1326 1375 1406 1325 1436 1605 1676 1574 1418 1383 1256 1010 965 790 670 614 207 91 19 0
0 0 0 0 0 0 0 0 0 0 0 0 0 0 19 12 157 200 146 495 1045 989 880 790 867 692 605 1356 1043 821 790 288 353 311 643 343 677 767 1098 1149 1046 729 577 507 278 94 21 11 0
0 0 0 0 0 0 0 0 0 0 0 0 0 6 45 1 196 107 484 495 687 588 543 699 445 87 21 59 200 209 465 174 139 155 9 71 280 502 799 871 727 534 412 304 181 53 18 3 0
0 0 0 0 0 0 0 0 0 0 4 0 0 2 0 181 40 449 271 55 500 483 294 360 243 71 0 0 64 169 253 205 205 97 5 29 145 319 508 368 410 354 185 120 77 19 6 0 0
0 0 0 0 0 0 0 0 0 0 0 0 7 518 256 253 133 502 446 361 204 408 259 220 122 31 1 0 7 2 56 36 3 0 1 0 0 208 227 260 225 172 88 64 37 1 0 0 0
0 0 0 0 0 0 0 0 0 0 0 0 0 600 479 427 189 224 379 317 232 303 275 206 21 0 0 0 0 0 0 0 0 0 0 0 0 116 164 113 43 41 65 22 0 0 0 0 0
0 0 0 0 0 0 0 0 0 0 0 0 2 622 455 246 65 14 0 176 135 333 271 158 4 0 0 0 1 1 0 0 0 0 0 4 26 103 54 22 0 4 0 0 0 0 0 0 0
0 0 0 0 0 0 0 0 0 0 0 0 11 278 270 21 3 0 97 158 91 160 91 131 0 0 0 1 1 0 1 1 0 0 0 36 69 25 1 1 0 0 0 0 0 0 0 0 0
0 0 0 0 0 0 0 0 0 0 0 0 0 68 16 8 0 0 55 68 1 6 12 0 3 0 0 0 0 1 0 2 1 1 0 7 22 0 0 0 0 0 0 0 0 0 0 0 0
0 0 0 0 0 0 0 0 0 0 0 0 0 0 0 0 0 5 1 27 0 0 0 0 1 0 0 0 0 1 0 12 8 0 0 46 1 0 0 0 0 0 0 0 0 0 0 0 0
0 0 0 0 0 0 0 0 0 0 0 0 0 0 0 0 0 0 0 0 0 0 0 0 0 0 0 0 1 1 6 4 8 6 30 3 0 0 0 0 0 0 0 0 0 0 0 0 0
0 0 0 0 0 0 0 0 0 0 0 0 0 0 0 0 0 0 1 0 0 0 0 0 0 0 0 1 1 0 0 8 4 3 7 4 0 0 0 0 0 0 0 0 0 0 0 0 0
0 0 0 0 0 0 0 0 0 0 0 0 0 0 0 0 4 0 21 0 0 0 0 0 0 0 0 0 1 2 0 0 0 3 12 24 4 0 0 0 0 0 0 0 0 0 0 0 0
0 0 0 0 0 0 0 0 0 0 0 0 0 0 0 3 15 0 6 0 0 0 0 0 0 0 0 2 1 3 2 1 1 0 0 0 1 0 0 0 0 0 0 0 0 0 0 0 0
0 0 0 0 0 0 0 0 0 0 0 0 0 0 0 10 0 0 11 0 0 0 0 0 0 0 1 0 2 0 0 1 0 0 0 0 0 0 0 0 5 14 0 0 0 0 0 0 0
0 0 0 0 0 0 0 0 0 0 0 0 0 0 0 9 7 0 8 1 0 0 0 1 0 1 0 0 0 0 0 1 1 1 1 1 0 0 10 1 14 21 33 5 0 0 0 0 0
0 0 2 0 0 0 0 0 0 0 0 0 0 0 0 0 5 0 0 0 0 0 0 0 0 0 0 0 0 0 2 3 1 0 0 0 0 0 0 9 6 7 41 17 0 0 0 0 0
0 0 0 0 0 0 0 0 0 0 0 0 0 0 0 0 2 0 0 3 0 0 1 0 0 0 0 0 0 0 2 0 2 0 0 0 0 0 0 0 1 0 18 1 0 11 0 0 0
0 16 17 1 0 0 0 0 0 0 0 0 0 0 0 1 3 0 0 5 0 0 0 0 0 0 0 0 0 0 0 0 1 0 0 0 0 0 0 0 0 0 1 1 0 0 0 0 0
9 33 35 27 6 0 0 0 0 0 0 0 0 0 0 0 0 0 0 0 0 0 0 0 0 1 0 0 0 0 0 0 0 0 0 0 0 0 0 0 0 0 0 3 1 0 3 14 30
6 14 30 10 14 4 0 0 0 0 0 0 0 0 0 0 0 0 0 0 0 0 0 0 0 0 0 1 0 0 0 0 0 0 0 0 0 0 0 0 0 0 0 1 22 7 5 32 40
1 13 0 2 1 0 0 0 0 0 0 0 0 0 0 0 0 0 0 0 0 0 0 0 0 0 0 0 0 0 0 0 0 0 0 0 0 0 0 0 1 0 7 11 16 22 40 33 17
11 2 1 14 2 19 0 1 13 0 0 0 0 0 0 0 3 0 0 0 0 0 0 0 0 0 0 0 0 0 0 0 0 0 0 0 0 0 0 0 0 0 0 3 15 17 14 19 12
16 30 22 5 5 36 18 33 0 0 0 0 0 0 0 0 0 0 0 0 0 0 0 0 0 0 0 1 0 0 0 0 0 0 0 0 0 0 0 0 0 0 0 0 0 4 1 1 6
0 3 12 77 4 0 0 0 0 0 0 0 0 0 0 0 0 0 0 0 0 0 0 0 0 0 0 0 0 0 0 0 0 1 0 0 0 0 0 0 0 0 0 0 0 1 1 0 0

GFSSGP_con_sbcape_078.txt.gz
CAPE
0 0 0 0 0 0 0 0 0 0 0 0 0 0 0 0 0 0 12 860 961 1010 1142 1298 1503 1617 1602 1656 1610 1825 2022 2175 2188 2090 2025 1957 1884 1701 1642 1718 1617 1657 1715 1605 1573 1279 1114 1080 1071
0 0 0 0 0 0 0 0 0 0 0 0 0 0 0 0 398 418 701 818 1136 1126 1070 1254 1518 1641 1643 1664 1750 1759 2125 2205 2230 2161 2066 1982 1886 1740 1573 1545 1682 1641 1620 1686 1326 1348 1182 1052 1068
0 0 0 0 0 0 0 0 0 0 0 0 0 0 0 0 591 520 602 1067 1228 1292 1139 1211 1524 1603 1720 1681 1784 1806 1926 2053 2063 2033 2089 2033 1937 1848 1851 1523 1662 1714 1726 1697 1498 1372 1208 1063 808
0 0 0 0 0 0 0 0 0 0 0 0 0 0 0 0 492 596 585 1279 1263 1378 1265 1218 1459 1593 1783 1745 1838 1837 1827 1777 1855 1892 1999 2045 1974 1935 1903 1655 1668 1665 1695 1717 1523 1388 1094 745 589
0 0 0 0 0 0 0 0 0 0 0 0 0 0 0 0 259 455 1399 1175 1058 1156 1229 1217 1401 1593 1812 1847 1918 1872 1767 1655 1695 1824 1862 1891 1886 1849 1758 1592 1576 1627 1621 1605 1287 1137 788 492 342
0 0 0 0 0 0 0 0 0 0 0 0 0 0 0 3 327 575 1326 1180 812 923 1057 1120 1383 1541 1763 1806 1720 1596 1593 1630 1617 1712 1707 1470 1211 1082 1180 1431 1473 1350 1479 1189 1067 808 498 326 166
0 0 0 0 0 0 0 0 0 0 0 0 0 0 0 22 151 297 760 697 656 652 744 1040 1189 1453 1682 1697 1583 1234 1176 1281 1378 1088 630 445 275 546 760 1005 1309 1221 1037 981 787 531 294 174 59
0 0 0 0 0 0 0 0 0 0 0 0 0 0 0 7 53 150 535 484 499 488 516 617 1086 1352 1425 1507 1454 693 736 659 163 85 83 6 3 114 318 539 687 775 841 776 555 307 218 90 8
0 0 0 0 0 0 0 0 0 0 0 0 0 0 0 23 103 248 568 466 460 426 395 274 361 505 566 681 848 669 482 283 155 91 34 22 5 144 142 301 316 600 369 492 170 152 133 22 0
0 0 0 0 0 0 0 0 0 0 0 0 0 2 30 93 216 381 552 642 454 473 243 215 34 1 1 186 428 412 364 130 32 1 0 0 11 19 64 96 218 220 190 152 67 120 29 1 0
0 0 0 0 0 0 0 0 0 0 0 0 0 0 36 109 228 412 484 461 576 348 41 56 74 0 0 36 102 242 78 4 5 4 0 0 11 49 84 74 118 119 93 0 0 0 0 0 0
0 0 0 0 0 0 0 0 0 0 0 0 0 0 5 142 257 367 452 344 278 155 17 12 34 33 0 1 9 3 43 3 12 20 10 4 42 72 55 84 60 62 12 0 0 0 0 0 0
0 0 0 0 0 0 0 0 0 0 0 0 0 0 0 55 293 428 427 303 111 144 5 7 1 26 0 0 1 1 3 1 1 1 0 0 7 44 92 77 23 28 0 0 0 0 0 0 0
0 0 0 0 0 0 0 0 0 0 0 0 0 0 0 70 275 160 277 317 139 66 21 32 3 0 0 0 0 0 1 1 1 0 1 0 0 0 48 49 19 0 0 0 0 0 0 0 0
0 0 0 0 0 0 0 0 0 0 0 0 0 0 0 282 379 231 229 245 175 87 17 96 47 0 0 0 1 0 0 0 0 0 1 0 0 1 86 59 15 0 0 0 0 0 0 0 0
0 0 0 0 0 0 0 0 0 0 0 0 0 0 0 290 463 259 132 96 105 20 12 31 15 0 1 1 1 2 1 1 1 1 1 1 1 101 154 75 12 0 0 0 0 0 0 0 0
0 0 0 0 0 0 0 0 0 0 0 0 0 0 0 0 145 141 32 121 38 3 0 0 0 0 1 1 0 0 1 3 6 1 2 1 1 7 92 20 0 0 0 0 0 0 0 0 0
0 0 0 0 0 0 0 0 0 0 0 0 0 0 0 0 0 50 47 77 14 0 0 0 1 0 0 0 0 2 5 9 7 16 1 3 1 24 9 1 0 0 0 0 0 0 0 0 0
0 0 0 0 0 0 0 0 0 0 0 0 0 0 0 0 0 0 62 48 0 0 0 0 1 1 0 0 1 4 2 2 9 19 16 3 8 27 0 0 0 0 0 0 0 0 0 0 0
0 0 0 0 0 0 0 0 0 0 0 0 0 0 0 0 0 0 51 41 3 8 1 0 0 0 0 0 0 0 1 0 2 1 4 2 1 0 1 0 0 0 0 0 0 0 0 0 0
0 0 0 0 0 0 0 0 0 0 0 0 0 0 0 0 0 0 15 39 3 4 6 0 0 0 0 0 0 0 0 1 1 1 9 3 2 1 0 0 0 0 0 0 0 0 0 0 0
0 0 0 0 10 0 0 1 0 0 0 0 0 0 0 0 0 0 2 22 7 2 6 0 0 0 0 0 0 0 0 1 0 0 1 3 1 1 0 0 0 0 0 0 0 0 0 0 0
0 0 0 0 0 2 2 0 0 0 0 0 0 0 0 0 0 6 8 39 11 0 0 0 0 0 0 0 0 0 0 0 0 1 1 1 0 0 0 0 0 0 0 0 6 0 0 0 0
0 4 4 0 1 6 0 0 0 0 0 0 0 0 0 0 0 0 1 15 24 1 0 0 0 0 0 0 0 0 0 0 0 0 3 1 0 2 0 0 0 0 3 15 23 5 0 0 0
0 19 0 4 12 1 0 0 0 0 0 0 0 0 0 0 0 0 0 7 2 2 4 0 0 0 0 1 0 0 0 0 0 0 0 1 1 0 3 1 3 0 0 0 6 18 10 3 8
0 11 0 1 2 0 0 0 0 0 0 0 0 0 0 0 0 0 0 0 1 2 2 0 1 0 1 1 1 0 0 0 0 0 0 5 1 1 0 3 0 1 0 0 0 0 6 5 2
9 62 2 22 3 8 0 0 0 0 0 0 0 0 0 0 0 0 0 1 4 9 2 0 1 0 0 0 0 0 0 0 0 0 0 0 0 0 0 0 0 1 1 0 2 27 19 0 0
10 4 34 38 3 3 0 0 4 0 2 0 0 0 0 0 0 0 0 0 7 10 0 1 0 0 0 0 0 0 0 0 0 0 0 0 0 0 0 0 0 0 0 0 1 3 1 5 0
15 25 8 37 54 0 0 3 16 20 20 3 1 0 0 0 0 0 0 0 7 1 1 0 1 0 0 0 0 0 0 0 0 0 0 0 0 0 0 0 0 0 0 0 0 0 0 0 0
28 20 0 71 2 2 1 0 19 25 2 9 2 4 4 3 1 0 0 0 0 0 1 2 0 0 0 0 0 1 0 0 0 0 0 0 0 0 0 0 0 0 0 0 0 0 0 0 0

GFSSGP_con_sbcape_081.txt.gz
CAPE
0 0 0 0 0 0 0 0 0 0 0 0 0 0 0 0 0 0 70 1358 1244 1562 1463 1415 1098 1252 1622 1685 1787 2007 2250 2196 2195 2181 2172 2162 2117 1959 1777 1752 1783 1798 1979 1800 1653 1789 1450 1239 1275
0 0 0 0 0 0 0 0 0 0 0 0 0 0 0 0 98 237 811 1294 1325 1503 1506 1566 1252 1373 1659 1593 1834 2035 2423 2445 2337 2316 2310 2224 2092 1913 1866 1851 1807 1885 2068 2053 1577 1547 1282 1290 1250
0 0 0 0 0 0 0 0 0 0 0 0 0 0 0 0 508 373 690 1410 1610 1451 1313 1494 1476 1433 1537 1641 1712 1928 1848 2339 2293 2282 2349 2267 2076 2023 1950 1796 1856 1985 2125 2120 1709 1441 1523 1273 993
0 0 0 0 0 0 0 0 0 0 0 0 0 0 0 0 598 677 789 1495 1794 1602 1393 1420 1428 1250 1464 1734 1701 1880 1869 1803 2013 2189 2253 2248 2158 2035 1685 1473 1908 2027 2169 2124 1830 1506 1256 984 798
0 0 0 0 0 0 0 0 0 0 0 0 0 0 0 0 310 728 1374 1542 1916 1764 1727 1782 1450 1420 1523 1590 1776 1760 1805 1633 1591 2125 2003 1738 2019 1630 1534 1302 1784 1947 1886 1833 1479 1342 1070 837 617
0 0 0 0 0 0 0 0 0 0 0 0 0 0 0 32 675 1089 1690 1814 1974 1481 1502 1419 1563 1583 1443 1480 1730 1595 1590 1647 1787 1957 1980 1866 1428 1200 1025 979 1073 1109 1392 1374 1276 1049 892 680 439
0 0 0 0 0 0 0 0 0 0 0 0 0 0 0 39 618 1319 1793 1781 1805 1900 1600 1081 1511 1812 1537 1398 1637 1561 1332 1411 1384 1574 1578 781 141 379 483 341 624 1025 1137 997 1007 799 624 508 231
0 0 0 0 0 0 0 0 0 0 0 0 0 0 0 14 396 1204 1627 1636 1754 1617 1882 1659 1492 1589 2157 2165 1411 1260 1178 899 770 623 257 142 62 71 132 292 438 610 1147 871 854 611 450 232 63
0 0 0 0 0 0 0 0 0 0 0 0 0 0 0 29 435 1060 1272 1097 1203 1339 1532 1655 1302 1628 1966 1792 1644 1071 893 469 395 454 91 77 142 89 96 213 267 301 573 508 446 399 186 64 4
0 0 0 0 0 0 0 0 0 0 0 0 0 0 23 249 698 1154 1288 1356 1221 855 870 1179 873 1178 1176 893 1152 1502 1210 886 181 193 103 107 104 161 68 75 144 214 266 238 248 183 37 38 67
0 0 0 0 0 0 0 0 0 0 0 0 0 0 0 71 602 978 1132 1138 1246 1039 454 1030 835 622 752 829 751 578 579 474 25 7 11 54 83 74 14 78 165 201 191 285 294 144 150 132 74
0 0 0 0 0 0 0 0 0 0 0 0 0 0 0 0 20 804 983 1043 1172 1108 1090 746 669 566 581 642 273 283 204 215 20 2 9 65 107 115 182 248 194 92 32 142 320 224 93 22 1
0 0 0 0 0 0 0 0 0 0 0 0 0 0 0 0 0 2 687 1015 1003 1074 1068 599 508 582 510 381 194 200 232 108 75 7 2 99 79 208 210 218 223 47 3 46 204 80 16 0 0
0 0 0 0 0 0 0 0 0 0 0 0 0 0 0 0 0 0 523 924 916 931 946 504 411 453 439 345 177 105 119 132 23 13 12 8 51 237 261 252 259 122 0 18 126 58 1 0 0
0 0 0 0 0 0 0 0 0 0 0 0 0 0 0 0 0 0 367 839 958 824 803 377 386 562 246 83 139 32 3 2 3 5 13 2 11 59 158 225 206 156 1 0 24 6 0 0 0
0 0 0 0 0 0 0 0 0 0 0 0 0 0 0 0 0 0 422 681 833 802 774 461 500 350 156 55 5 3 3 1 2 2 2 3 9 61 184 171 141 52 1 0 3 0 0 1 0
0 0 0 0 0 0 0 0 0 0 0 0 0 0 0 0 0 0 497 584 649 797 659 462 420 266 10 6 5 3 6 6 2 4 4 2 2 22 98 120 106 29 0 0 0 0 1 4 5
0 0 0 0 0 0 0 0 0 0 0 0 0 0 0 0 0 0 177 524 587 674 606 281 223 165 4 4 4 3 9 14 13 7 2 3 8 8 93 32 1 1 1 1 0 0 4 17 12
0 0 0 0 0 0 0 0 0 0 0 0 0 0 0 0 0 0 0 435 521 500 382 94 109 1 2 2 4 7 7 17 23 24 26 9 6 24 4 2 0 0 0 0 0 0 0 4 16
0 0 0 0 0 0 0 0 0 0 0 0 0 0 0 0 0 0 6 366 436 382 263 41 43 4 2 2 2 2 11 17 21 28 31 44 2 12 21 0 0 1 0 5 0 0 0 0 1
0 0 0 0 0 0 0 0 0 0 0 0 0 0 0 0 0 0 0 253 396 396 217 30 7 4 2 4 11 3 9 16 15 8 5 2 1 6 2 0 0 0 2 1 0 0 0 0 2
0 0 0 0 0 1 0 0 0 0 0 0 0 0 0 0 0 0 0 147 326 471 281 15 1 3 2 13 8 3 4 14 14 15 11 7 4 2 1 0 0 0 0 0 0 0 0 0 0
0 0 0 0 4 10 2 3 0 0 0 0 0 0 0 0 0 0 0 47 233 359 167 1 1 3 4 5 2 5 9 12 8 3 4 7 4 6 3 2 0 0 0 0 0 0 0 0 18
0 0 0 0 5 10 0 0 0 0 0 0 0 0 0 0 0 0 2 82 161 217 17 3 2 2 1 4 3 2 26 11 3 7 2 1 3 4 3 1 0 0 0 0 0 0 0 0 12
0 0 0 0 12 1 0 0 0 0 0 0 0 0 0 0 0 13 93 123 144 98 2 1 0 1 3 1 1 3 17 11 1 1 5 3 2 4 1 1 0 0 0 0 0 0 1 13 37
0 0 0 0 8 11 0 0 0 0 0 0 0 0 0 0 2 1 112 144 187 82 3 4 32 1 4 3 0 1 6 13 6 10 12 14 16 8 1 1 0 0 0 0 0 0 18 39 33
5 6 1 1 4 26 0 0 6 0 0 0 0 0 0 0 0 2 6 135 127 50 11 55 4 2 3 4 2 3 6 3 2 4 9 14 19 7 2 2 2 1 0 0 0 0 0 0 4
25 10 63 49 6 12 0 1 9 2 1 3 3 4 2 2 4 0 3 51 81 34 10 3 2 1 3 5 1 1 5 4 2 0 1 4 7 32 4 2 1 2 2 0 0 0 0 0 1
23 61 15 18 57 16 1 3 59 18 9 23 5 6 6 5 4 41 42 41 47 24 5 3 1 1 1 2 1 1 2 0 0 0 1 0 1 2 4 1 5 4 2 1 10 6 9 6 25
24 18 15 24 10 32 1 1 106 30 4 18 0 1 4 6 3 2 10 6 7 8 5 3 2 2 1 0 2 3 3 1 0 2 0 0 0 5 0 0 8 10 2 8 7 6 11 0 8

GFSSGP_con_sbcape_084.txt.gz
CAPE
0 0 0 0 0 0 0 0 0 0 0 0 0 0 0 0 0 0 312 1477 1535 1763 2022 1488 1126 1489 1794 1857 1894 2091 2233 2251 2206 2172 2199 2234 2255 2249 2132 2018 1991 2015 2071 2018 1673 1651 1643 1583 1542
0 0 0 0 0 0 0 0 0 0 0 0 0 0 0 0 0 57 998 1389 1630 1748 2068 2035 1058 1443 1830 1966 2078 2231 2341 2410 2371 2391 2346 2348 2335 2246 2027 1968 1947 2027 2119 2187 1841 1822 1724 1605 1394
0 0 0 0 0 0 0 0 0 0 0 0 0 0 0 0 140 148 439 1405 1786 1786 1906 2051 1234 1397 1820 1954 2054 2207 2287 2332 2274 2393 2512 2464 2351 2186 2068 1956 1977 2137 2283 2248 1886 1656 1803 1466 1179
0 0 0 0 0 0 0 0 0 0 0 0 0 0 0 0 184 307 627 1549 1713 1815 1853 1378 1126 1435 1756 1856 2047 2040 1931 2229 2218 2322 2477 2475 1620 1740 2080 1958 2060 2200 1997 2060 1851 1654 1512 1145 958
0 0 0 0 0 0 0 0 0 0 0 0 0 0 0 0 173 812 958 1544 1672 1965 2018 2084 1152 1235 1530 1895 1992 1987 1832 1868 2152 2248 1768 1775 1502 1969 1617 1576 1374 1999 1777 1651 1477 1489 1260 997 831
0 0 0 0 0 0 0 0 0 0 0 0 0 0 0 0 247 939 1439 1675 1898 2213 2366 2231 1446 1331 1424 1751 1741 1791 1783 1631 1712 1972 1643 1698 1839 1312 972 1031 1018 1304 1236 1058 1143 1204 1095 883 733
0 0 0 0 0 0 0 0 0 0 0 0 0 0 0 0 264 1516 1788 1897 2335 2378 2401 2166 2145 1839 1272 1245 1606 1411 1571 1639 1469 1844 1603 1149 964 827 806 688 723 577 703 836 1126 1111 902 756 482
0 0 0 0 0 0 0 0 0 0 0 0 0 0 0 0 52 1633 2119 2357 2504 2728 2472 2012 1948 2199 1972 1666 1390 1413 1328 1326 1091 1394 769 469 662 652 532 447 438 238 670 843 950 700 634 387 201
0 0 0 0 0 0 0 0 0 0 0 0 0 0 0 0 173 1497 2166 2348 2244 2536 2669 2638 1953 2142 2386 2325 1944 1409 1299 983 846 701 389 461 1049 947 358 254 289 416 521 775 779 481 344 108 28
0 0 0 0 0 0 0 0 0 0 0 0 0 0 0 0 0 489 1661 1874 2045 2105 2509 2504 2135 2287 2215 2018 2238 2155 2224 1978 1686 1409 929 1105 1082 709 415 197 255 340 406 536 364 243 114 138 463
0 0 0 0 0 0 0 0 0 0 0 0 0 0 0 0 0 16 552 1508 1556 1715 2073 2181 1937 2096 2517 1916 1908 2057 1831 1699 1727 1461 1047 1006 979 504 193 167 269 694 278 247 245 227 568 401 356
0 0 0 0 0 0 0 0 0 0 0 0 0 0 0 0 0 0 2 548 1443 1647 1988 1903 1754 1877 2121 1661 1665 1529 1080 1051 1276 1315 1223 618 718 659 398 107 137 253 148 140 179 746 527 411 290
0 0 0 0 0 0 0 0 0 0 0 0 0 0 0 0 0 0 0 0 651 1673 1974 1804 1894 1896 1474 1196 1159 934 808 852 896 1104 912 596 454 467 203 139 332 415 201 165 204 573 417 317 214
0 0 0 0 0 0 0 0 0 0 0 0 0 0 0 0 0 0 0 0 53 1179 1843 1911 1754 1782 1782 1883 1050 760 909 669 610 787 666 332 159 415 242 305 458 250 84 114 128 298 288 263 210
0 0 0 0 0 0 0 0 0 0 0 0 0 0 0 0 0 0 0 0 140 909 1622 1954 1745 1613 1636 1537 1454 1075 703 800 692 450 444 199 335 520 414 495 441 195 184 77 104 271 325 177 172
0 0 0 0 0 0 0 0 0 0 0 0 0 0 0 0 0 0 0 0 175 981 1552 1888 1395 1497 1475 1387 1079 877 513 585 578 404 460 173 11 67 143 269 395 236 115 152 99 301 180 170 162
0 0 0 0 0 0 0 0 0 0 0 0 0 0 0 0 0 0 0 0 338 1186 1544 1840 1435 1504 1587 1055 623 610 267 211 140 185 239 117 80 29 112 468 460 195 82 201 40 197 191 171 143
0 0 0 0 0 0 0 0 0 0 0 0 0 0 0 0 0 0 0 0 559 1160 1599 1759 1514 1591 1201 242 228 302 294 126 6 6 6 6 6 40 222 184 201 71 65 18 29 141 193 185 138
0 0 0 0 0 0 0 0 0 0 0 0 0 0 0 0 0 0 0 0 696 1201 1656 1678 1373 1436 796 334 372 171 310 153 45 41 11 15 16 7 48 72 68 8 6 3 4 165 175 145 144
0 0 0 0 0 0 0 0 0 0 0 0 0 0 0 0 0 0 0 8 745 1148 1579 1567 1250 1135 787 526 300 140 50 86 83 64 247 207 109 143 67 31 15 2 3 1 0 125 149 152 134
0 0 0 0 0 0 0 0 0 0 0 0 0 0 0 0 0 0 0 0 701 994 1498 1209 1022 1094 508 461 213 159 91 24 37 109 232 121 75 39 35 39 2 2 1 0 0 110 157 150 151
0 0 0 0 0 0 0 0 0 0 0 0 0 0 0 0 0 0 0 0 520 882 1342 970 965 1000 377 299 193 112 33 15 80 66 23 86 8 18 1 8 1 2 1 2 1 35 137 126 133
0 0 0 1 1 3 0 1 0 0 0 0 0 0 0 0 0 0 0 0 342 789 1312 912 600 655 298 143 247 73 58 45 100 40 28 6 6 5 3 1 1 1 2 2 1 51 174 169 159
5 0 0 7 15 16 0 0 0 1 4 2 5 3 0 1 27 1 0 0 223 738 1210 649 284 182 187 226 261 81 70 57 43 41 8 9 8 10 5 1 1 2 1 2 2 77 128 100 153
16 1 0 39 30 0 0 3 0 4 13 6 7 4 31 203 400 323 124 181 362 900 745 126 120 73 120 466 163 27 54 41 18 28 5 4 6 5 9 6 4 2 2 1 0 7 34 68 138
9 0 3 10 30 27 17 1 50 20 33 19 6 1 1 68 405 457 158 349 457 851 91 16 35 74 49 279 57 7 14 24 19 24 22 8 11 4 2 1 4 5 4 6 4 0 10 40 126
36 58 28 32 15 29 2 17 29 15 30 1 0 0 1 6 16 554 166 483 518 668 20 41 60 49 12 58 5 4 12 14 11 8 20 33 51 47 8 4 1 0 0 1 1 0 1 16 73
68 58 50 72 32 32 35 29 44 39 20 2 1 0 0 0 3 93 252 412 603 366 51 199 418 29 9 3 6 5 8 12 11 11 25 26 30 27 33 8 4 1 1 0 0 0 7 2 7
100 72 63 45 39 56 30 43 103 10 2 0 0 0 0 0 3 2 318 321 322 110 182 158 98 4 3 8 7 1 5 7 11 12 10 21 28 20 31 5 3 2 1 0 0 0 0 10 14
60 71 75 103 50 39 50 45 153 54 0 0 0 0 0 0 1 3 2 107 93 40 10 25 20 7 11 8 4 5 18 14 12 8 9 29 33 31 31 23 4 4 2 1 0 0 0 0 0

GFSSGP_con_sbcape_087.txt.gz
CAPE
0 0 0 0 0 0 0 0 0 0 0 0 0 0 0 0 0 66 321 1323 1373 1514 1610 1372 1334 1680 1824 1855 1881 2108 2260 2263 2181 2214 2282 2139 2192 1956 2248 2176 2265 2360 2454 2104 1725 1601 1506 1616 1679
0 0 0 0 0 0 0 0 0 0 0 0 0 0 0 0 0 116 471 1093 1313 1363 1884 1714 1279 1633 1898 2013 2119 2277 2545 2485 2350 2308 2344 2364 2392 2276 1945 1949 2153 2358 2398 2303 1837 1753 1875 1780 1573
0 0 0 0 0 0 0 0 0 0 0 0 0 0 0 0 0 1 862 1119 830 719 1520 2056 1239 1598 1935 2046 2195 2327 2470 2473 2414 2360 2438 2464 2503 2428 1735 1662 1983 2317 2415 2448 1989 1841 1773 1591 1333
0 0 0 0 0 0 0 0 0 0 0 0 0 0 0 0 33 52 831 934 882 981 1321 976 1070 1483 1888 2064 2190 2390 2355 2370 2332 2325 2414 2524 1890 1856 1606 1477 1767 2270 2186 2350 1965 1943 1591 1271 1118
0 0 0 0 0 0 0 0 0 0 0 0 0 0 0 0 0 147 586 909 1151 1404 1578 2081 1052 1395 1793 2076 2203 2204 2084 2236 2266 2332 2295 1991 1867 1649 1523 1411 1758 1750 1742 1422 1379 1332 1284 1121 959
0 0 0 0 0 0 0 0 0 0 0 0 0 0 0 0 0 110 528 1089 1300 1644 2015 2314 1243 1306 1535 1773 1961 1952 1963 2068 2271 2172 1902 1903 1670 1600 1340 1142 1016 919 503 635 905 1076 1169 1012 899
0 0 0 0 0 0 0 0 0 0 0 0 0 0 0 0 68 628 599 1288 1693 1959 2286 2441 2077 1652 1175 1493 1568 1757 1807 1839 1889 1727 1548 1494 1222 1043 1017 873 940 871 692 622 861 951 929 931 482
0 0 0 0 0 0 0 0 0 0 0 0 0 0 0 0 0 710 1245 1513 2095 2354 2558 2563 2465 2247 2053 1840 1412 1367 1625 1641 1608 1570 1089 1084 995 912 724 707 746 614 428 624 754 639 726 365 246
0 0 0 0 0 0 0 0 0 0 0 0 0 0 0 0 0 597 1406 2068 2389 2461 2491 2590 2387 2390 2282 1915 1842 1372 1374 1380 1112 1160 730 666 1132 1153 653 514 421 353 298 513 741 527 316 180 119
0 0 0 0 0 0 0 0 0 0 0 0 0 0 0 0 0 0 1033 1933 2216 2149 2562 2781 2280 2266 2522 2034 2502 2024 1845 1781 1758 1448 1507 1244 1235 1140 861 439 251 238 251 401 524 362 193 164 569
0 0 0 0 0 0 0 0 0 0 0 0 0 0 0 0 0 0 36 1166 1738 1836 2165 2579 2608 2382 2515 2267 2621 2249 2118 2396 2183 2153 1830 1606 1581 1482 972 473 315 370 308 283 389 269 423 525 661
0 0 0 0 0 0 0 0 0 0 0 0 0 0 0 0 0 0 0 24 1148 1567 1857 2420 2571 2238 2446 2117 1978 1946 2445 2486 2130 1837 1790 1823 1654 1380 1027 754 375 354 716 473 271 268 469 669 460
0 0 0 0 0 0 0 0 0 0 0 0 0 0 0 0 0 0 0 0 61 1228 1674 2390 2252 2400 2337 2157 2032 1971 2160 2015 1831 1892 1659 1858 1547 1243 897 506 519 569 739 181 46 108 336 578 426
0 0 0 0 0 0 0 0 0 0 0 0 0 0 0 0 0 0 0 0 0 410 1474 2406 2286 2297 2240 2254 1858 1615 1765 1620 1522 1436 1485 1450 1463 1211 975 755 629 758 668 299 45 116 158 574 423
0 0 0 0 0 0 0 0 0 0 0 0 0 0 0 0 0 0 0 0 0 0 646 2296 2453 2301 2284 2158 2142 1490 1654 1184 1076 1094 1425 1202 1052 841 952 805 887 378 402 438 77 102 109 285 229
0 0 0 0 0 0 0 0 0 0 0 0 0 0 0 0 0 0 0 0 0 0 85 1888 2292 2222 2302 2153 2007 1800 1157 1128 1127 1271 1151 1026 729 693 698 704 656 596 314 261 52 103 80 103 167
0 0 0 0 0 0 0 0 0 0 0 0 0 0 0 0 0 0 0 0 0 0 235 1494 2459 2137 2249 2113 1912 1575 1328 994 1025 1119 920 692 650 521 630 616 509 346 299 237 147 62 67 128 125
0 0 0 0 0 0 0 0 0 0 0 0 0 0 0 0 0 0 0 0 0 1 520 1550 2490 2110 2172 2067 1533 1181 815 716 551 495 575 681 490 313 313 135 172 130 261 265 182 86 85 139 142
0 0 0 0 0 0 0 0 0 0 0 0 0 0 0 0 0 0 0 0 0 99 1014 1706 2330 2069 2358 1703 1067 911 637 610 339 280 320 350 383 268 192 166 157 59 192 140 151 93 64 52 85
0 0 0 0 0 0 0 0 0 0 0 0 0 0 0 0 0 0 0 0 0 481 1314 1809 2182 2066 2005 1327 1263 946 771 465 588 507 266 156 34 16 7 46 71 27 52 54 67 70 58 84 152
0 0 0 0 0 1 1 0 0 0 0 0 0 0 0 0 0 0 0 0 15 540 1286 1739 2071 2047 1843 1404 1230 868 571 353 377 221 183 691 502 431 305 181 97 4 63 14 5 24 48 52 94
2 0 0 0 7 12 50 7 0 0 0 0 0 0 0 0 0 0 0 0 8 580 1171 1619 1921 1875 1758 1466 1121 782 495 292 284 207 263 391 276 223 195 172 101 76 9 1 4 12 45 69 143
0 7 11 32 40 22 0 1 0 0 0 13 0 1 2 0 0 0 0 0 0 425 998 1645 1718 1642 1607 1336 1040 772 472 242 164 197 219 118 27 4 23 16 21 7 10 0 3 0 38 73 170
11 30 42 16 38 45 0 8 0 68 41 20 30 23 48 57 47 19 17 16 8 137 1162 1810 1541 1607 1199 1275 1022 817 486 175 128 237 281 14 12 5 5 1 3 2 1 1 1 0 10 71 123
8 59 63 71 75 13 34 42 39 104 43 41 31 27 23 17 42 427 224 59 17 345 1201 1716 1416 1504 1038 1149 1057 710 401 167 87 233 109 11 8 7 4 1 0 1 1 1 2 3 44 113 102
56 88 55 11 24 37 2 2 120 139 2 3 17 12 10 9 4 18 598 342 276 377 1222 1213 897 837 713 1035 1008 594 215 114 62 220 29 11 5 11 4 4 1 1 1 1 1 3 35 75 128
18 48 40 57 12 15 9 1 239 83 22 22 13 2 2 2 1 0 41 445 633 903 925 563 490 498 541 1185 854 377 194 69 60 148 94 45 11 4 5 6 4 1 2 1 1 1 0 3 94
55 49 55 88 41 49 23 39 186 75 9 6 9 0 0 0 0 0 0 144 804 912 431 258 311 415 497 966 550 136 86 37 54 75 71 97 82 17 17 4 10 5 1 2 4 1 0 1 7
53 89 46 67 65 69 56 105 178 57 9 3 0 0 0 0 0 0 0 0 532 481 256 160 332 271 363 531 118 82 50 49 44 35 43 24 46 30 49 25 4 3 2 0 2 1 0 0 0
62 42 74 76 60 70 109 85 155 61 24 6 0 0 0 0 0 0 0 2 63 350 338 348 180 142 145 134 7 40 15 38 10 5 10 14 19 27 24 46 13 3 2 2 2 4 1 0 3

GFSSGP_con_sbcape_090.txt.gz
CAPE
0 0 0 0 0 0 0 0 0 0 0 0 0 0 0 0 51 186 750 1155 1976 1343 1509 1454 1554 1800 1905 1952 2042 2160 2037 2158 2187 2256 2281 2324 2310 2295 2255 2235 2322 2449 2185 2202 1940 1753 1696 1576 1682
0 0 0 0 0 0 0 0 0 0 0 0 0 0 0 0 3 233 742 1112 1594 1366 1313 1462 1514 1728 1908 1950 2024 2211 2369 2372 2273 2348 2407 2323 2267 2220 2078 2015 2237 2365 2115 2128 1928 1804 1826 1785 1568
0 0 0 0 0 0 0 0 0 0 0 0 0 0 0 0 0 195 839 1226 1424 1505 1429 1543 1405 1664 1927 1964 2043 2172 2405 2394 2294 2308 2465 2346 2244 2125 1944 1610 2044 2326 2154 1955 1934 1830 1937 1540 1303
0 0 0 0 0 0 0 0 0 0 0 0 0 0 0 0 46 178 889 956 854 1435 1847 910 1261 1566 1881 1999 2103 2211 2357 2328 2257 2290 2448 2448 2320 2108 1866 1594 1892 1731 1702 1949 2120 1909 1627 1250 1124
0 0 0 0 0 0 0 0 0 0 0 0 0 0 0 0 0 507 798 752 1157 2031 2087 1302 1201 1503 1830 2040 2172 2219 2236 2221 2109 2282 2358 2456 2151 1898 1737 1601 1697 1453 1015 1045 1110 1081 1196 1173 1073
0 0 0 0 0 0 0 0 0 0 0 0 0 0 0 0 0 303 816 1376 2126 2391 2723 1729 1271 1485 1642 1860 1916 1974 1984 1693 2096 2180 2308 2361 2039 1605 1426 1438 1219 954 722 443 616 483 985 1060 996
0 0 0 0 0 0 0 0 0 0 0 0 0 0 0 0 95 600 1066 2012 2605 2695 3034 2252 1663 1520 1389 1460 1631 1752 1831 1684 2006 2163 2180 2094 1785 1502 1283 1051 951 928 503 237 306 701 455 765 634
0 0 0 0 0 0 0 0 0 0 0 0 0 0 0 12 14 542 1201 2042 2866 3267 3399 2835 2369 1866 1632 1511 1315 1567 1695 1702 1697 1736 1413 1570 1401 1202 1067 938 857 755 618 414 605 801 810 484 326
0 0 0 0 0 0 0 0 0 0 0 0 0 0 0 0 0 499 998 1933 2557 2974 3000 3272 2839 2415 2349 2165 1517 1240 1580 1569 1448 1243 1095 1027 1493 1232 710 649 635 702 585 567 789 712 484 336 255
0 0 0 0 0 0 0 0 0 0 0 0 0 0 0 0 0 16 589 1488 2285 2676 2916 2918 2703 2771 2550 1789 1864 1695 1709 1657 1739 1717 1268 1625 1553 1297 955 584 414 225 288 322 348 392 266 244 207
0 0 0 0 0 0 0 0 0 0 0 0 0 0 0 0 0 0 0 440 1958 2467 2501 2801 2392 2302 2304 1942 2278 1883 1985 1768 1769 1825 1731 1310 1348 1275 958 638 321 102 231 271 302 201 221 336 389
0 0 0 0 0 0 0 0 0 0 0 0 0 0 0 0 0 0 0 0 332 2049 2249 2835 2594 2150 2316 2185 2135 2336 2152 2154 2217 2057 1929 1661 1362 1126 1041 777 439 130 133 171 163 186 218 272 381
0 0 0 0 0 0 0 0 0 0 0 0 0 0 0 0 0 0 0 0 3 1047 2027 2468 2734 2400 2536 2574 2060 2116 2326 2419 2191 2113 1865 1654 1281 1077 951 908 584 296 306 208 197 183 84 124 310
0 0 0 0 0 0 0 0 0 0 0 0 0 0 0 0 0 0 0 0 0 23 1470 2480 2654 2513 2415 2473 2214 2127 2131 2058 2099 2050 1772 1530 1245 1056 953 762 501 399 374 200 122 84 45 70 151
0 0 0 0 0 0 0 0 0 0 0 0 0 0 0 0 0 0 0 0 0 0 256 2579 2429 2506 2236 2324 1953 1560 1711 1577 1572 1588 1680 1347 1175 974 745 618 499 414 349 138 20 35 24 44 137
0 0 0 0 0 0 0 0 0 0 0 0 0 0 0 0 0 0 0 0 0 0 0 2577 2402 2392 2362 2088 1955 1439 1345 1559 1473 1266 1325 1300 1122 852 767 528 467 437 308 139 11 32 36 89 118
0 0 0 0 0 0 0 0 0 0 0 0 0 0 0 0 0 0 0 0 0 0 0 2522 2430 2417 2386 2176 2291 1753 1423 1295 1191 1196 1167 1027 1006 836 685 523 469 327 285 133 28 25 25 62 32
0 0 0 0 0 0 0 0 0 0 0 0 0 0 0 0 0 0 0 0 0 0 0 2521 2493 2387 2365 2209 2164 1791 1317 1046 1090 915 1002 886 894 742 593 446 388 328 119 75 43 44 48 31 57
0 0 0 0 0 0 0 0 0 0 0 0 0 0 0 0 0 0 0 0 0 0 0 2598 2485 2271 2188 2098 1717 1430 1079 810 685 596 659 717 722 495 377 225 255 200 118 81 56 34 7 31 69
0 0 0 0 0 0 0 0 0 0 0 0 0 0 0 0 0 0 0 0 0 0 190 2456 2551 2170 2076 2140 1472 1239 968 722 487 271 216 373 598 322 192 118 70 53 59 87 38 6 4 40 29
0 0 0 0 0 0 0 0 0 0 0 0 0 0 0 0 0 0 0 0 0 105 1428 2256 2460 2034 2028 1921 1241 1107 815 728 622 445 330 198 127 185 116 69 68 37 33 75 54 11 1 11 39
0 0 0 0 5 0 3 15 0 0 0 1 1 7 0 0 0 0 0 0 0 259 1354 1891 2364 1868 2012 1550 1382 1038 753 508 469 324 249 315 353 155 85 84 108 66 44 33 34 18 11 5 18
0 0 0 4 26 19 0 32 3 1 10 40 123 84 75 66 5 0 0 0 0 221 1223 1540 2173 1928 1762 1341 1514 1109 788 527 350 390 341 356 243 186 125 179 125 74 10 7 38 19 14 2 9
0 0 2 11 29 27 0 2 4 1 152 161 89 19 11 37 37 105 136 26 0 163 1036 1521 2010 1838 1819 1498 1536 1067 858 509 341 282 304 147 12 0 0 0 12 20 40 6 14 25 22 3 6
26 8 10 9 39 4 8 43 1 125 150 45 51 5 1 12 5 2 53 230 91 68 1056 1594 1878 1747 1778 1523 1381 1075 916 616 407 353 207 55 0 1 1 1 4 5 7 1 5 16 15 4 3
22 28 10 14 16 16 5 23 38 203 77 45 32 0 0 0 0 0 3 18 0 533 1532 1725 1714 1555 1528 1462 1251 1099 758 380 290 302 92 26 0 0 0 2 0 0 1 1 0 5 1 0 1
0 27 3 52 17 23 0 3 8 16 66 46 10 0 0 1 0 0 0 0 0 731 1631 1759 1337 1421 1143 1223 1191 922 600 261 234 261 69 50 1 0 1 2 1 1 1 1 2 2 1 1 7
9 58 81 73 39 1 0 4 40 6 16 8 0 0 0 0 0 0 0 0 173 1062 905 813 915 973 823 1237 1188 623 397 192 210 164 46 60 34 3 2 3 3 1 1 1 1 0 5 6 27
35 69 36 50 45 17 28 74 41 0 2 5 0 0 0 0 0 0 0 0 0 67 510 631 484 622 684 896 671 321 291 125 86 130 133 100 61 8 1 1 1 2 1 1 0 1 1 0 0
5 42 72 29 12 19 29 32 10 20 109 76 5 0 0 0 0 0 0 0 0 0 2 385 375 395 432 339 271 200 70 78 90 88 84 40 39 24 8 2 2 1 2 0 0 0 0 0 0

GFSSGP_con_sbcape_093.txt.gz
CAPE
0 0 0 0 0 0 0 0 0 0 0 0 0 0 0 0 83 438 1104 1133 1174 1253 1432 1477 1647 1882 1998 1954 1755 1748 1951 2079 2151 2200 2192 2193 2188 2219 2136 2082 2243 2516 2620 2238 1917 1805 1597 1639 1692
0 0 0 0 0 0 0 0 0 0 0 0 0 0 0 0 283 573 1330 1145 1090 1223 1288 1417 1604 1794 1889 1949 1964 1865 2111 2221 2249 2292 2315 2273 2314 2307 2205 2098 2166 2383 2450 2196 1991 1911 1764 1692 1527
0 0 0 0 0 0 0 0 0 0 0 0 0 0 0 0 211 469 1189 1152 1041 935 1214 1400 1507 1733 1785 1782 1907 1999 2108 2164 2224 2265 2428 2357 2389 2338 2251 1980 2166 2451 2244 1813 1684 1829 1939 1602 1362
0 0 0 0 0 0 0 0 0 0 0 0 0 0 0 17 145 618 1087 1298 1105 965 1337 1224 1384 1622 1781 1796 1844 1970 2102 2078 2102 2215 2424 2430 2382 2362 2121 1884 2246 2150 1499 1180 1518 1795 1650 1314 1220
0 0 0 0 0 0 0 0 0 0 0 0 0 0 0 0 724 648 577 967 1217 1377 1036 1082 1343 1627 1772 1879 1939 1997 2159 2129 2073 2157 2276 2365 2331 2194 1930 1768 1722 1443 1209 1473 1565 1527 1265 1090 1088
0 0 0 0 0 0 0 0 0 0 0 0 0 0 0 0 440 409 330 1546 1805 1502 1006 1092 1407 1631 1691 1736 1834 1946 2106 2111 1558 1994 2146 2362 2009 1777 1782 1695 1336 1155 979 1100 989 1009 1021 882 885
0 0 0 0 0 0 0 0 0 0 0 0 0 0 0 71 63 378 513 1604 2056 1888 1094 1021 1329 1562 1490 1531 1608 1803 1903 1564 1431 1925 2078 2271 1949 1582 1560 1531 1186 996 732 703 611 640 611 799 746
0 0 0 0 0 0 0 0 0 0 0 0 0 0 0 0 111 386 846 1252 1911 2044 1398 1045 1071 1161 1060 1034 1445 1629 1645 1367 1467 1911 2080 2076 1823 1565 1319 1189 1102 929 692 667 696 577 442 667 491
0 0 0 0 0 0 0 0 0 0 0 0 0 0 0 0 17 204 795 1619 1864 2464 1896 1470 1270 1124 974 879 1129 1483 1623 1609 1537 1431 1600 1485 1250 1224 1100 776 997 835 515 561 637 595 631 584 416
0 0 0 0 0 0 0 0 0 0 0 0 0 0 0 0 1 118 201 1669 1990 2174 2419 1982 1624 1514 1315 1377 989 965 1398 1198 1107 1215 957 846 934 747 676 671 741 603 444 426 632 616 379 330 287
0 0 0 0 0 0 0 0 0 0 0 0 0 0 0 0 0 57 249 690 1976 2298 2602 2127 2043 1843 1637 1402 855 1006 987 1031 1125 1160 820 889 881 728 442 437 556 460 520 397 348 294 219 213 129
0 0 0 0 0 0 0 0 0 0 0 0 0 0 0 0 0 0 0 0 1246 2136 2492 2235 1861 1840 1573 1156 1276 1090 1203 970 1063 1047 1018 676 830 672 543 357 141 87 199 180 164 152 99 173 231
0 0 0 0 0 0 0 0 0 0 0 0 0 0 0 0 0 0 0 0 0 1800 2180 2363 1809 1655 1688 1469 1412 1323 1453 1282 1250 1198 1139 777 802 767 749 333 236 106 99 64 91 105 99 74 205
0 0 0 0 0 0 0 0 0 0 0 0 0 0 0 0 0 0 0 0 0 1 2019 2414 2009 1554 1777 1735 1298 1233 1624 1433 1280 1264 1093 897 753 701 674 477 348 176 83 59 37 86 57 22 160
0 0 0 0 0 0 0 0 0 0 0 0 0 0 0 0 0 0 0 0 0 0 853 2275 2173 1926 1953 1861 1260 1194 1155 1250 1213 1285 1125 1007 833 755 593 389 243 220 131 4 8 14 5 13 87
0 0 0 0 0 0 0 0 0 0 0 0 0 0 0 0 0 0 0 0 0 0 0 1978 2340 2043 1950 1608 1182 954 854 1007 1052 937 949 900 887 761 608 352 140 279 65 0 0 3 3 1 11
0 0 0 0 0 0 0 0 0 0 0 0 0 0 0 0 0 0 0 0 0 0 0 1867 2253 1876 1774 1291 974 805 911 931 795 753 682 799 788 715 516 314 200 202 86 0 0 1 2 6 33
0 0 0 0 0 0 0 0 0 0 0 0 0 0 0 0 0 0 0 0 0 0 0 1726 1903 1840 1843 1409 990 826 691 671 598 647 500 724 748 566 355 216 130 123 84 4 0 0 0 4 37
0 0 0 0 0 0 0 0 0 0 0 0 0 0 0 0 0 0 0 0 0 0 0 1675 1915 1769 1740 1496 1389 1030 871 671 494 521 721 598 581 383 228 157 91 124 45 0 0 1 8 19 30
0 0 0 0 0 0 0 0 0 0 0 0 0 0 0 0 0 0 0 0 0 0 0 1702 1914 1935 1897 1662 1419 1040 571 262 315 441 588 506 428 231 128 170 165 76 2 3 19 16 14 12 46
0 0 0 0 0 0 0 0 0 0 0 0 0 0 0 0 0 0 0 0 0 0 17 1851 1940 1982 1732 1317 591 321 185 177 161 214 315 373 516 167 109 110 122 111 91 46 33 15 4 5 18
0 0 0 0 0 0 0 0 0 0 0 0 0 0 0 55 10 0 0 0 0 0 1235 1834 1831 1786 1443 1000 975 470 495 352 246 194 203 249 283 255 95 99 59 50 25 51 56 6 0 1 2
0 0 0 0 0 0 0 0 0 0 0 0 108 91 89 50 21 6 28 6 0 22 1977 1914 1691 1679 1445 948 678 367 246 122 151 170 161 188 90 114 102 64 3 40 27 58 114 34 0 0 1
0 0 0 0 0 0 0 0 0 0 0 178 127 30 26 6 7 15 12 2 4 0 1310 1853 1594 1615 1405 876 639 485 313 165 200 160 114 130 203 138 67 84 49 4 13 37 44 68 10 1 1
0 0 0 0 0 0 0 1 0 22 114 138 62 6 0 1 4 0 0 0 0 0 0 1369 1518 1499 1299 1006 816 630 422 198 116 122 115 25 1 0 0 0 0 0 1 11 18 45 40 1 0
0 0 1 0 0 0 7 0 0 5 0 9 8 0 0 0 0 0 0 0 0 3 15 929 1297 1367 986 938 777 596 455 184 123 146 46 0 0 0 0 0 0 2 0 3 2 16 24 9 1
0 0 22 15 0 0 0 0 7 0 0 0 0 0 0 0 0 0 0 0 0 0 200 745 811 995 834 694 623 678 454 183 244 97 51 0 0 0 0 0 0 0 1 1 1 11 6 22 2
1 1 30 24 105 6 0 0 102 22 3 10 0 0 0 0 0 0 0 0 0 0 1 71 146 250 712 781 678 593 287 132 95 70 29 0 0 0 0 0 0 2 1 1 1 8 1 3 0
91 18 62 59 22 14 13 73 16 2 16 11 0 0 0 0 0 0 0 0 0 0 0 1 24 365 303 545 599 314 140 238 105 67 25 6 0 0 0 0 1 1 1 1 0 1 1 1 1
33 13 3 16 8 39 7 10 0 0 0 35 0 0 0 0 0 0 0 0 0 1 0 0 0 120 108 278 218 202 72 70 160 188 126 68 21 1 0 0 0 0 1 0 0 0 1 1 11

GFSSGP_con_sbcape_096.txt.gz
CAPE
0 0 0 0 0 0 0 0 0 0 0 0 0 0 0 0 17 77 885 1084 996 1148 1385 1625 1681 1753 1816 1837 1774 1818 1965 2100 2092 2048 2046 2121 2203 2141 2156 2266 2404 2502 2495 2054 1828 1791 1722 1629 1703
0 0 0 0 0 0 0 0 0 0 0 0 0 0 0 15 649 1335 1141 1205 1115 1292 1374 1564 1750 1848 1870 1830 1829 1931 2144 2187 2223 2201 2210 2237 2263 2208 2146 2197 2346 2511 2553 2128 1818 1624 1737 1691 1587
0 0 0 0 0 0 0 0 0 0 0 0 0 0 0 106 1184 1207 1092 1148 1303 1358 1401 1517 1709 1904 2009 1871 1812 1939 2121 2152 2183 2221 2350 2399 2397 2327 2225 2137 2290 2612 2353 2208 1740 1799 1696 1582 1311
0 0 0 0 0 0 0 0 0 0 0 0 0 0 0 0 815 1140 1070 1045 1013 1252 1296 1451 1577 1738 1954 2036 1956 1950 1991 1979 1994 2169 2380 2498 2493 2456 2121 2023 2069 2387 2154 1990 1990 1633 1613 1216 1101
0 0 0 0 0 0 0 0 0 0 0 0 0 0 0 466 800 1249 1084 775 756 1102 1100 1216 1476 1662 1852 2013 2030 1999 1974 1910 1943 2136 2275 2384 2481 2393 2120 1945 2086 2083 1887 1869 2061 1755 1344 1127 1041
0 0 0 0 0 0 0 0 0 0 0 0 0 0 0 396 1265 1268 1131 810 896 1088 969 1100 1406 1612 1785 1885 1791 1867 1986 1913 1959 2072 2147 2308 2260 2146 1940 1861 1785 1675 1530 1525 1612 1405 1247 1110 1055
0 0 0 0 0 0 0 0 0 0 0 0 0 0 0 42 563 584 1113 1270 1231 1057 992 1061 1334 1566 1604 1686 1712 1825 1976 2021 1695 1873 2006 2160 1943 1741 1747 1741 1566 1434 1375 1239 1310 1216 1105 1065 958
0 0 0 0 0 0 0 0 0 0 0 0 0 0 0 1 116 615 1485 1497 1323 988 939 962 1100 1193 1164 1256 1603 1740 1938 1574 1337 1553 1665 2034 1839 1530 1538 1443 1312 1170 1093 1036 1046 927 828 884 703
0 0 0 0 0 0 0 0 0 0 0 0 0 0 0 3 169 840 1312 1650 1618 1309 1024 946 989 930 801 914 1325 1582 1427 1303 1215 1358 1686 1852 1540 1449 1306 1015 1094 883 676 832 785 686 514 690 499
0 0 0 0 0 0 0 0 0 0 0 0 0 0 0 5 101 570 1328 1711 1950 1677 1283 1062 983 932 749 1070 1148 1157 1389 1252 1137 1248 1436 1194 1155 984 785 796 892 339 355 546 636 560 478 511 322
0 0 0 0 0 0 0 0 0 0 0 0 0 0 0 0 0 11 817 1610 1824 1987 1722 1419 1107 954 876 1105 809 997 1099 919 965 999 905 748 696 579 434 519 625 267 392 354 634 661 515 385 306
0 0 0 0 0 0 0 0 0 0 0 0 0 0 0 0 0 0 0 1220 1636 2055 2117 1871 1545 1273 1185 1065 746 808 851 828 971 890 624 566 611 302 243 349 163 240 274 177 401 263 285 346 283
0 0 0 0 0 0 0 0 0 0 0 0 0 0 0 0 0 0 0 0 1511 1889 2398 2150 1931 1670 1443 1297 896 782 865 851 883 747 611 507 683 421 247 187 87 74 133 172 108 56 106 210 250
0 0 0 0 0 0 0 0 0 0 0 0 0 0 0 0 0 0 0 0 0 1560 2330 2239 2091 2027 1727 1276 1245 964 1053 881 741 791 776 454 681 480 386 296 217 167 140 123 51 55 31 39 173
0 0 0 0 0 0 0 0 0 0 0 0 0 0 0 0 0 0 0 0 0 0 1974 2313 1995 1908 1804 1545 1318 998 1247 1035 913 882 628 461 540 483 478 366 401 247 138 30 7 20 11 11 131
0 0 0 0 0 0 0 0 0 0 0 0 0 0 0 0 0 0 0 0 0 0 688 2246 2191 1627 1708 1573 1261 1094 1233 1181 966 778 600 485 435 420 345 367 319 346 246 99 44 19 17 3 22
0 0 0 0 0 0 0 0 0 0 0 0 0 0 0 0 0 0 0 0 0 0 0 2074 2186 1799 1723 1389 1284 1102 1069 1096 831 572 527 468 461 378 325 274 236 356 295 173 80 24 8 3 1
0 0 0 0 0 0 0 0 0 0 0 0 0 0 0 0 0 0 0 0 0 0 0 1522 2142 1936 1863 1290 1008 824 792 764 538 545 430 391 426 439 336 158 158 267 119 27 29 7 0 0 0
0 0 0 0 0 0 0 0 0 0 0 0 0 0 0 0 0 0 0 0 0 0 0 1295 2046 1902 1598 1297 909 665 807 520 362 307 339 297 372 303 267 161 101 144 135 35 0 0 0 1 1
0 0 0 0 0 0 0 0 0 0 0 0 0 0 0 0 0 0 0 0 0 0 0 321 1850 1759 1616 1495 1427 1012 814 541 415 295 326 239 238 267 388 183 140 141 160 43 1 0 1 6 5
0 0 0 0 0 0 0 0 0 0 0 0 0 0 0 0 0 0 0 0 0 0 0 374 1655 1731 1722 1766 1226 539 14 11 70 243 402 322 265 205 200 153 106 73 56 0 1 0 6 12 15
0 0 0 0 0 0 0 0 0 0 0 0 0 0 21 33 30 30 21 23 0 0 0 66 1594 1719 1717 1520 1072 614 773 627 255 260 63 199 378 280 83 67 78 108 50 16 0 6 7 18 25
0 0 0 0 0 0 0 0 0 0 0 0 0 63 44 20 4 0 0 0 0 0 0 1146 1673 1795 1647 1067 1064 726 657 192 36 11 12 61 229 298 182 86 66 58 22 6 13 1 0 12 25
0 0 0 0 0 0 0 0 0 0 0 0 68 68 22 0 0 0 0 0 0 0 0 1054 1832 1876 1343 1085 691 686 174 46 56 29 22 39 32 88 106 64 71 30 23 2 31 10 0 1 8
0 0 0 0 0 0 0 0 0 0 0 0 0 5 0 0 0 0 0 0 0 0 0 3 1577 1557 1221 1063 594 402 72 76 73 19 18 45 87 62 132 55 89 55 7 2 16 69 12 0 0
0 0 1 3 0 0 0 0 0 33 3 8 0 0 0 0 0 0 0 0 0 0 0 0 1358 1450 916 664 408 169 63 39 58 27 20 60 92 29 3 0 0 0 0 1 6 39 45 3 0
0 0 0 1 0 8 0 0 62 28 2 0 0 0 1 0 0 0 0 0 0 2 1 2 837 1061 855 598 319 179 111 10 20 11 23 0 0 0 0 0 0 0 0 0 1 26 53 18 1
10 0 3 0 3 4 0 0 26 0 2 6 21 1 0 0 0 0 0 0 1 6 3 2 20 295 267 273 244 197 45 54 42 23 9 0 0 0 0 0 0 0 1 2 8 16 3 4 20
0 0 18 18 2 5 5 9 7 9 0 0 4 0 0 0 0 0 0 0 0 3 5 2 1 5 1 1 139 87 34 83 67 30 2 0 0 0 0 0 0 1 0 3 3 1 1 16 2
0 0 101 70 2 1 32 7 1 8 4 2 0 0 0 0 0 0 1 1 0 0 1 3 1 1 1 0 121 15 25 67 63 14 0 0 0 0 0 0 0 0 1 2 1 0 1 0 1

GFSSGP_con_sbcape_099.txt.gz
CAPE
0 0 0 0 0 0 0 0 0 0 0 0 0 0 0 0 0 0 699 1020 994 1186 1519 1517 1650 1813 1818 1775 1724 1767 1906 1953 1979 2062 2113 2104 2134 2207 2264 2277 2301 2539 2539 2047 1757 1758 1726 1713 1494
0 0 0 0 0 0 0 0 0 0 0 0 0 0 0 0 576 1141 1158 1112 1091 1303 1518 1591 1678 1839 1895 1837 1828 1895 2111 2098 2047 2079 2194 2213 2213 2309 2352 2311 2303 2525 2485 2119 1852 1849 1755 1750 1487
0 0 0 0 0 0 0 0 0 0 0 0 0 0 0 0 866 1169 1046 1109 1157 1394 1603 1667 1681 1811 1929 1899 1903 1941 2082 2054 2029 2070 2242 2296 2289 2383 2468 2205 2303 2544 2528 2215 1859 1801 1742 1537 1366
0 0 0 0 0 0 0 0 0 0 0 0 0 0 0 83 1208 1057 1264 1295 1249 1388 1529 1607 1650 1781 1892 1947 1966 1993 1963 1918 1891 2022 2249 2394 2422 2417 2391 1991 2417 2602 2544 2467 2194 1870 1574 1174 1126
0 0 0 0 0 0 0 0 0 0 0 0 0 0 0 381 759 1156 1253 1281 1210 1308 1326 1497 1656 1816 1957 2049 2013 1967 1839 1809 1887 2036 2194 2347 2426 2367 2159 1971 2173 2396 2481 2266 2279 1847 1359 1135 1087
0 0 0 0 0 0 0 0 0 0 0 0 0 0 0 181 1241 1049 987 937 1075 1129 1242 1383 1543 1744 1929 2074 1978 1895 1777 1768 1858 1983 2063 2277 2276 2156 1978 1968 2080 1935 1798 1944 1794 1468 1292 1167 1132
0 0 0 0 0 0 0 0 0 0 0 0 0 0 0 639 1019 1085 653 351 779 837 1081 1214 1496 1624 1668 1760 1809 1850 1776 1742 1805 1936 1985 2072 2021 1944 1834 1895 1849 1646 1546 1676 1601 1390 1232 1178 1083
0 0 0 0 0 0 0 0 0 0 0 0 0 0 0 159 243 1171 1124 931 718 659 799 994 1288 1411 1341 1364 1491 1639 1735 1709 1784 1897 1896 1968 1832 1733 1682 1671 1579 1442 1369 1459 1535 1337 1203 1157 941
0 0 0 0 0 0 0 0 0 0 0 0 0 0 0 0 933 1348 1447 1304 975 770 679 840 998 1040 939 977 1309 1588 1723 1638 1428 1655 1535 1692 1431 1363 1465 1216 1231 1171 1058 1090 1353 1184 1087 993 612
0 0 0 0 0 0 0 0 0 0 0 0 0 0 0 0 388 1374 1550 1537 1308 1036 770 688 837 797 659 1079 1243 1349 1547 1114 1036 1233 1287 1388 1241 1044 1004 925 971 757 670 813 798 729 585 537 283
0 0 0 0 0 0 0 0 0 0 0 0 0 0 0 0 0 90 1424 1618 1606 1384 982 806 826 705 727 1023 1079 1221 1411 1104 888 1125 1263 1107 935 811 671 608 658 374 400 312 376 367 277 363 294
0 0 0 0 0 0 0 0 0 0 0 0 0 0 0 0 0 0 0 563 1656 1667 1292 1011 828 805 762 831 904 1062 1263 955 1157 818 782 900 739 479 383 523 421 179 115 81 129 152 275 421 332
0 0 0 0 0 0 0 0 0 0 0 0 0 0 0 0 0 0 0 0 1033 1617 1723 1350 964 853 839 797 767 792 830 837 867 977 621 645 747 540 270 238 229 223 82 40 92 46 248 391 383
0 0 0 0 0 0 0 0 0 0 0 0 0 0 0 0 0 0 0 0 13 1391 1870 1879 1468 1109 1015 912 679 658 775 816 695 814 717 486 588 389 257 81 63 30 67 47 58 28 51 167 157
0 0 0 0 0 0 0 0 0 0 0 0 0 0 0 0 0 0 0 0 0 27 1759 2029 1999 1654 1388 1180 761 659 656 695 713 767 475 378 415 288 300 220 93 12 28 7 5 1 2 30 94
0 0 0 0 0 0 0 0 0 0 0 0 0 0 0 0 0 0 0 0 0 0 343 2110 2241 2055 1817 1446 1112 875 752 736 658 643 553 282 407 345 298 436 356 24 81 68 45 27 11 13 63
0 0 0 0 0 0 0 0 0 0 0 0 0 0 0 0 0 0 0 0 0 0 0 1483 2210 2030 2026 1714 1263 1032 988 920 796 690 616 447 378 349 377 337 252 166 182 187 135 44 50 31 12
0 0 0 0 0 0 0 0 0 0 0 0 0 0 0 0 0 0 0 0 0 0 0 33 1892 2065 2047 1881 1305 1066 1058 1082 873 779 660 447 426 334 235 152 137 145 308 232 168 84 18 29 11
0 0 0 0 0 0 0 0 0 0 0 0 0 0 0 0 0 0 0 0 0 0 0 0 1408 1931 1788 1674 1475 1263 1229 1235 873 886 617 498 452 267 214 58 106 254 241 129 162 74 9 1 0
0 0 0 0 0 0 0 0 0 0 0 0 0 0 0 0 0 0 0 0 0 0 0 0 1005 1777 1801 1718 1666 1454 1269 1127 1036 622 422 471 303 259 186 55 141 141 93 20 40 16 1 2 1
0 0 0 0 0 0 0 0 0 0 0 0 0 0 0 0 0 0 0 0 0 0 0 0 816 1709 1879 1783 1539 418 111 120 241 220 309 307 283 282 393 131 140 129 98 24 2 3 0 0 2
0 0 0 0 0 0 0 0 0 0 0 0 0 0 0 0 0 0 0 0 0 0 0 0 570 1719 1875 1817 1502 1039 1048 871 730 742 594 145 138 121 192 146 110 112 77 19 2 0 0 0 0
0 0 0 0 0 0 0 0 0 0 0 0 0 0 0 0 0 0 0 0 0 0 0 0 108 1505 1778 1847 1565 1136 1051 781 463 418 39 264 120 86 92 116 79 86 32 5 5 2 2 0 0
0 0 0 0 0 0 0 0 0 0 0 0 0 0 0 0 0 0 0 0 0 0 0 0 249 1391 1753 1875 1581 1183 999 254 145 172 76 44 114 167 130 94 102 90 37 5 2 1 2 1 0
0 0 0 0 0 0 0 0 0 0 0 0 1 0 0 0 0 1 0 0 0 0 0 1 12 1647 1799 1745 1520 961 640 198 178 129 116 21 20 49 130 66 57 20 0 1 0 0 0 1 0
0 0 0 0 0 0 0 0 0 0 0 0 0 0 0 0 0 1 0 0 0 0 3 0 1 1535 1569 1438 1083 562 130 195 142 63 45 44 31 37 16 35 8 3 0 1 0 9 1 3 0
0 0 0 0 0 0 0 0 0 0 0 0 0 0 0 0 0 1 0 0 0 1 6 3 3 1018 1143 1172 393 182 144 103 77 17 19 13 20 45 41 15 1 0 1 2 6 9 13 15 5
0 0 5 2 2 0 0 0 0 0 1 2 2 0 0 0 0 1 1 0 1 2 4 9 4 3 383 378 300 183 101 53 17 22 18 0 1 0 0 0 0 0 0 0 0 0 1 12 31
0 0 3 12 23 56 0 0 10 5 8 7 3 1 0 1 1 1 1 1 1 2 7 10 6 3 3 33 126 38 7 0 0 1 0 0 0 0 0 0 0 0 0 0 0 4 5 18 12
0 0 28 25 0 0 0 0 6 1 3 5 5 4 0 0 1 2 2 2 1 1 1 7 2 5 7 2 9 0 0 0 0 0 3 0 0 0 0 0 0 0 0 0 0 4 1 1 1

GFSSGP_con_sbcape_102.txt.gz
CAPE
0 0 0 0 0 0 0 0 0 0 0 0 0 0 0 0 0 0 446 901 869 1144 1367 1509 1609 1893 1808 1716 1632 1744 1896 1999 2066 2156 2209 2291 2254 2231 2145 2132 2208 2561 2371 1998 1839 1922 1992 1821 1689
0 0 0 0 0 0 0 0 0 0 0 0 0 0 0 0 142 892 1036 1001 985 1299 1375 1541 1748 1942 1865 1729 1748 1855 2046 2094 2105 2115 2180 2250 2294 2291 2203 2156 2359 2521 2477 2145 1895 1946 1918 1923 1546
0 0 0 0 0 0 0 0 0 0 0 0 0 0 0 0 310 931 909 1077 1098 1375 1412 1566 1837 1928 1902 1845 1879 1947 1983 1945 2017 2065 2210 2267 2361 2428 2361 2239 2381 2505 2561 2407 1982 2021 2105 1527 1303
0 0 0 0 0 0 0 0 0 0 0 0 0 0 0 0 680 939 1120 1167 1301 1448 1519 1616 1776 1907 1958 1980 2016 2036 1878 1767 1819 2008 2236 2348 2459 2538 2364 2174 2421 2635 2660 2582 2425 2324 1767 1267 1226
0 0 0 0 0 0 0 0 0 0 0 0 0 0 0 0 734 1165 1164 1251 1294 1451 1474 1549 1655 1861 2002 2124 2121 2027 1823 1675 1759 1967 2141 2257 2399 2493 2239 2061 2323 2265 2526 2499 2388 1943 1396 1195 1190
0 0 0 0 0 0 0 0 0 0 0 0 0 0 0 0 981 1175 1226 1121 1214 1352 1373 1550 1677 1795 1946 2034 2007 1947 1801 1693 1721 1865 2037 2240 2240 2179 2090 2026 2200 2181 2263 2181 1974 1433 1242 1199 1217
0 0 0 0 0 0 0 0 0 0 0 0 0 0 0 2 634 670 580 640 893 1057 1302 1468 1672 1832 1775 1809 1830 1843 1780 1755 1731 1750 1878 2049 2013 1905 1956 1981 1995 1820 1682 1686 1521 1237 1148 1220 1192
0 0 0 0 0 0 0 0 0 0 0 0 0 0 0 0 156 785 455 454 495 701 1028 1179 1416 1555 1499 1581 1584 1666 1740 1759 1740 1721 1738 1828 1819 1783 1756 1778 1784 1581 1453 1587 1403 1170 1133 1153 1050
0 0 0 0 0 0 0 0 0 0 0 0 0 0 0 0 1048 1048 823 663 565 598 604 934 1032 1206 1276 1081 1369 1548 1687 1741 1746 1738 1702 1613 1407 1534 1553 1475 1520 1340 1192 1433 1342 1130 1047 1055 809
0 0 0 0 0 0 0 0 0 0 0 0 0 0 0 1 554 1274 1201 743 778 621 493 691 721 837 662 1073 1225 1439 1649 1730 1583 1546 1354 1252 1162 1029 1140 1126 1247 1125 917 1109 1222 1007 791 710 346
0 0 0 0 0 0 0 0 0 0 0 0 0 0 0 0 0 541 918 1239 999 783 537 546 573 588 797 1136 1218 1139 1127 1128 921 1066 971 1079 965 840 765 743 789 646 630 532 705 384 320 371 217
0 0 0 0 0 0 0 0 0 0 0 0 0 0 0 0 0 0 134 662 872 1401 1036 683 622 603 794 1037 1117 1070 1171 1349 898 1099 1091 1044 1174 760 506 636 440 202 131 106 21 37 41 117 106
0 0 0 0 0 0 0 0 0 0 0 0 0 0 0 0 0 0 0 0 270 1455 1519 1132 708 709 757 841 966 989 1172 1207 1290 1005 995 1236 1432 1018 584 460 473 111 0 0 0 0 52 122 136
0 0 0 0 0 0 0 0 0 0 0 0 0 0 0 0 0 0 0 0 0 73 1330 1421 1014 757 708 872 877 914 1068 929 814 815 883 1125 1221 935 536 479 506 101 0 0 0 0 8 96 215
0 0 0 0 0 0 0 0 0 0 0 0 0 0 0 0 0 0 0 0 0 0 21 1433 1423 988 771 878 717 698 819 761 640 749 843 980 1107 763 515 426 290 157 0 0 0 1 0 29 82
0 0 0 0 0 0 0 0 0 0 0 0 0 0 0 0 0 0 0 0 0 0 0 358 1714 1437 1010 957 823 626 613 595 535 721 623 523 788 406 258 416 300 58 17 8 1 2 29 0 11
0 0 0 0 0 0 0 0 0 0 0 0 0 0 0 0 0 0 0 0 0 0 0 0 988 1782 1476 1241 1052 746 602 568 513 542 620 491 569 401 454 590 340 41 75 50 16 46 61 1 5
0 0 0 0 0 0 0 0 0 0 0 0 0 0 0 0 0 0 0 0 0 0 0 0 2 1632 1870 1743 1406 1003 829 759 630 664 677 506 457 376 411 492 333 179 126 83 81 99 40 16 4
0 0 0 0 0 0 0 0 0 0 0 0 0 0 0 0 0 0 0 0 0 0 0 0 0 758 1874 2015 1674 1395 1212 1147 1018 787 609 456 451 355 441 338 251 166 171 156 178 169 118 32 2
0 0 0 0 0 0 0 0 0 0 0 0 0 0 0 0 0 0 0 0 0 0 0 0 0 143 1806 1838 1866 1769 1594 1478 1269 974 683 467 489 388 430 282 229 190 268 158 187 137 108 54 3
0 0 0 0 0 0 0 0 0 0 0 0 0 0 0 0 0 0 0 0 0 0 0 0 0 2 1543 1758 1916 872 1141 932 1076 1045 883 722 581 438 450 240 231 222 192 119 114 91 58 58 2
0 0 0 0 0 0 0 0 0 0 0 0 0 0 0 0 0 0 0 0 0 0 0 0 0 0 873 1662 1761 1461 1434 1306 1043 1043 927 906 623 466 418 189 210 187 141 91 61 57 25 1 9
0 0 0 0 0 0 0 0 0 0 0 0 0 0 0 0 0 0 0 0 0 0 0 0 0 0 0 1663 1665 1531 1332 1202 980 1072 848 643 466 391 288 151 91 130 92 82 52 17 2 10 2
0 0 0 0 0 0 0 0 0 0 0 0 0 0 0 0 0 0 0 0 0 0 0 0 0 0 0 1617 1694 1454 1318 1143 826 901 778 539 379 198 117 80 35 77 94 40 18 8 1 0 0
0 0 0 0 0 0 0 0 0 0 0 0 0 0 0 0 0 0 0 0 0 0 0 0 2 1 0 1246 1696 1551 1260 985 823 788 694 554 370 199 77 74 43 78 88 59 22 0 1 0 2
0 0 0 0 0 0 0 0 0 0 0 0 0 0 0 0 0 0 0 0 0 1 3 1 2 2 1 1095 1694 1678 1292 604 509 536 414 325 281 214 125 105 55 54 46 16 0 0 0 1 4
0 0 0 0 0 0 0 0 0 0 0 0 0 0 0 0 0 0 0 0 1 1 2 3 4 2 2 1661 1420 1186 520 281 204 245 225 180 90 5 20 9 8 15 14 0 1 1 3 1 1
0 0 0 0 0 3 0 0 0 0 0 1 1 1 1 0 0 0 0 0 2 3 2 3 5 5 8 13 904 573 389 235 144 127 86 35 13 7 2 0 0 1 2 0 1 3 4 17 18
0 0 0 9 0 14 3 0 7 3 3 4 2 4 6 1 0 0 0 0 1 2 3 3 7 17 12 4 54 271 172 114 96 77 32 22 0 1 0 0 0 0 0 0 0 0 0 1 1
0 0 6 0 0 0 0 0 2 0 1 7 7 8 0 0 0 0 1 1 2 3 3 3 4 7 4 5 4 131 64 35 25 5 1 1 1 1 0 0 0 0 0 0 0 0 0 0 1

GFSSGP_con_sbcape_105.txt.gz
CAPE
0 0 0 0 0 0 0 0 0 0 0 0 0 0 0 0 0 0 695 967 1066 1415 1810 1828 1749 1784 1777 1714 1679 1730 2120 2406 2491 2417 2206 2136 2136 2111 2119 2142 2325 2533 2598 2300 1990 1936 1889 1944 1846
0 0 0 0 0 0 0 0 0 0 0 0 0 0 0 0 0 240 1432 1222 1227 1596 1861 1997 1761 1807 1858 1777 1788 1890 2205 2392 2451 2519 2422 2272 2226 2171 2218 2176 2378 2557 2572 2399 2004 2061 2221 1992 1519
0 0 0 0 0 0 0 0 0 0 0 0 0 0 0 0 1 992 1282 1442 1365 1661 1811 1939 1806 1820 1879 1886 1866 1947 2101 2133 2248 2401 2553 2452 2402 2397 2376 2273 2451 2557 2592 2544 2167 2282 2384 1614 1286
0 0 0 0 0 0 0 0 0 0 0 0 0 0 0 0 91 829 1456 1504 1640 1816 1850 1693 1787 1817 1904 1943 2025 2032 1945 1865 1942 2178 2508 2614 2609 2563 2420 2329 2513 2769 2689 2661 2620 2473 1934 1285 1182
0 0 0 0 0 0 0 0 0 0 0 0 0 0 0 0 290 1313 1487 1606 1771 1987 2025 2106 1682 1819 1913 2041 2122 2030 1821 1767 1851 2049 2245 2459 2600 2572 2338 2360 2469 2647 2649 2625 2572 2273 1524 1220 1217
0 0 0 0 0 0 0 0 0 0 0 0 0 0 0 0 1 1223 1479 1585 1817 2048 2131 2239 1780 1822 1922 2002 2017 1853 1715 1733 1839 1973 2100 2353 2471 2392 2185 2253 2350 2371 2424 2371 2125 1701 1369 1272 1264
0 0 0 0 0 0 0 0 0 0 0 0 0 0 0 0 201 936 1142 1348 1687 1914 2108 2244 2310 2097 1761 1875 1843 1701 1632 1669 1779 1898 2009 2168 2214 2207 2104 2201 2254 2169 2127 2057 1888 1370 1227 1281 1228
0 0 0 0 0 0 0 0 0 0 0 0 0 0 0 0 717 1001 1021 1154 1257 1456 1978 1931 1877 1949 2201 2404 1521 1556 1613 1621 1684 1752 1866 1979 1948 1975 2022 2057 2146 2011 1999 1747 1623 1220 1144 1200 1090
0 0 0 0 0 0 0 0 0 0 0 0 0 0 0 0 595 1312 1176 1199 1245 1140 982 1419 1649 1709 1929 2231 2084 1518 1531 1584 1616 1699 1669 1779 2230 2303 2243 2056 2019 1785 1584 1665 1490 1136 1064 1108 873
0 0 0 0 0 0 0 0 0 0 0 0 0 0 0 0 0 258 1418 1386 1207 1299 975 1123 1282 1454 1602 1529 2243 2359 2068 2274 2319 2262 2185 2162 2260 2279 2051 1900 1540 1576 1204 1443 1250 1113 965 1041 1680
0 0 0 0 0 0 0 0 0 0 0 0 0 0 0 0 0 0 150 1638 1262 1099 1186 992 839 984 1011 1267 1850 1912 1878 1889 1670 2345 2489 2264 2206 2296 2180 2144 2182 2294 1119 1909 1397 1336 1607 1647 1773
0 0 0 0 0 0 0 0 0 0 0 0 0 0 0 0 0 0 0 4 1692 1550 1276 1224 756 665 735 1265 1516 1622 1458 1539 1545 2314 2506 2455 1984 2044 2175 2064 2316 2322 1919 1879 1895 1824 1717 1666 1650
0 0 0 0 0 0 0 0 0 0 0 0 0 0 0 0 0 0 0 0 0 928 1912 1273 1056 666 582 980 1390 1513 1541 1631 1734 2219 2296 2455 1702 1813 1828 2167 2077 1982 1763 1675 1573 1598 1427 1503 1458
0 0 0 0 0 0 0 0 0 0 0 0 0 0 0 0 0 0 0 0 0 0 262 2029 1440 1055 1140 1105 1354 1370 1456 1557 1884 2210 2131 2148 2146 1730 1602 1429 1675 1698 1599 1438 1393 1372 1335 1275 1217
0 0 0 0 0 0 0 0 0 0 0 0 0 0 0 0 0 0 0 0 0 0 0 130 1642 1473 1467 1453 1567 1659 1500 1667 1364 1426 1442 1332 1415 1475 1352 1272 1399 1230 1171 1221 1088 1007 899 1074 819
0 0 0 0 0 0 0 0 0 0 0 0 0 0 0 0 0 0 0 0 0 0 0 0 204 1798 1817 1744 1704 1774 1651 1563 1268 1079 1028 1132 1311 1453 1136 1050 1064 751 587 882 881 510 620 737 665
0 0 0 0 0 0 0 0 0 0 0 0 0 0 0 0 0 0 0 0 0 0 0 0 0 446 1751 1884 1937 1704 1443 1442 1511 1124 1028 1096 1196 1205 935 1057 1044 582 351 520 508 457 563 649 507
0 0 0 0 0 0 0 0 0 0 0 0 0 0 0 0 0 0 0 0 0 0 0 0 0 0 1359 1906 1794 1699 1409 1434 1182 994 1018 1024 960 987 1065 1148 1029 661 425 418 317 263 251 353 447
0 0 0 0 0 0 0 0 0 0 0 0 0 0 0 0 0 0 0 0 0 0 0 0 0 0 0 1163 1801 1405 1105 1353 1160 1068 1326 1041 955 732 941 1219 967 537 610 435 330 245 157 107 144
0 0 0 0 0 0 0 0 0 0 0 0 0 0 0 0 0 0 0 0 0 0 0 0 0 0 0 235 1541 1819 1532 1333 1471 1259 1062 1127 1044 912 1007 1097 832 521 462 447 464 284 239 160 97
0 0 0 0 0 0 0 0 0 0 0 0 0 0 0 0 0 0 0 0 0 0 0 0 0 0 0 7 1361 2070 1520 1482 1401 1355 1148 1105 1370 1170 1119 990 749 441 396 424 551 471 322 147 97
0 0 0 0 0 0 0 0 0 0 0 0 0 0 0 0 0 0 0 0 0 0 0 0 0 1 0 1 614 1615 1346 1295 1444 1645 1426 1223 1042 1055 1125 909 706 556 420 600 513 488 371 215 104
0 0 0 0 0 0 0 0 0 0 0 0 0 0 0 0 0 0 0 0 0 0 0 0 0 1 3 2 9 1476 1623 1725 1931 1976 1986 1609 1159 1157 1012 861 763 813 653 497 390 391 282 185 101
0 0 0 0 0 0 0 0 0 0 0 0 0 1 0 0 0 0 0 0 0 0 0 0 0 0 2 2 3 908 1684 1801 1716 1991 1973 1620 1080 941 948 719 656 632 441 560 619 215 223 124 92
0 0 0 0 0 0 0 0 0 0 0 1 1 0 0 0 0 0 0 0 0 0 0 0 0 2 2 2 5 309 1516 1548 1756 1802 1953 1448 991 888 689 655 662 615 408 411 449 168 159 97 71
0 0 0 0 0 0 0 0 0 3 0 0 0 0 0 0 0 0 0 0 3 1 0 1 4 4 7 5 6 515 1428 1468 1748 1821 1758 1380 878 783 710 585 642 641 318 222 430 444 311 56 17
0 0 0 0 0 0 0 0 0 2 1 0 0 0 0 1 0 0 0 0 2 3 3 7 6 5 6 14 6 1274 1536 1378 1256 1547 1726 1238 865 625 430 401 357 312 126 170 237 131 199 235 16
0 0 0 0 0 0 0 0 0 1 1 2 2 3 1 0 0 0 1 2 3 2 4 6 6 9 8 11 7 520 1398 1113 906 946 1244 1018 826 513 222 208 218 94 106 150 82 107 138 6 3
0 0 0 0 0 0 0 0 14 9 0 0 2 2 1 1 0 0 0 2 1 1 4 5 5 6 7 4 6 2 636 652 476 454 520 420 245 157 126 99 60 78 88 145 104 148 6 6 2
0 0 0 0 0 0 0 0 12 2 5 3 4 3 1 1 0 0 0 1 1 1 4 5 5 5 7 5 4 25 317 262 186 184 186 126 114 97 61 31 1 3 14 17 10 1 0 0 8

GFSSGP_con_sbcape_108.txt.gz
CAPE
0 0 0 0 0 0 0 0 0 0 0 0 0 0 0 0 0 0 150 1338 1554 1605 2307 1987 1653 1775 1872 1909 1975 2259 2499 2634 2498 2279 2174 2272 2281 2243 2346 2418 2485 2713 2762 2587 2065 2141 2180 2450 2439
0 0 0 0 0 0 0 0 0 0 0 0 0 0 0 0 0 0 532 1668 1563 1811 2144 2111 1600 1723 1844 1891 1997 2269 2665 2778 2676 2474 2406 2421 2409 2373 2406 2397 2467 2768 2883 2766 2138 2240 2259 2262 1773
0 0 0 0 0 0 0 0 0 0 0 0 0 0 0 0 0 25 975 1744 1526 1823 1979 2304 1664 1647 1786 1837 1968 2174 2474 2571 2634 2553 2616 2573 2560 2567 2543 2409 2586 2890 2941 2826 2286 2492 2581 1687 1459
0 0 0 0 0 0 0 0 0 0 0 0 0 0 0 0 0 0 1078 1692 1733 1863 2097 1725 1597 1615 1749 1893 1965 2113 2169 2262 2419 2544 2674 2684 2702 2742 2578 2424 2721 3018 2962 2940 2855 2890 2294 1405 1264
0 0 0 0 0 0 0 0 0 0 0 0 0 0 0 0 0 139 1808 1902 1683 1977 2372 2538 1543 1639 1787 1983 2055 2044 1936 2024 2255 2497 2617 2704 2796 2754 2516 2451 2722 2921 2919 2920 2891 2616 1733 1334 1236
0 0 0 0 0 0 0 0 0 0 0 0 0 0 0 0 0 58 1781 2209 2049 2202 2563 2698 1763 1712 1816 1954 1976 1868 1747 1795 2049 2308 2475 2693 2700 2531 2443 2475 2581 2584 2658 2631 2574 2129 1538 1373 1311
0 0 0 0 0 0 0 0 0 0 0 0 0 0 0 0 0 55 1437 2272 2489 2550 2749 2929 2705 2198 1730 1861 1852 1758 1651 1665 1838 2058 2276 2475 2448 2316 2359 2502 2474 2445 2348 2357 2130 1853 1438 1404 1351
0 0 0 0 0 0 0 0 0 0 0 0 0 0 0 0 0 0 859 2215 2436 2603 2900 3022 2963 2601 2744 2477 1609 1532 1560 1584 1757 1864 1998 2171 2220 2226 2171 2279 2327 2252 2209 2111 1947 1572 1359 1357 1254
0 0 0 0 0 0 0 0 0 0 0 0 0 0 0 0 0 0 0 1644 2283 2261 2530 2614 2297 2341 2530 2842 2386 1531 1457 1481 1584 1781 1836 1920 2269 2603 2507 2184 2066 2087 1977 1788 1779 1390 1208 1245 1082
0 0 0 0 0 0 0 0 0 0 0 0 0 0 0 0 0 0 0 0 2010 2242 2197 2106 1957 2149 2197 2193 2875 2658 2598 2326 2226 2178 2299 2311 2313 2493 2218 2092 1901 1929 1730 1519 1476 1269 1067 1111 1641
0 0 0 0 0 0 0 0 0 0 0 0 0 0 0 0 0 0 0 0 829 1966 2211 2215 2090 2052 2160 2003 2634 2617 2843 2665 2720 2730 2780 2495 2486 2655 2510 2590 2571 2605 1572 2088 1612 1715 1824 1634 1650
0 0 0 0 0 0 0 0 0 0 0 0 0 0 0 0 0 0 0 0 0 1912 1883 2167 2194 2301 2210 1998 2524 2581 2622 2571 2236 2584 3008 2860 2745 2624 2538 2393 2506 2487 2397 2116 2109 1881 1813 1710 1700
0 0 0 0 0 0 0 0 0 0 0 0 0 0 0 0 0 0 0 0 0 0 442 1846 1956 2143 1987 1814 2201 2239 2209 2158 2273 2729 2786 2968 2637 2730 2528 2304 2289 2419 2210 2183 2187 1924 1915 1779 1770
0 0 0 0 0 0 0 0 0 0 0 0 0 0 0 0 0 0 0 0 0 0 0 24 1719 1957 1892 1852 2107 2023 2116 2013 2207 2329 2343 3151 2680 2564 2363 2442 2430 2428 2321 2206 2115 2026 1967 1792 1606
0 0 0 0 0 0 0 0 0 0 0 0 0 0 0 0 0 0 0 0 0 0 0 0 51 2156 2086 1887 1897 1919 1800 1919 1843 2086 2353 2542 2651 2548 2350 2250 2295 2375 2299 2352 2247 2098 1901 1772 1397
0 0 0 0 0 0 0 0 0 0 0 0 0 0 0 0 0 0 0 0 0 0 0 0 0 0 457 1860 2121 2125 1963 1951 1898 1891 2057 2485 2416 2371 2316 1830 1995 2073 2419 2341 2156 1891 1686 1793 1552
0 0 0 0 0 0 0 0 0 0 0 0 0 0 0 0 0 0 0 0 0 0 0 0 0 0 3 767 1670 2130 2343 2217 2089 2040 1953 1982 2117 1919 1872 1635 1807 1820 1708 1987 1913 1779 1753 1569 1325
0 0 0 0 0 0 0 0 0 0 0 0 0 0 0 0 0 0 0 0 0 0 0 0 0 0 0 16 1021 1445 1968 2240 2363 2219 2004 1828 1792 1655 1822 1750 1938 1482 1460 1726 1664 1433 1334 1347 1198
0 0 0 0 0 0 0 0 0 0 0 0 0 0 0 0 0 0 0 0 0 0 0 0 0 0 0 0 95 907 1652 1858 1781 2235 2183 1919 1815 1760 1671 1685 1689 1346 1347 1384 1352 1438 1074 1124 919
0 0 0 0 0 0 0 0 0 0 0 0 0 0 0 0 0 0 0 0 0 0 0 0 0 0 0 0 0 313 1039 1257 1457 1778 2136 2028 1681 1741 1615 1760 1565 1374 1369 1343 1132 995 664 808 963
0 0 0 0 0 0 0 0 0 0 0 0 0 0 0 0 0 0 0 0 0 0 0 0 0 0 0 1 0 0 770 1344 1329 1477 1844 1874 1998 1796 1600 1642 1703 1468 1498 1377 1205 876 733 472 403
0 0 0 0 0 0 0 0 0 0 0 0 0 0 0 0 0 0 0 0 0 0 0 0 0 0 0 0 3 2 203 1082 1410 1515 1515 1587 1694 2067 1762 1712 1744 1774 1391 1378 1403 902 1096 913 438
0 0 0 0 0 0 0 0 0 0 0 0 0 0 0 0 0 0 0 0 0 0 0 0 0 1 0 2 5 10 30 1116 1435 1439 1658 1653 1551 1702 1902 1946 1869 1778 1459 1239 1322 1117 1249 1379 1065
0 0 0 0 0 0 0 0 0 0 0 0 4 0 0 0 0 0 0 0 0 0 0 0 0 1 1 3 5 9 13 262 1667 1742 1846 1640 1674 1395 1572 1738 1876 1845 1347 1089 1232 1524 1472 1124 1147
0 3 15 11 5 0 0 0 0 0 0 0 3 4 0 0 0 0 0 0 0 0 0 0 1 2 2 2 5 6 6 42 830 2009 2090 1931 1841 1401 1440 1472 1585 1449 1346 1663 1545 1731 1512 1320 1236
0 24 27 6 9 9 0 0 21 5 6 0 0 0 0 0 0 0 0 0 0 1 3 4 3 4 2 3 6 7 7 7 799 1669 1533 1888 1924 1415 1363 1343 1430 1381 1544 1390 1503 1502 1349 1166 1281
0 6 0 14 12 5 0 0 19 7 17 17 6 2 1 0 0 0 0 0 1 1 4 4 6 5 6 9 10 9 9 8 996 2042 1655 1656 2104 1588 1361 1288 1198 1275 1124 849 1121 1271 1194 835 951
0 0 7 21 1 0 0 0 0 15 14 9 7 2 1 0 0 0 0 0 2 3 4 7 9 9 9 11 11 10 8 4 1462 1922 1822 1614 2149 1847 1467 1302 1035 935 696 521 868 988 883 521 720
0 0 0 1 1 0 0 0 18 2 5 5 1 0 0 0 0 0 0 0 1 3 3 4 7 5 10 12 8 8 8 917 1269 1577 1857 1722 1838 1553 1410 1179 704 691 603 394 394 459 532 516 579
0 0 0 0 0 0 0 0 18 8 1 0 0 0 0 0 0 0 0 1 1 1 2 4 3 0 7 8 10 11 11 13 622 989 1294 1315 1204 953 718 701 491 389 434 398 423 438 345 378 341

GFSSGP_con_sbcape_114.txt.gz
CAPE
0 0 0 0 0 0 0 0 0 0 0 0 0 0 0 0 0 0 876 1290 1705 2593 2025 1630 1710 1954 2188 2376 2378 2323 2215 2321 2385 2363 2403 2457 2399 2409 2474 2477 2434 2761 3003 2975 2496 2356 2300 2377 2370
0 0 0 0 0 0 0 0 0 0 0 0 0 0 0 0 0 0 0 459 1633 2624 1982 1907 1666 1903 2122 2282 2371 2423 2458 2489 2483 2499 2529 2557 2532 2556 2584 2466 2352 2570 3098 3054 2593 2574 2732 2675 2606
0 0 0 0 0 0 0 0 0 0 0 0 0 0 0 0 0 0 53 1117 1758 2071 2682 2171 1654 1824 2059 2229 2362 2440 2517 2517 2466 2499 2676 2698 2638 2702 2711 2465 2445 2800 3094 3040 2406 2491 2807 2477 2010
0 0 0 0 0 0 0 0 0 0 0 0 0 0 0 0 0 0 246 1320 1902 2098 2817 1156 1563 1730 1967 2246 2413 2543 2530 2379 2315 2430 2700 2805 2747 2810 2761 2451 2618 2954 3139 3055 2809 2800 2485 1745 1511
0 0 0 0 0 0 0 0 0 0 0 0 0 0 0 0 0 0 285 1859 1995 2412 2719 1844 1489 1629 1887 2271 2471 2506 2427 2307 2278 2394 2596 2743 2792 2803 2643 2417 2648 2960 3125 3114 3036 2793 2165 1419 1341
0 0 0 0 0 0 0 0 0 0 0 0 0 0 0 0 0 0 217 2052 2807 2976 3327 2026 1564 1588 1781 2023 2208 2274 2309 2329 2308 2361 2486 2678 2687 2648 2520 2397 2626 2725 2764 2844 2787 2601 2235 1423 1287
0 0 0 0 0 0 0 0 0 0 0 0 0 0 0 0 0 0 0 2407 3016 3090 3763 2998 2116 1739 1584 1683 1832 1953 2124 2253 2313 2325 2377 2506 2507 2453 2347 2383 2570 2507 2605 2582 2504 2362 1929 1476 1296
0 0 0 0 0 0 0 0 0 0 0 0 0 0 0 0 0 0 0 2102 3072 3410 3926 3688 2783 2206 1997 1741 1399 1574 1834 2024 2203 2276 2304 2329 2336 2299 2201 2203 2405 2510 2389 2391 2305 2217 1753 1415 1255
0 0 0 0 0 0 0 0 0 0 0 0 0 0 0 0 0 0 0 19 3225 3358 3766 3943 3166 2687 2504 2210 1658 1297 1478 1626 1909 2115 2164 2018 2455 2286 2151 2183 2097 2273 2183 2174 2203 2053 1712 1326 1207
0 0 0 0 0 0 0 0 0 0 0 0 0 0 0 0 0 0 0 0 1518 3166 3335 3612 3351 3061 2991 2344 2108 1878 1707 1689 1844 2028 2132 2529 2594 2551 2345 2267 1934 1994 2009 1978 1885 1876 1561 1143 1273
0 0 0 0 0 0 0 0 0 0 0 0 0 0 0 0 0 0 0 0 0 170 3027 3183 2638 2427 2515 2929 2612 2039 2041 1789 1834 1974 2184 2138 2288 2535 2195 2200 1864 2061 1671 1894 1500 1444 1521 1460 1323
0 0 0 0 0 0 0 0 0 0 0 0 0 0 0 0 0 0 0 0 0 0 2645 3057 2562 2507 2307 2370 2914 2803 2453 2273 2206 2113 2360 2207 2108 2125 2383 2018 2179 2173 2026 2012 1983 1816 1739 1636 1641
0 0 0 0 0 0 0 0 0 0 0 0 0 0 0 0 0 0 0 0 0 0 1168 2214 2255 2569 2329 2472 2605 2806 2546 2611 2636 2495 2638 2518 2239 2398 2403 2083 2229 2305 2130 2100 1944 1916 1882 1857 1762
0 0 0 0 0 0 0 0 0 0 0 0 0 0 0 0 0 0 0 0 0 0 0 563 1745 1971 2590 2651 2638 2504 2955 2776 2510 2497 2765 2748 2547 2015 2405 2189 2240 2403 2293 2136 1972 1770 1541 1842 1774
0 0 0 0 0 0 0 0 0 0 0 0 0 0 0 0 0 0 0 0 0 0 0 0 0 0 413 1931 2058 1998 2468 2455 2654 2534 2427 2484 2752 2354 2299 2471 1986 1860 2292 2111 2043 2175 2041 1946 1778
0 0 0 0 0 0 0 0 0 0 0 0 0 0 0 0 0 0 0 0 0 0 0 0 0 0 0 0 1867 2280 2009 2234 1961 2297 2365 2243 2655 2278 2722 2223 2294 2431 1813 2324 2233 2143 1745 1857 1901
0 0 0 0 0 0 0 0 0 0 0 0 0 0 0 0 0 0 0 0 0 0 0 0 0 0 0 0 0 62 1519 2270 1897 1726 2169 2164 2063 2654 2327 2445 2216 2156 2453 2094 2303 2002 1819 1855 1682
0 0 0 0 0 2 1 0 0 0 0 0 0 0 0 0 0 0 0 0 0 0 0 0 0 0 0 0 13 0 0 1259 2082 2186 1924 2131 2213 2211 2409 2348 2398 2025 2068 2139 2158 1976 2056 1842 1661
0 0 0 0 0 0 0 0 0 0 0 0 0 0 0 0 15 5 3 0 0 0 0 0 0 0 0 0 0 0 0 15 1122 1804 2201 2426 2355 2401 2287 2250 2463 2077 1854 1827 1843 2065 1911 1890 1879
1 1 1 4 0 0 0 0 0 0 0 0 0 0 0 0 12 1 0 0 0 0 0 0 0 0 0 0 0 0 0 0 10 8 336 1876 2430 2377 2496 2433 2413 2313 1927 1611 1803 2140 1840 1655 1736
9 16 26 11 0 3 6 4 0 0 0 0 0 0 19 33 18 0 0 0 0 0 0 0 0 0 0 0 0 0 0 0 1 1 2 1252 1664 2544 2014 2241 2277 2078 1869 1569 1460 1929 1533 1378 1339
35 15 44 23 29 45 8 27 17 0 0 0 0 117 44 0 0 0 0 0 0 0 0 0 0 0 0 0 0 0 0 0 0 0 0 36 794 1118 2136 1946 2211 1982 2038 1548 1289 1577 1556 1310 1145
51 51 34 1 0 13 0 5 0 0 4 0 83 84 0 0 0 0 0 0 0 0 0 0 0 0 0 0 0 0 0 0 0 0 0 0 12 463 1752 1975 2090 2008 2092 1782 1281 1281 1516 1234 1057
0 0 22 83 8 8 0 1 0 0 53 0 224 11 0 0 0 0 0 0 0 0 0 0 0 0 0 0 0 2 5 2 5 2 0 0 0 32 1153 1725 1921 1861 1775 1874 1589 1493 1452 1244 1253
0 0 0 26 3 1 0 2 0 371 364 258 62 0 0 0 0 0 0 0 0 0 0 0 0 0 1 2 4 4 4 5 4 5 6 3 0 0 208 1318 1584 1714 1782 1867 1879 1762 1467 1400 1244
5 5 6 0 7 12 0 15 221 220 60 3 0 0 0 0 0 0 0 0 0 0 0 0 0 1 3 4 6 7 8 8 8 8 8 6 6 0 0 1057 1197 907 1495 1559 1665 1677 1671 1480 1311
0 15 27 15 0 23 2 80 178 19 1 0 0 0 0 0 0 0 0 0 0 0 0 0 0 0 2 8 9 8 9 7 8 7 9 8 6 4 2 31 1361 1513 1657 1506 1599 1729 1626 1477 1187
0 0 13 14 57 23 24 17 9 58 3 1 0 0 0 0 0 0 0 0 0 0 0 0 3 4 4 9 9 10 13 11 10 13 11 9 5 5 6 0 1022 1833 1731 1666 1692 1656 1463 1289 1244
0 0 0 0 0 13 2 14 101 50 8 1 0 0 0 0 0 0 0 0 0 0 0 2 4 6 6 11 8 10 15 12 14 17 15 14 8 4 5 3 823 1594 1569 1627 1677 1581 1445 1381 1310
0 6 4 28 2 5 10 0 191 127 87 15 0 0 0 0 0 0 0 0 0 0 1 4 5 7 8 8 9 12 12 8 12 10 9 14 11 0 2 83 948 1249 1330 1306 1526 1549 1438 1387 1084

GFSSGP_con_sbcape_117.txt.gz
CAPE
0 0 0 0 0 0 0 0 0 0 0 0 0 0 0 0 1 381 439 1395 2042 1563 1560 1678 1818 2083 2224 2281 1969 1967 2167 2288 2291 2305 2310 2255 2238 2258 2235 2194 2222 2555 2779 2546 2357 2282 2146 2233 1997
0 0 0 0 0 0 0 0 0 0 0 0 0 0 0 0 0 0 194 1061 2145 1687 1396 1583 1732 1981 2161 2209 2192 2039 2309 2414 2381 2407 2401 2296 2301 2333 2361 2233 2330 2658 2987 2805 2231 2275 2444 2385 2438
0 0 0 0 0 0 0 0 0 0 0 0 0 0 0 0 0 0 561 1121 1812 1824 1542 1667 1662 1871 2089 2163 2234 2117 2238 2287 2327 2381 2502 2420 2441 2477 2446 2192 2178 2513 3149 3050 2592 2562 2561 2371 2125
0 0 0 0 0 0 0 0 0 0 0 0 0 0 0 0 0 0 872 1343 1546 2041 1851 1427 1598 1753 2020 2170 2240 2235 2190 2131 2148 2268 2510 2524 2591 2608 2407 2104 2250 2773 3075 3041 2730 2661 2443 1998 1560
0 0 0 0 0 0 0 0 0 0 0 0 0 0 0 0 0 11 1107 2010 1859 2286 1649 1332 1529 1690 1975 2222 2294 2294 2212 2061 2049 2227 2397 2413 2558 2591 2296 2069 2277 2699 2856 2847 2664 2560 2005 1349 1236
0 0 0 0 0 0 0 0 0 0 0 0 0 0 0 0 0 0 1465 2016 2223 2125 1729 1413 1524 1659 1925 2190 2282 2278 2174 2017 1993 2167 2326 2389 2364 2344 2190 2098 2199 2540 2692 2441 2562 2400 2024 1229 1144
0 0 0 0 0 0 0 0 0 0 0 0 0 0 0 0 0 0 1375 2074 2344 2646 1724 1496 1596 1674 1750 1998 2103 2081 2069 2015 1997 2088 2259 2373 2271 2209 2125 2119 2188 2471 2500 2435 2444 2339 2036 1461 1143
0 0 0 0 0 0 0 0 0 0 0 0 0 0 0 0 0 0 0 2244 2481 2732 2300 1563 1391 1409 1363 1442 1709 1854 1978 2019 2031 2062 2117 2231 2197 2172 2107 2057 2185 2404 2381 2321 2231 2164 1839 1389 1147
0 0 0 0 0 0 0 0 0 0 0 0 0 0 0 0 0 0 0 1096 2721 2534 2896 2156 1627 1441 1323 1174 1259 1461 1740 1841 1966 2010 1985 1800 1947 2050 1986 1897 2018 2275 2187 2162 2087 2056 1706 1273 1124
0 0 0 0 0 0 0 0 0 0 0 0 0 0 0 0 0 0 0 0 2667 2632 2697 2505 1985 1764 1593 1666 1196 1039 1294 1363 1536 1799 1678 1707 1839 1804 2000 1843 1845 2001 1962 1944 2006 1875 1690 1211 920
0 0 0 0 0 0 0 0 0 0 0 0 0 0 0 0 0 0 0 0 0 1436 2620 2759 2511 2222 1968 1851 1184 1155 1081 1047 1262 1619 1650 1837 1957 1824 1640 1653 1563 1434 1588 1503 1528 1409 1187 1041 892
0 0 0 0 0 0 0 0 0 0 0 0 0 0 0 0 0 0 0 0 0 0 2831 2519 2277 2249 2423 2328 1620 1286 1349 1056 1102 1218 1568 1687 1600 1721 1824 1672 1488 1423 1445 1401 1249 1207 1196 1072 970
0 0 0 0 0 0 0 0 0 0 0 0 0 0 0 0 0 0 0 0 0 0 2437 2308 2145 2087 2030 2019 2079 2009 1500 1399 1376 1358 1509 1553 1300 1483 1448 1416 1563 1554 1457 1412 1242 1237 1266 1232 1070
0 0 0 0 0 0 0 0 0 0 0 0 0 0 0 0 0 0 0 0 0 0 48 0 1505 2091 1859 1409 1661 1588 1665 1905 1748 1739 1765 1859 1639 1339 1453 1449 1453 1599 1528 1483 1330 1240 1268 1340 1132
0 0 0 0 0 0 0 0 0 0 0 0 0 0 0 0 0 0 0 0 0 0 0 0 0 0 0 432 964 1061 881 1545 1769 1486 1864 2163 1964 1586 1350 1467 1305 1567 1755 1471 1483 1133 859 1023 1121
0 0 0 0 0 0 0 0 0 0 0 0 0 0 0 0 0 0 0 0 0 0 0 0 0 0 0 0 0 422 895 987 1198 1418 1754 1880 2189 1815 1546 1338 1390 1052 1689 1616 1562 1403 1213 1018 1085
0 0 0 0 0 0 0 0 0 0 0 0 0 0 0 0 0 0 0 0 0 0 0 0 0 0 0 0 0 0 0 0 492 1072 1621 1589 1458 1931 1868 1544 1393 1451 1244 1592 1621 1333 1157 920 1015
0 0 0 0 0 0 0 0 0 0 0 0 0 0 0 0 0 0 0 0 0 0 0 0 0 0 0 0 0 0 0 0 0 488 786 1333 1470 1359 1857 1724 1649 1257 1337 1421 1474 1543 1096 1055 988
0 0 0 0 0 0 0 0 0 0 0 0 0 0 0 0 0 0 0 0 0 0 0 0 0 0 0 0 0 0 0 0 0 0 0 4 1148 1318 1370 1488 1381 1324 1406 1354 1124 1005 1365 1079 856
0 0 0 0 0 0 0 0 0 0 0 0 0 0 0 41 7 0 0 0 0 0 0 0 0 0 0 0 0 0 0 0 0 0 0 0 0 325 1175 1453 1439 1625 1257 800 1050 1076 816 1049 964
0 1 0 0 1 0 0 0 0 0 0 0 0 0 0 53 0 0 0 0 0 0 0 0 0 0 0 0 0 0 0 0 0 0 0 0 0 0 255 1257 1328 1355 1302 879 863 884 1113 1244 854
0 1 40 18 1 0 0 0 0 0 0 0 0 19 3 0 0 0 0 0 0 0 0 0 0 0 0 0 0 0 0 0 0 0 0 0 0 0 0 2 813 1285 1157 1006 815 950 1196 1019 1016
1 27 0 0 0 2 0 0 0 0 0 9 14 0 0 0 0 0 0 0 0 0 0 0 0 0 0 0 0 0 0 0 0 0 0 0 0 0 0 0 0 767 922 869 813 688 1266 894 853
11 1 0 0 0 3 0 0 0 0 38 166 59 0 0 0 0 0 0 0 0 0 0 0 0 0 0 0 0 0 0 0 0 0 0 0 0 0 0 0 0 0 920 1141 832 748 842 1301 1228
0 0 0 0 0 0 0 0 0 118 51 46 0 0 0 0 0 0 0 0 0 0 0 0 0 0 0 0 0 0 2 3 3 3 3 1 0 0 0 0 0 0 217 1048 1190 791 820 1053 1218
0 0 0 0 0 0 0 0 1 11 1 0 0 0 0 0 0 0 0 0 0 0 0 0 0 0 0 0 0 0 0 2 3 1 3 5 6 1 0 0 0 0 0 511 932 899 962 1136 1193
0 0 0 1 0 0 0 0 11 4 3 4 4 0 1 0 0 0 0 0 0 0 0 0 0 0 0 0 0 0 0 2 3 5 4 5 5 7 2 1 1 0 0 47 863 832 708 1395 1443
0 0 0 0 1 4 0 0 62 13 16 6 2 0 0 0 0 0 0 0 0 0 0 0 0 0 0 0 0 3 3 4 6 6 6 10 11 11 10 0 0 3 4 4 871 549 806 1068 1329
0 0 0 10 0 1 0 1 30 28 0 0 0 0 0 0 0 0 0 0 0 0 0 0 0 0 1 1 3 4 6 7 7 9 12 14 14 15 16 16 8 5 4 0 935 844 800 898 1050
0 0 0 0 0 0 0 0 124 37 16 8 0 0 0 0 0 0 0 0 0 0 0 0 0 1 1 0 6 9 9 10 10 10 10 15 15 12 14 18 19 0 1 3 871 1338 1067 957 1098

GFSSGP_con_sbcape_123.txt.gz
CAPE
0 0 0 0 0 0 0 0 0 0 0 0 0 0 0 0 0 8 397 1556 1358 1443 1775 1756 1833 1956 2005 1994 1967 2000 2078 2182 2250 2223 2258 2343 2427 2493 2536 2594 2713 2865 2964 2620 2373 2184 2123 1966 1777
0 0 0 0 0 0 0 0 0 0 0 0 0 0 0 16 3 138 654 1650 1470 1527 1699 1843 1799 1901 1960 1934 1993 2098 2314 2296 2281 2192 2191 2335 2421 2475 2535 2550 2649 2846 2929 2566 2243 2100 2057 2183 1784
0 0 0 0 0 0 0 0 0 0 0 0 0 0 0 0 0 137 283 1627 1484 1467 1623 1759 1879 1880 1875 1827 1925 2068 2250 2213 2234 2166 2227 2273 2401 2490 2482 2361 2570 2911 3024 2541 2252 2105 2477 1987 1626
0 0 0 0 0 0 0 0 0 0 0 0 0 0 0 0 0 487 930 1705 1389 1409 1482 1599 1803 1933 1919 1835 1870 2012 2106 1996 2036 2100 2224 2299 2374 2396 2244 2077 2485 2907 2969 2711 2681 2919 2252 1770 1358
0 0 0 0 0 0 0 0 0 0 0 0 0 0 0 0 23 1355 1390 1876 1531 1263 1306 1349 1560 1802 1995 2033 1931 1906 1955 1851 1898 2046 2079 2222 2418 2435 2134 2061 2479 2924 3023 3045 2830 2457 1934 1550 1294
0 0 0 0 0 0 0 0 0 0 0 0 0 0 0 0 2 905 1696 1767 1623 1305 1303 1321 1387 1698 1914 2066 1919 1756 1791 1762 1812 1913 1921 2109 2149 2136 1998 1983 2119 2550 2856 2522 2292 2057 1764 1341 1117
0 0 0 0 0 0 0 0 0 0 0 0 0 0 0 0 0 521 1450 1921 1707 1463 1262 1228 1391 1655 1826 1944 1962 1759 1699 1663 1729 1824 1860 1914 1830 1763 1794 1851 1907 2336 2426 2149 2108 1913 1378 1084 1012
0 0 0 0 0 0 0 0 0 0 0 0 0 0 0 0 0 49 1303 1954 1724 1457 1283 1160 1202 1407 1499 1574 1716 1760 1682 1612 1629 1728 1786 1738 1689 1671 1618 1621 1760 2134 2236 2113 2039 1937 1546 1094 871
0 0 0 0 0 0 0 0 0 0 0 0 0 0 0 0 0 0 1170 1829 2352 1815 1361 1094 1147 1194 1241 1297 1432 1547 1678 1642 1521 1554 1606 1524 1478 1514 1562 1512 1628 1901 2155 2029 2008 1926 1715 1365 895
0 0 0 0 0 0 0 0 0 0 0 0 0 0 0 0 0 0 0 1285 2071 2399 1859 1240 1130 1164 1045 1323 1424 1406 1485 1539 1391 1388 1419 1529 1470 1452 1636 1582 1507 1720 1841 1942 1913 1794 1642 1238 611
0 0 0 0 0 0 0 0 0 0 0 0 0 0 0 0 0 0 0 0 0 1889 2264 1809 1265 1046 1066 1240 1062 1124 1354 1297 1436 1676 1641 1583 1385 1490 1538 1465 1335 1371 1440 1547 1534 1399 1219 965 528
0 0 0 0 0 0 0 0 0 0 0 0 0 0 0 0 0 0 0 0 0 0 0 856 1555 1281 1002 1044 937 935 1023 959 1108 1281 1403 1363 1255 1233 1401 1449 1267 1147 1326 1519 1415 1370 1321 995 603
0 0 0 0 0 0 0 0 0 0 0 0 0 0 0 0 0 0 0 0 0 0 758 1398 1712 1575 1216 1206 994 721 932 968 984 1091 1252 1258 1250 1247 1329 1344 1151 1012 990 1176 1307 1351 1137 1021 758
0 0 0 0 0 0 0 0 0 0 0 0 0 0 0 0 0 0 0 0 0 0 0 0 11 733 1522 1285 1181 1006 840 845 691 851 951 1178 1363 1315 1307 1423 1107 1010 831 939 1005 1191 1096 1033 861
0 0 0 0 0 0 0 0 0 0 0 0 0 0 0 0 0 0 0 0 0 0 0 0 0 0 0 0 0 0 140 597 631 719 1102 923 1138 1133 1140 1195 1281 1214 1037 878 910 824 880 905 725
0 0 0 0 0 0 0 0 0 0 0 0 0 0 0 0 0 0 0 0 0 0 0 0 0 0 0 0 0 0 0 0 0 1 23 170 761 1156 907 814 986 1197 915 913 974 1056 1000 900 722
0 0 0 0 0 0 0 0 0 0 0 0 0 0 0 0 0 0 0 0 0 0 0 0 0 0 0 0 0 0 0 0 0 0 0 0 2 22 37 26 539 450 547 777 867 917 894 882 763
0 0 0 0 0 0 0 0 0 0 0 0 0 0 0 0 0 0 0 0 0 0 0 0 0 0 0 0 0 0 0 0 0 0 0 0 0 0 4 0 0 5 276 352 539 925 754 824 719
0 0 0 0 0 0 0 0 0 0 0 0 0 0 0 0 0 0 0 0 0 0 0 0 0 0 0 0 0 0 0 0 0 0 0 0 0 0 0 1 1 35 113 46 408 808 789 522 142
0 0 0 0 0 0 0 0 0 0 0 0 0 0 0 0 0 0 0 0 0 0 0 0 0 0 0 0 0 0 0 0 0 0 0 0 0 0 0 0 0 10 1 154 151 619 665 458 119
0 0 0 0 0 0 0 0 0 0 0 0 0 0 0 0 0 0 0 0 0 0 0 0 0 0 0 0 0 0 0 0 0 0 0 0 0 0 0 0 0 0 1 4 27 321 285 346 200
0 0 0 0 0 0 0 0 0 0 0 0 0 0 0 0 0 0 0 0 0 0 0 0 0 0 0 0 0 0 0 0 0 0 0 0 0 0 0 0 0 0 0 0 0 0 204 21 10
0 0 0 0 0 0 0 0 0 0 0 0 0 0 0 0 0 0 0 0 0 0 0 0 0 0 0 0 0 0 0 0 0 0 0 0 0 0 0 0 0 1 2 2 4 0 0 267 58
0 0 0 0 0 0 0 0 0 0 2 0 0 0 0 0 0 0 0 0 0 0 0 0 0 0 0 0 0 0 0 0 0 0 0 0 0 0 0 0 0 1 2 2 3 4 1 41 305
0 0 4 0 0 0 0 0 0 4 1 2 2 0 0 0 0 0 0 0 0 0 0 0 0 0 0 0 0 0 0 0 0 0 0 1 2 1 0 0 0 1 0 0 1 2 1 0 51
0 0 1 0 0 0 0 0 0 3 1 1 0 0 1 1 0 0 1 0 0 0 0 0 0 1 1 0 0 0 0 0 2 1 0 1 7 5 1 2 2 4 5 4 0 0 0 3 0
0 0 0 0 0 0 0 0 1 3 4 0 1 2 2 2 1 1 0 1 0 0 0 0 0 1 1 1 1 0 0 0 3 5 4 7 8 6 6 6 9 9 8 8 7 1 1 1 3
0 0 0 0 0 0 0 0 0 14 5 1 5 4 3 4 1 0 0 0 0 0 0 2 2 4 3 6 1 0 0 0 6 8 6 6 10 10 10 11 10 11 12 12 11 10 4 4 0
0 0 0 0 0 0 0 0 0 0 0 3 0 0 0 0 0 0 0 0 0 0 0 0 1 2 2 7 8 0 4 2 3 4 10 8 10 8 10 11 11 10 8 11 12 11 10 3 1
0 0 0 0 0 0 0 0 0 0 0 0 0 0 0 0 0 0 0 0 0 0 0 1 1 1 5 1 4 9 10 11 9 13 10 10 10 10 11 8 9 9 13 15 14 12 16 15 9

GFSSGP_con_sbcape_126.txt.gz
CAPE
0 0 0 0 0 0 0 0 0 0 0 0 0 0 0 0 39 0 81 1279 1170 1494 1595 1615 1838 1974 1969 1926 1800 1835 2217 2365 2493 2596 2626 2673 2684 2630 2579 2567 2635 2782 2963 2836 2427 2265 2076 1630 1396
0 0 0 0 0 0 0 0 0 0 0 0 0 0 0 0 0 191 414 1389 1258 1554 1629 1664 1835 1950 1970 1912 1906 1993 2299 2391 2378 2460 2563 2635 2678 2659 2624 2566 2627 2858 2990 2605 2530 2379 2206 2069 1428
0 0 0 0 0 0 0 0 0 0 0 0 0 0 0 0 0 69 334 1380 1381 1491 1657 1723 1781 1861 1922 1887 1908 2006 2188 2218 2209 2326 2516 2619 2701 2712 2666 2477 2566 2887 3004 2772 2373 2307 2447 1813 1441
0 0 0 0 0 0 0 0 0 0 0 0 0 0 0 0 0 235 1292 1410 1368 1422 1576 1691 1770 1795 1842 1898 1936 2015 2044 1987 1975 2089 2417 2611 2706 2765 2611 2414 2665 2994 3041 2911 2704 2624 2190 1609 1424
0 0 0 0 0 0 0 0 0 0 0 0 0 0 0 0 5 1258 1654 1501 1295 1317 1344 1421 1713 1765 1792 1889 1946 1947 1913 1820 1888 2000 2146 2383 2566 2569 2339 2286 2587 2817 2854 2709 2596 2535 1906 1588 1264
0 0 0 0 0 0 0 0 0 0 0 0 0 0 0 0 0 748 1469 1733 1441 1264 1227 1333 1542 1782 1887 1866 1791 1772 1818 1724 1806 1893 1991 2242 2275 2175 2028 2069 2368 2579 2635 2627 2570 2159 1772 1444 1216
0 0 0 0 0 0 0 0 0 0 0 0 0 0 0 0 0 0 721 1641 1494 1223 1201 1193 1412 1739 1908 2008 1862 1668 1705 1683 1716 1825 1808 1980 2047 1916 1850 2011 2272 2538 2587 2457 2141 1921 1689 1328 1067
0 0 0 0 0 0 0 0 0 0 0 0 0 0 0 0 0 1 1048 1707 1619 1271 1101 1012 1105 1425 1565 1587 1820 1679 1574 1594 1635 1693 1727 1720 1706 1730 1769 1840 1947 2333 2443 2154 1930 1722 1342 1003 875
0 0 0 0 0 0 0 0 0 0 0 0 0 0 0 0 0 0 622 1417 2023 1623 1256 972 1008 1153 1275 1365 1464 1531 1548 1530 1442 1537 1614 1586 1388 1396 1440 1454 1528 1925 2225 2019 1893 1725 1370 941 753
0 0 0 0 0 0 0 0 0 0 0 0 0 0 0 0 0 0 0 0 1381 1996 1688 1098 971 979 1008 1334 1430 1464 1527 1640 1356 1309 1348 1343 1381 1143 1341 1292 1239 1478 1758 1814 1754 1639 1495 1099 571
0 0 0 0 0 0 0 0 0 0 0 0 0 0 0 0 0 0 0 0 0 231 1975 1684 1164 865 916 1090 1124 1336 1416 1445 1490 1418 1220 1491 1462 1416 1298 1184 1099 1013 1207 1338 1350 1279 1079 946 447
0 0 0 0 0 0 0 0 0 0 0 0 0 0 0 0 0 0 0 0 0 0 1145 1134 1316 935 850 796 958 999 1218 1135 1258 1298 1446 1566 1258 1244 1263 1246 1281 965 1000 1366 1484 1367 1220 964 465
0 0 0 0 0 0 0 0 0 0 0 0 0 0 0 0 0 0 0 0 0 0 39 577 729 1099 823 890 685 516 743 927 1017 914 1083 1112 1153 1158 1262 1163 1263 1132 929 1320 1298 1265 979 807 728
0 0 0 0 0 0 0 0 0 0 0 0 0 0 0 0 0 0 0 0 0 0 37 0 129 1243 1476 1183 1000 720 388 573 700 727 891 1039 1177 1139 1201 1059 1108 943 629 887 1181 1098 976 798 706
0 0 0 0 0 0 0 0 0 0 0 0 0 0 0 0 0 0 0 0 0 0 0 0 0 0 0 0 0 0 42 65 71 80 26 305 882 956 953 672 954 623 480 630 797 985 1037 886 827
0 0 0 0 0 0 0 0 0 0 0 0 0 0 0 0 0 0 0 0 0 0 0 0 0 0 0 0 0 0 0 0 0 0 1 0 3 107 265 265 348 430 695 662 877 955 781 1069 778
0 0 0 0 0 0 0 0 0 0 0 0 0 0 0 0 0 0 0 0 0 0 0 0 0 0 0 0 0 0 0 0 0 0 0 0 0 0 2 71 248 403 241 677 830 937 923 920 840
0 0 0 0 0 0 0 0 0 0 0 0 0 0 0 0 0 0 0 0 0 0 0 0 0 0 0 0 0 0 0 0 0 0 0 0 0 0 0 1 2 0 0 38 273 408 529 792 893
0 0 0 0 0 0 0 0 0 0 0 0 0 0 0 0 0 0 0 0 0 0 0 0 0 0 0 0 0 0 0 0 0 0 0 0 0 0 0 0 0 0 3 0 0 0 27 199 404
0 0 0 0 0 0 0 0 0 0 0 0 0 0 0 0 0 0 0 0 0 0 0 0 0 0 0 0 0 0 0 0 0 0 0 0 0 0 0 0 0 0 0 0 8 0 0 0 112
0 0 0 0 0 0 0 0 0 0 0 0 0 0 0 0 0 0 0 0 0 0 0 0 0 0 0 0 0 0 0 0 0 0 0 0 0 0 0 0 0 0 0 0 0 0 13 10 126
0 0 0 0 0 0 0 0 0 0 0 0 0 0 0 0 0 0 0 0 0 0 0 0 0 0 0 0 0 0 0 0 0 0 0 0 0 0 0 0 0 0 0 1 1 6 6 2 19
0 0 0 0 0 0 0 0 0 0 0 0 0 0 0 0 0 0 0 0 0 0 0 0 0 0 0 0 0 0 0 0 0 0 0 0 0 0 0 0 0 0 1 0 0 0 0 4 0
0 0 0 0 0 0 0 0 0 0 0 0 0 0 0 0 0 0 0 0 0 0 0 0 0 0 0 0 0 0 1 1 1 1 1 1 1 0 0 0 0 1 1 2 1 1 0 3 4
0 0 0 0 0 0 0 0 0 0 0 0 0 0 0 0 0 0 0 0 0 1 0 0 0 0 0 0 0 0 0 0 1 1 0 0 1 0 2 2 1 1 2 1 4 1 0 0 2
0 0 0 0 0 0 0 0 0 0 0 0 0 0 0 0 0 0 0 0 0 0 0 0 0 1 1 1 0 0 0 1 1 1 0 4 6 6 5 7 8 5 9 11 9 9 5 3 3
0 0 0 4 0 0 0 0 0 0 0 0 0 1 0 0 0 0 0 0 0 0 0 0 0 0 0 1 0 1 0 2 3 3 7 8 7 6 6 5 8 8 8 10 10 11 11 6 5
0 0 0 0 1 0 0 0 0 1 0 1 0 0 0 0 0 0 0 0 0 0 0 1 1 3 3 6 2 7 7 8 4 7 8 8 7 7 9 7 10 9 9 8 8 9 11 13 7
0 0 0 0 0 0 0 0 0 0 0 0 0 0 0 0 0 0 0 0 0 0 0 0 2 4 6 5 0 7 7 8 10 12 9 10 10 9 12 13 11 14 12 11 10 12 13 13 13
0 0 0 0 0 0 0 0 0 0 0 0 0 0 0 0 0 0 0 0 0 0 0 1 1 1 3 2 4 7 7 11 9 10 13 12 9 8 8 11 11 12 11 12 13 12 11 10 13

GFSSGP_con_sbcape_129.txt.gz
CAPE
0 0 0 0 0 0 0 0 0 0 0 0 0 0 0 0 22 0 374 1781 1506 1847 1878 2040 1830 1945 1889 1853 1793 1954 2206 2746 2845 2693 2566 2513 2470 2440 2479 2502 2501 2651 3012 2945 2485 2324 1993 1398 1411
0 0 0 0 0 0 0 0 0 0 0 0 0 0 0 0 0 454 642 1736 1708 2001 2003 2178 1846 1956 1925 1842 1868 2066 2385 2670 2836 2843 2761 2656 2547 2601 2571 2483 2479 2771 3113 2750 2323 2457 2180 1844 1179
0 0 0 0 0 0 0 0 0 0 0 0 0 0 0 0 0 310 783 1821 1868 2154 2069 2129 1878 1944 1948 1863 1871 2006 2269 2290 2507 2703 2857 2831 2789 2805 2708 2475 2503 2844 3089 2439 2663 2568 2619 1729 1161
0 0 0 0 0 0 0 0 0 0 0 0 0 0 0 0 0 626 1756 1859 1830 2058 2114 1809 1778 1879 1945 1949 1935 2001 2055 2012 2107 2438 2785 2927 2933 2887 2718 2444 2663 2973 3071 3028 2990 2806 2376 1472 1165
0 0 0 0 0 0 0 0 0 0 0 0 0 0 0 0 0 1371 2019 1919 1887 1992 2147 2173 1756 1809 1930 2062 2057 2008 1886 1872 1887 2131 2407 2672 2835 2815 2543 2407 2636 2850 2914 2929 2784 2574 1845 1354 1224
0 0 0 0 0 0 0 0 0 0 0 0 0 0 0 0 0 47 1561 2049 2021 1989 2037 2148 1830 1798 1846 1945 1966 1911 1828 1735 1751 1859 2112 2397 2526 2544 2365 2336 2555 2651 2672 2583 2425 2223 1676 1442 1215
0 0 0 0 0 0 0 0 0 0 0 0 0 0 0 0 0 0 1382 2235 2186 1997 2089 2130 2350 2326 1821 1884 1789 1755 1829 1712 1680 1705 1802 2093 2193 2203 2168 2235 2378 2475 2428 2291 2288 2068 1685 1459 1210
0 0 0 0 0 0 0 0 0 0 0 0 0 0 0 0 0 0 1114 2328 2393 2249 2209 2150 2173 2433 2596 2674 1905 1612 1611 1650 1567 1631 1610 1723 1834 1826 1821 1931 2143 2354 2317 2354 2238 1944 1665 1458 1135
0 0 0 0 0 0 0 0 0 0 0 0 0 0 0 0 0 0 0 968 2424 2534 2471 2264 2229 2300 2475 2503 2321 1721 1482 1523 1537 1598 1561 1584 2012 2102 1991 1789 1930 2187 2306 2245 1943 1692 1550 1224 891
0 0 0 0 0 0 0 0 0 0 0 0 0 0 0 0 0 0 0 0 60 1830 2781 2586 2414 2244 2203 2023 2322 2494 2551 2490 2445 2349 2375 2366 2267 2174 1951 1758 1536 1709 2021 1864 1756 1598 1314 905 1411
0 0 0 0 0 0 0 0 0 0 0 0 0 0 0 0 0 0 0 0 0 1 1910 2640 2433 2300 2222 2154 2285 2253 1783 1889 2149 2176 2338 2328 2062 1840 2026 2091 1870 2016 1500 2410 1952 1957 2071 1993 1892
0 0 0 0 0 0 0 0 0 0 0 0 0 0 0 0 0 0 0 0 0 0 0 1355 1938 2224 2195 2218 2265 1855 1737 1766 1912 2061 2160 2226 2634 2047 1671 1672 1834 1979 1882 2029 2098 2231 2196 2060 2108
0 0 0 0 0 0 0 0 0 0 0 0 0 0 0 0 0 0 0 0 0 0 13 36 752 1109 1564 2008 1937 1962 1552 1494 1596 1720 1553 1864 2098 2090 1757 1914 1691 1619 1625 1983 1962 1745 1789 1764 1640
0 0 0 0 0 0 0 0 0 0 0 0 0 0 0 0 0 0 0 0 0 0 0 0 0 0 376 1118 1366 1438 1407 1463 1581 1596 1465 1428 1715 1957 1986 1805 1659 1376 1394 1151 2182 2161 1679 1708 1758
0 0 0 0 0 0 0 0 0 0 0 0 0 0 0 0 0 0 0 0 0 0 0 0 0 0 0 0 0 3 20 82 394 174 106 933 1659 2068 1952 1801 1559 1762 1526 1045 1258 1530 1783 1799 1300
0 0 0 0 0 0 0 0 0 0 0 0 0 0 0 0 0 0 0 0 0 0 0 0 0 0 0 0 0 0 0 0 1 4 9 6 3 0 772 1022 927 918 984 1078 957 1177 915 1218 1427
0 0 0 0 0 0 0 0 0 0 0 0 0 0 0 0 0 0 0 0 0 0 0 0 0 0 0 0 0 0 0 0 0 0 0 0 0 0 0 102 639 514 375 687 392 100 570 1125 1092
0 0 0 0 0 0 0 0 0 0 0 0 0 0 0 0 0 0 0 0 0 0 0 0 0 0 0 0 0 0 0 0 0 0 0 0 0 0 0 0 0 12 145 443 223 11 113 1035 1696
0 0 0 0 0 0 0 0 0 0 0 0 0 0 0 0 0 0 0 0 0 0 0 0 0 0 0 0 0 0 0 0 0 0 0 0 0 0 0 0 0 1 3 6 62 428 330 163 518
0 0 0 0 0 0 0 0 0 0 0 0 0 0 0 0 0 0 0 0 0 0 0 0 0 0 0 0 0 0 0 0 0 0 0 0 0 0 0 0 0 2 2 1 3 19 33 156 490
0 0 0 0 0 0 0 0 0 0 0 0 0 0 0 0 0 0 0 0 0 0 0 0 0 0 0 0 0 0 0 0 0 0 0 0 0 1 1 0 2 2 2 3 7 11 7 15 221
0 0 0 0 0 0 0 0 0 0 0 0 0 0 0 0 0 0 0 0 0 0 0 0 0 0 0 0 0 0 0 0 0 0 0 0 0 2 3 4 2 4 4 2 2 2 8 12 17
0 0 0 0 0 0 0 0 0 0 0 0 0 0 0 0 0 0 0 0 0 0 0 0 0 0 0 0 0 0 0 0 0 0 0 1 1 4 6 9 4 8 8 6 13 7 4 9 17
0 0 0 0 0 0 0 0 0 0 0 0 0 0 0 0 0 0 1 0 0 0 0 0 0 0 1 1 1 2 3 3 3 3 3 2 2 3 5 3 4 3 5 3 6 3 1 5 7
0 0 3 0 0 0 0 0 0 0 0 0 0 0 0 0 2 2 0 0 0 0 0 0 0 0 0 1 5 6 4 5 5 6 5 7 4 4 5 8 3 3 6 11 12 11 6 1 2
0 0 4 0 0 0 0 0 0 0 0 0 0 0 0 2 1 1 0 0 0 0 0 0 0 0 0 3 6 6 7 5 7 8 6 8 7 7 5 5 6 6 6 11 14 19 21 21 5
0 0 0 30 0 4 4 0 0 0 1 1 0 0 2 4 2 0 0 0 0 0 0 1 2 1 3 4 6 5 3 7 7 7 7 8 10 7 4 4 6 6 8 7 13 18 17 16 18
0 0 25 10 38 1 0 0 0 0 0 0 1 0 2 0 0 0 0 0 0 0 1 2 5 5 4 7 7 7 5 10 8 10 12 6 9 7 7 7 8 10 10 9 9 16 16 17 17
0 0 0 12 0 57 4 0 0 0 0 0 0 0 2 0 0 0 0 0 0 1 1 3 5 5 6 7 7 7 6 10 8 10 11 11 6 9 9 8 7 11 12 10 12 12 15 23 22
0 0 3 83 14 4 3 0 0 0 0 0 0 0 0 0 0 0 0 0 1 2 2 4 4 5 8 8 7 6 6 6 8 8 7 10 9 11 10 9 12 9 9 12 12 12 11 12 14

GFSSGP_con_sbcape_132.txt.gz
CAPE
0 0 0 0 0 0 0 0 0 0 0 0 0 0 0 0 197 518 1661 1989 2062 2163 2151 2279 1740 1792 1876 1976 2086 2338 2800 2870 2801 2609 2562 2588 2572 2435 2418 2525 2525 2807 3045 3015 2438 2207 1672 1518 1627
0 0 0 0 0 0 0 0 0 0 0 0 0 0 0 0 305 1094 1109 2046 2300 2431 2286 2514 1859 1887 1881 1915 2026 2297 2924 3044 3005 2787 2661 2682 2659 2595 2564 2481 2433 2729 3123 3174 2499 2393 2099 1654 1417
0 0 0 0 0 0 0 0 0 0 0 0 0 0 0 18 436 908 1750 1996 2437 2449 2451 2707 1965 1909 1914 1847 1987 2178 2556 2819 2933 2897 2869 2791 2775 2767 2753 2490 2483 2822 3264 3038 2566 2769 2704 1610 1055
0 0 0 0 0 0 0 0 0 0 0 0 0 0 0 36 202 1617 1887 1929 2281 2795 2623 1883 1875 1930 2006 1962 1977 2139 2180 2295 2591 2740 2983 2967 2880 2933 2823 2490 2604 3018 3405 2983 2962 3004 2645 1564 1108
0 0 0 0 0 0 0 0 0 0 0 0 0 0 0 13 265 911 1497 2049 2449 2608 2819 2816 1859 1943 2068 2174 2113 2046 2015 1934 2184 2548 2800 2953 3020 2999 2764 2474 2607 2947 3173 2962 3038 2870 2328 1577 1221
0 0 0 0 0 0 0 0 0 0 0 0 0 0 0 0 0 2 766 1618 2688 2793 2961 2870 1963 1861 1979 2090 2034 1959 1836 1808 1858 2141 2538 2815 2884 2812 2635 2457 2628 2841 2889 2878 2754 2475 2085 1445 1262
0 0 0 0 0 0 0 0 0 0 0 0 0 0 0 0 0 0 302 1448 2250 2974 3243 3234 3194 2670 1694 1835 1891 1873 1875 1755 1749 1784 2034 2388 2550 2549 2463 2422 2574 2698 2707 2655 2519 2292 1783 1448 1353
0 0 0 0 0 0 0 0 0 0 0 0 0 0 0 0 0 0 0 245 1153 2314 3167 3581 3594 3455 3358 3290 1826 1706 1770 1800 1675 1700 1710 1879 2165 2252 2204 2197 2341 2546 2454 2376 2353 2180 1752 1541 1344
0 0 0 0 0 0 0 0 0 0 0 0 0 0 0 0 0 0 0 0 0 613 2178 3275 3714 3636 3647 3523 3013 1824 1548 1579 1629 1644 1628 1705 2132 2225 2319 2074 1926 2244 2243 2143 2203 2087 1796 1620 1352
0 0 0 0 0 0 0 0 0 0 0 0 0 0 0 0 0 0 0 0 0 0 50 2435 3383 3684 3697 3186 3210 3304 3192 3001 2875 2746 2683 2586 2362 2303 2016 1801 1681 1890 1896 1456 1527 1798 1558 1412 1451
0 0 0 0 0 0 0 0 0 0 0 0 0 0 0 0 0 0 0 0 0 0 0 73 2444 3461 3607 3330 3299 3313 3169 3116 3020 3137 3061 2868 2662 2679 2468 2378 2405 2423 1615 2334 1717 1925 2084 1703 1604
0 0 0 0 0 0 0 0 0 0 0 0 0 0 0 0 0 0 0 0 0 0 17 93 969 2167 2900 3295 2874 3026 2628 2491 2550 2636 2708 3055 2890 2646 2619 2318 2548 2260 2252 2220 2355 2326 2190 2045 2081
0 0 0 0 0 0 0 0 0 0 0 0 0 0 0 0 0 0 0 0 0 0 0 0 0 75 1315 1502 2135 2799 2538 2429 2216 2318 2144 2456 2541 2707 2504 2418 2171 2145 2392 2417 2331 2289 2354 2454 2328
0 0 0 0 0 0 0 0 0 0 0 0 0 0 0 0 0 0 0 0 0 0 0 0 0 0 0 0 196 1266 1704 1889 1879 1731 1593 1800 2136 2284 2145 2472 2443 2423 2357 2401 2409 2165 2144 2311 2087
0 0 0 0 0 0 0 0 0 0 0 0 0 0 0 0 0 0 0 0 0 0 0 0 0 0 0 0 0 1 9 10 7 7 2 0 0 4 1609 2069 2018 2123 2351 2352 2119 2143 2011 1924 2066
0 0 0 0 0 0 0 0 0 0 0 0 0 0 0 0 0 0 0 0 0 0 0 0 0 0 0 0 0 0 1 0 0 0 0 0 0 0 0 225 1392 1524 1723 1503 1497 1848 1902 1692 2036
0 0 0 0 0 0 0 0 0 0 0 0 0 0 0 0 0 0 0 0 0 0 0 0 0 0 0 0 0 0 0 0 0 0 0 0 0 0 0 1 2 0 512 975 1250 1504 1692 1386 1366
0 0 0 0 0 0 0 0 0 0 0 0 0 0 0 0 0 0 0 0 0 0 0 0 0 0 0 0 0 0 0 0 0 0 0 0 0 0 0 0 0 0 5 263 788 1113 1288 869 484
0 0 0 0 0 0 0 0 0 0 0 0 0 0 0 0 0 0 0 0 0 0 0 0 0 0 0 0 0 0 0 0 0 0 0 0 0 0 0 0 0 0 0 4 3 35 607 997 641
0 0 0 0 0 0 0 0 0 0 0 0 0 0 0 0 0 0 0 0 0 0 0 0 0 0 0 0 0 0 0 0 0 0 0 0 0 0 0 0 0 0 0 0 3 9 8 180 513
0 0 0 0 0 0 0 0 0 0 0 0 0 0 0 0 0 0 0 0 0 0 0 0 0 0 0 0 0 0 0 0 0 0 0 0 0 0 0 0 0 1 0 0 1 1 7 15 12
0 0 0 0 0 0 0 0 0 0 0 0 0 0 0 0 0 0 0 0 0 0 0 0 0 0 0 0 0 0 0 0 0 0 0 0 0 0 1 3 4 3 2 1 2 0 3 8 11
0 0 0 0 1 1 0 0 0 0 0 0 0 0 0 0 0 0 0 0 0 0 0 0 0 0 0 0 0 0 0 0 0 0 0 0 0 0 1 6 10 7 8 5 10 14 10 8 2
0 0 0 1 0 0 0 0 0 0 0 0 0 0 0 0 0 2 0 0 0 0 0 0 0 0 0 0 2 4 4 2 0 2 1 0 0 1 3 6 10 8 9 9 8 8 11 5 7
0 1 0 1 13 0 0 0 0 1 0 0 0 0 0 1 4 6 0 0 0 0 0 0 0 0 0 2 2 3 3 7 4 7 7 10 5 4 7 10 9 9 6 11 14 12 4 3 4
0 4 20 0 0 6 0 0 0 0 0 0 0 0 0 3 6 3 0 0 0 0 0 0 0 0 1 3 4 5 5 7 7 8 11 10 10 9 11 9 9 17 16 14 13 18 20 15 23
46 57 37 59 33 40 6 1 8 0 0 0 0 0 1 8 4 2 0 0 0 0 0 2 1 1 3 7 6 5 6 8 7 8 11 9 10 10 10 12 11 12 14 15 15 21 19 18 21
39 77 67 86 31 40 15 14 29 32 37 1 0 0 2 7 3 0 0 0 0 0 0 2 3 4 5 6 6 5 7 8 8 8 11 11 11 11 11 11 6 6 7 12 15 14 16 16 20
79 81 58 92 76 76 66 15 28 2 13 34 12 0 4 8 3 0 0 0 0 0 0 1 3 5 6 6 5 6 7 9 8 9 9 9 10 10 7 11 9 8 7 9 15 12 9 12 16
49 48 105 167 37 76 151 15 22 8 14 28 61 14 19 3 0 0 0 0 0 0 0 0 2 5 7 6 6 8 8 9 11 8 6 11 9 11 10 13 11 12 11 12 11 13 19 20 19

GFSSGP_con_sbcape_135.txt.gz
CAPE
0 0 0 0 0 0 0 0 0 0 0 0 0 0 0 76 697 1115 1774 1981 2276 2042 2527 2021 1650 1946 2146 2315 2460 2654 2800 2852 2788 2722 2697 2783 2717 2539 2620 2696 2754 3106 3093 2658 2110 2028 2032 1793 1804
0 0 0 0 0 0 0 0 0 0 0 0 0 0 0 234 887 1378 1635 1608 2357 2497 2746 2314 1692 1803 2011 2132 2350 2737 3109 3161 2975 2831 2806 2819 2815 2632 2667 2668 2641 3062 3237 3081 2493 2196 1749 1729 1607
0 0 0 0 0 0 0 0 0 0 0 0 0 0 0 315 1085 1598 1194 1248 2096 2373 2696 2852 1919 1787 1863 2009 2175 2538 3060 3129 3017 2879 2947 2952 2933 2857 2781 2611 2592 3051 3434 3392 2652 2597 2631 1514 1168
0 0 0 0 0 0 0 0 0 0 0 0 0 0 80 174 981 1206 942 962 1595 2385 3012 2016 1958 1929 1864 1882 2043 2244 2563 2761 2859 2909 2991 3048 3051 3018 2925 2570 2622 3071 3517 3386 3106 3076 2762 1525 950
0 0 0 0 0 0 0 0 0 0 0 0 0 0 2 0 59 169 414 834 1381 2039 3181 2950 1924 1972 2049 2017 2029 2111 2160 2297 2621 2824 3010 3034 3033 3051 2896 2580 2636 3022 3494 3359 2974 2894 2592 1821 1208
0 0 0 0 0 0 0 0 0 0 0 0 0 0 0 0 0 0 157 515 1081 1731 2770 3307 2060 2090 2142 2190 2109 1994 1947 1962 2114 2490 2797 3040 3027 2933 2810 2599 2574 2770 3082 3001 2790 2675 2456 1967 1384
0 0 0 0 0 0 0 0 0 0 0 0 0 0 0 0 0 0 6 234 719 1459 2113 2917 3719 2640 1906 2008 2009 1941 1948 1870 1886 1970 2312 2724 2826 2616 2510 2551 2565 2700 2730 2832 2753 2488 2230 1807 1346
0 0 0 0 0 0 0 0 0 0 0 0 0 0 0 0 0 0 0 0 56 305 1464 2401 3383 4003 3794 3254 1867 1869 1867 1854 1722 1790 1837 2074 2365 2439 2259 2343 2294 2340 2384 2497 2534 2408 2159 1618 1359
0 0 0 0 0 0 0 0 0 0 0 0 0 0 0 0 0 0 0 0 0 0 362 1300 2708 3298 4113 4153 3407 1761 1679 1777 1735 1724 1609 1693 2075 2210 2510 2393 2153 2197 2142 2188 2270 2214 2021 1599 1407
0 0 0 0 0 0 0 0 0 0 0 0 0 0 0 0 0 0 0 0 0 0 0 197 1926 2752 3388 3351 3601 3806 3644 3255 2957 2726 2709 2496 2226 2018 2019 1871 1843 2019 1940 1810 1851 2024 1832 1538 1753
0 0 0 0 0 0 0 0 0 0 0 0 0 0 0 0 0 0 0 0 0 0 161 305 903 2436 2787 2441 2466 2504 2333 3013 3241 3496 3538 3082 3228 2847 2652 2928 2640 2281 1604 2100 1624 1871 2298 1974 1741
0 0 0 0 0 0 0 0 0 0 0 0 0 0 0 0 0 0 0 0 0 0 0 0 0 400 1398 2780 3176 3366 3222 3034 2837 3131 3005 3144 3494 3178 2917 2802 2607 2892 2566 2051 2140 2166 2110 2029 1899
0 0 0 0 0 0 0 0 0 0 0 0 0 0 0 0 0 0 0 0 0 0 0 0 0 1 305 637 838 2042 2745 2687 2349 2234 1979 2202 2702 2847 2832 3049 2652 2512 2715 2420 2454 2445 2228 2207 2417
0 0 0 0 0 0 0 0 0 0 0 0 0 0 0 0 0 0 0 0 0 0 0 0 0 0 2 74 51 132 98 107 101 15 2 1 2 2 591 2607 2482 2895 2591 2782 2295 2187 2031 2061 2197
0 0 0 0 0 0 0 0 0 0 0 0 0 0 0 0 0 0 0 0 0 0 0 0 0 0 0 1 1 2 1 0 1 0 0 0 0 0 0 145 1806 1777 2038 1924 1628 955 1645 2209 2085
0 0 0 0 0 0 0 0 0 0 0 0 0 0 0 0 0 0 0 0 0 0 0 0 0 0 0 0 0 0 0 0 0 0 0 0 0 0 0 7 184 28 2 980 992 351 270 445 1055
0 0 0 0 0 0 0 0 0 0 0 0 0 0 0 0 0 0 0 0 0 0 0 0 0 0 0 0 0 0 0 0 0 0 0 0 0 0 0 0 2 2 3 94 992 1349 1315 1366 1595
0 0 0 0 0 0 0 0 0 0 0 0 0 0 0 0 0 0 0 0 0 0 0 0 0 0 0 0 0 0 0 0 0 0 0 0 0 0 0 0 0 0 0 2 57 270 499 1326 1403
0 0 0 0 0 0 0 0 0 0 0 0 0 0 0 0 0 0 0 0 0 0 0 0 0 0 0 0 0 0 0 0 0 0 0 0 0 0 0 0 0 0 0 0 0 11 81 123 732
0 0 0 0 0 0 0 0 0 0 0 0 0 0 0 0 0 0 0 0 0 0 0 0 0 0 0 0 0 0 0 0 0 0 0 0 0 0 0 0 0 0 0 0 0 3 18 47 112
0 0 0 0 0 0 0 0 0 0 0 0 0 0 0 0 0 0 0 0 0 0 0 0 0 0 0 0 0 0 0 0 0 0 0 0 0 0 0 0 1 2 0 0 1 1 4 1 10
0 0 0 0 0 0 0 0 0 0 0 0 0 0 0 0 0 0 0 0 0 0 0 0 0 0 0 0 0 0 0 0 0 0 0 0 0 0 0 0 2 2 2 2 1 1 5 7 1
0 0 0 0 0 0 0 0 0 0 0 3 0 0 0 0 0 0 2 0 0 0 0 0 0 0 0 0 0 0 0 0 0 0 0 0 0 0 0 4 5 6 7 7 10 12 11 9 6
0 0 0 0 0 0 0 0 0 25 0 6 2 0 0 0 0 3 2 0 0 0 0 0 0 0 0 0 0 0 0 0 0 1 0 0 0 1 3 5 7 8 8 12 9 8 5 3 3
0 0 0 2 24 10 3 0 1 7 0 0 36 0 0 0 3 7 6 0 0 0 0 0 0 0 0 0 0 0 1 1 1 4 6 7 5 5 8 7 11 10 10 8 17 8 12 9 4
14 3 14 20 22 18 2 1 12 0 35 2 11 16 0 3 5 9 4 0 0 0 0 0 0 0 0 0 0 1 2 2 3 5 8 7 8 8 8 11 12 9 5 15 16 19 20 14 28
0 14 20 33 42 52 13 6 2 31 0 32 38 50 51 16 4 7 1 0 0 0 0 0 0 0 0 0 1 3 3 5 6 7 7 8 9 8 6 4 9 9 12 12 17 22 18 15 21
6 2 41 76 36 35 41 28 42 111 48 33 77 88 92 36 2 5 1 0 0 0 0 0 1 1 2 4 4 3 5 5 6 7 8 8 10 7 2 3 3 9 11 13 9 15 15 25 22
21 65 43 35 36 99 67 52 32 40 40 105 104 93 120 64 1 4 1 0 0 0 0 0 1 2 3 5 6 6 6 6 6 9 6 7 8 9 6 9 6 7 13 9 14 7 8 15 16
74 91 81 163 41 59 74 137 85 29 35 40 111 192 152 155 0 1 2 0 0 0 0 0 0 3 4 4 6 6 6 6 6 4 7 10 9 8 9 10 12 15 19 13 13 13 14 12 7